Wetterdaten: Montag, 01.04.2019
Datum Zeit Temp. A. Pool Temp. Temp. 5cm Feuchte A. Luftdruck Regen Wind Richtung Richtung Sonnenschein ET UV Solar Taupunkt Windchill Windben Empfang
01.04.2019 00:00 10,0 C 8,3 C 5,6 C 65 % 1018,9 hPa 0,0 l/m 6,4 km/h (2 Bft) O-NO 58 0 min 0,000 mm 0,0 UV-I 0 W/m 3,7 C 10,0 C 11,3 km/h (2 Bft) 97,37 %
01.04.2019 00:02 10,0 C 8,3 C 5,6 C 65 % 1018,9 hPa 0,0 l/m 6,1 km/h (2 Bft) O-NO 68 0 min 0,000 mm 0,0 UV-I 0 W/m 3,7 C 10,0 C 8,0 km/h (2 Bft) 7,14 %
01.04.2019 00:04 9,8 C 8,3 C 5,0 C 65 % 1018,9 hPa 0,0 l/m 5,4 km/h (1 Bft) O-NO 71 0 min 0,000 mm 0,0 UV-I 0 W/m 3,5 C 9,8 C 8,0 km/h (2 Bft) 76,67 %
01.04.2019 00:06 9,9 C 8,3 C 5,0 C 65 % 1018,9 hPa 0,0 l/m 5,7 km/h (1 Bft) O-NO 63 0 min 0,000 mm 0,0 UV-I 0 W/m 3,6 C 9,9 C 8,0 km/h (2 Bft) 98,11 %
01.04.2019 00:08 10,1 C 8,3 C 5,6 C 64 % 1018,9 hPa 0,0 l/m 6,3 km/h (2 Bft) O-NO 63 0 min 0,000 mm 0,0 UV-I 0 W/m 3,6 C 10,1 C 12,9 km/h (3 Bft) 97,37 %
01.04.2019 00:10 10,1 C 8,3 C 5,6 C 64 % 1018,9 hPa 0,0 l/m 4,7 km/h (1 Bft) NO 53 0 min 0,000 mm 0,0 UV-I 0 W/m 3,6 C 10,1 C 8,0 km/h (2 Bft) 98,00 %
01.04.2019 00:12 9,9 C 8,3 C 5,0 C 65 % 1018,9 hPa 0,0 l/m 8,2 km/h (2 Bft) O-NO 62 0 min 0,000 mm 0,0 UV-I 0 W/m 3,6 C 8,6 C 11,3 km/h (2 Bft) 100,00 %
01.04.2019 00:14 9,7 C 8,3 C 5,0 C 66 % 1018,9 hPa 0,0 l/m 9,1 km/h (2 Bft) O-NO 57 0 min 0,000 mm 0,0 UV-I 0 W/m 3,7 C 7,8 C 11,3 km/h (2 Bft) 94,74 %
01.04.2019 00:16 9,6 C 8,3 C 5,6 C 66 % 1018,9 hPa 0,0 l/m 8,8 km/h (2 Bft) O-NO 69 0 min 0,000 mm 0,0 UV-I 0 W/m 3,6 C 7,9 C 12,9 km/h (3 Bft) 100,00 %
01.04.2019 00:18 9,6 C 8,3 C 5,6 C 66 % 1018,9 hPa 0,0 l/m 8,0 km/h (2 Bft) NO 55 0 min 0,000 mm 0,0 UV-I 0 W/m 3,6 C 8,4 C 11,3 km/h (2 Bft) 100,00 %
01.04.2019 00:20 9,6 C 8,3 C 5,6 C 66 % 1018,9 hPa 0,0 l/m 9,4 km/h (2 Bft) O 79 0 min 0,000 mm 0,0 UV-I 0 W/m 3,6 C 7,5 C 14,5 km/h (3 Bft) 97,56 %
01.04.2019 00:22 9,7 C 8,3 C 5,0 C 66 % 1018,9 hPa 0,0 l/m 7,4 km/h (2 Bft) O-NO 63 0 min 0,000 mm 0,0 UV-I 0 W/m 3,7 C 9,0 C 11,3 km/h (2 Bft) 98,21 %
01.04.2019 00:24 9,7 C 8,3 C 5,0 C 65 % 1018,9 hPa 0,0 l/m 5,4 km/h (1 Bft) O 84 0 min 0,000 mm 0,0 UV-I 0 W/m 3,4 C 9,7 C 9,7 km/h (2 Bft) 100,00 %
01.04.2019 00:26 9,9 C 8,3 C 5,0 C 64 % 1018,9 hPa 0,0 l/m 5,6 km/h (1 Bft) O-NO 60 0 min 0,000 mm 0,0 UV-I 0 W/m 3,4 C 9,9 C 9,7 km/h (2 Bft) 100,00 %
01.04.2019 00:28 10,0 C 8,3 C 5,6 C 64 % 1018,9 hPa 0,0 l/m 5,5 km/h (1 Bft) O-NO 63 0 min 0,000 mm 0,0 UV-I 0 W/m 3,5 C 10,0 C 8,0 km/h (2 Bft) 97,37 %
01.04.2019 00:30 10,0 C 8,3 C 5,6 C 64 % 1018,9 hPa 0,0 l/m 6,2 km/h (2 Bft) O-NO 69 0 min 0,000 mm 0,0 UV-I 0 W/m 3,5 C 10,0 C 11,3 km/h (2 Bft) 100,00 %
01.04.2019 00:32 9,9 C 8,3 C 5,6 C 64 % 1018,9 hPa 0,0 l/m 7,5 km/h (2 Bft) O-NO 57 0 min 0,000 mm 0,0 UV-I 0 W/m 3,4 C 9,1 C 12,9 km/h (3 Bft) 100,00 %
01.04.2019 00:34 9,7 C 8,3 C 5,6 C 65 % 1018,9 hPa 0,0 l/m 7,2 km/h (2 Bft) NO 39 0 min 0,000 mm 0,0 UV-I 0 W/m 3,4 C 9,1 C 11,3 km/h (2 Bft) 95,74 %
01.04.2019 00:36 9,6 C 8,3 C 5,6 C 65 % 1018,9 hPa 0,0 l/m 8,3 km/h (2 Bft) O-NO 62 0 min 0,000 mm 0,0 UV-I 0 W/m 3,4 C 8,2 C 12,9 km/h (3 Bft) 100,00 %
01.04.2019 00:38 9,4 C 8,3 C 5,6 C 66 % 1018,9 hPa 0,0 l/m 8,2 km/h (2 Bft) NO 44 0 min 0,000 mm 0,0 UV-I 0 W/m 3,4 C 8,1 C 11,3 km/h (2 Bft) 100,00 %
01.04.2019 00:40 9,4 C 8,3 C 5,6 C 66 % 1018,9 hPa 0,0 l/m 10,2 km/h (2 Bft) O-NO 65 0 min 0,000 mm 0,0 UV-I 0 W/m 3,4 C 6,8 C 14,5 km/h (3 Bft) 97,87 %
01.04.2019 00:42 9,4 C 8,3 C 5,6 C 66 % 1018,9 hPa 0,0 l/m 9,4 km/h (2 Bft) NO 45 0 min 0,000 mm 0,0 UV-I 0 W/m 3,4 C 7,3 C 12,9 km/h (3 Bft) 100,00 %
01.04.2019 00:44 9,4 C 8,3 C 5,6 C 66 % 1018,9 hPa 0,0 l/m 9,1 km/h (2 Bft) NO 47 0 min 0,000 mm 0,0 UV-I 0 W/m 3,4 C 7,5 C 11,3 km/h (2 Bft) 100,00 %
01.04.2019 00:46 9,4 C 8,3 C 5,0 C 66 % 1018,9 hPa 0,0 l/m 8,3 km/h (2 Bft) O 80 0 min 0,000 mm 0,0 UV-I 0 W/m 3,4 C 8,0 C 12,9 km/h (3 Bft) 100,00 %
01.04.2019 00:48 9,3 C 8,3 C 5,0 C 66 % 1018,9 hPa 0,0 l/m 8,3 km/h (2 Bft) NO 55 0 min 0,000 mm 0,0 UV-I 0 W/m 3,3 C 7,9 C 12,9 km/h (3 Bft) 100,00 %
01.04.2019 00:50 9,4 C 8,3 C 5,0 C 66 % 1018,9 hPa 0,0 l/m 7,7 km/h (2 Bft) O-NO 62 0 min 0,000 mm 0,0 UV-I 0 W/m 3,4 C 8,4 C 11,3 km/h (2 Bft) 94,00 %
01.04.2019 00:52 9,5 C 8,3 C 5,0 C 65 % 1018,8 hPa 0,0 l/m 8,8 km/h (2 Bft) NO 42 0 min 0,000 mm 0,0 UV-I 0 W/m 3,3 C 7,8 C 14,5 km/h (3 Bft) 98,00 %
01.04.2019 00:54 9,4 C 8,3 C 5,0 C 65 % 1018,9 hPa 0,0 l/m 9,2 km/h (2 Bft) NO 50 0 min 0,000 mm 0,0 UV-I 0 W/m 3,2 C 7,4 C 14,5 km/h (3 Bft) 95,74 %
01.04.2019 00:56 9,4 C 8,3 C 5,0 C 65 % 1018,9 hPa 0,0 l/m 9,3 km/h (2 Bft) O-NO 64 0 min 0,000 mm 0,0 UV-I 0 W/m 3,2 C 7,4 C 14,5 km/h (3 Bft) 95,74 %
01.04.2019 00:58 9,5 C 8,3 C 5,6 C 65 % 1018,9 hPa 0,0 l/m 12,8 km/h (3 Bft) NO 45 0 min 0,000 mm 0,0 UV-I 0 W/m 3,3 C 5,5 C 17,7 km/h (3 Bft) 98,00 %
01.04.2019 01:00 9,7 C 8,3 C 6,1 C 65 % 1018,9 hPa 0,0 l/m 14,0 km/h (3 Bft) O-NO 69 0 min 0,025 mm 0,0 UV-I 0 W/m 3,4 C 5,2 C 17,7 km/h (3 Bft) 95,74 %
01.04.2019 01:02 9,7 C 8,3 C 6,7 C 65 % 1018,9 hPa 0,0 l/m 13,7 km/h (3 Bft) NO 50 0 min 0,000 mm 0,0 UV-I 0 W/m 3,4 C 5,3 C 17,7 km/h (3 Bft) 94,87 %
01.04.2019 01:04 9,8 C 8,3 C 6,7 C 64 % 1018,9 hPa 0,0 l/m 15,9 km/h (3 Bft) N-NO 32 0 min 0,000 mm 0,0 UV-I 0 W/m 3,3 C 4,5 C 20,9 km/h (4 Bft) 95,45 %
01.04.2019 01:06 9,8 C 8,3 C 7,2 C 64 % 1019,0 hPa 0,0 l/m 15,2 km/h (3 Bft) NO 55 0 min 0,000 mm 0,0 UV-I 0 W/m 3,3 C 4,8 C 17,7 km/h (3 Bft) 95,45 %
01.04.2019 01:08 9,8 C 8,3 C 7,2 C 64 % 1019,0 hPa 0,0 l/m 13,3 km/h (3 Bft) NO 56 0 min 0,000 mm 0,0 UV-I 0 W/m 3,3 C 5,6 C 22,5 km/h (4 Bft) 96,43 %
01.04.2019 01:10 9,8 C 8,3 C 7,2 C 64 % 1019,0 hPa 0,0 l/m 13,2 km/h (3 Bft) NO 53 0 min 0,000 mm 0,0 UV-I 0 W/m 3,3 C 5,7 C 20,9 km/h (4 Bft) 96,00 %
01.04.2019 01:12 9,8 C 8,3 C 7,2 C 64 % 1019,0 hPa 0,0 l/m 16,9 km/h (3 Bft) O-NO 72 0 min 0,000 mm 0,0 UV-I 0 W/m 3,3 C 4,1 C 22,5 km/h (4 Bft) 97,37 %
01.04.2019 01:14 9,8 C 8,3 C 7,2 C 64 % 1019,0 hPa 0,0 l/m 16,2 km/h (3 Bft) NO 44 0 min 0,000 mm 0,0 UV-I 0 W/m 3,3 C 4,4 C 22,5 km/h (4 Bft) 98,11 %
01.04.2019 01:16 9,9 C 8,3 C 7,2 C 64 % 1019,0 hPa 0,0 l/m 17,1 km/h (3 Bft) O-NO 59 0 min 0,000 mm 0,0 UV-I 0 W/m 3,4 C 4,2 C 22,5 km/h (4 Bft) 96,23 %
01.04.2019 01:18 9,9 C 8,3 C 7,2 C 64 % 1019,0 hPa 0,0 l/m 14,4 km/h (3 Bft) NO 41 0 min 0,000 mm 0,0 UV-I 0 W/m 3,4 C 5,3 C 17,7 km/h (3 Bft) 97,56 %
01.04.2019 01:20 9,9 C 8,3 C 6,7 C 64 % 1019,0 hPa 0,0 l/m 13,9 km/h (3 Bft) NO 55 0 min 0,000 mm 0,0 UV-I 0 W/m 3,4 C 5,5 C 17,7 km/h (3 Bft) 95,12 %
01.04.2019 01:22 9,9 C 8,3 C 7,2 C 64 % 1019,1 hPa 0,0 l/m 12,8 km/h (3 Bft) O-NO 69 0 min 0,000 mm 0,0 UV-I 0 W/m 3,4 C 6,0 C 19,3 km/h (3 Bft) 97,87 %
01.04.2019 01:24 10,0 C 8,3 C 7,2 C 64 % 1019,0 hPa 0,0 l/m 10,6 km/h (2 Bft) O-NO 75 0 min 0,000 mm 0,0 UV-I 0 W/m 3,5 C 7,3 C 14,5 km/h (3 Bft) 96,00 %
01.04.2019 01:26 10,0 C 8,3 C 7,2 C 64 % 1019,0 hPa 0,0 l/m 8,5 km/h (2 Bft) NO 53 0 min 0,000 mm 0,0 UV-I 0 W/m 3,5 C 8,5 C 14,5 km/h (3 Bft) 98,00 %
01.04.2019 01:28 9,9 C 8,3 C 7,2 C 64 % 1019,1 hPa 0,0 l/m 8,9 km/h (2 Bft) O-NO 65 0 min 0,000 mm 0,0 UV-I 0 W/m 3,4 C 8,2 C 14,5 km/h (3 Bft) 97,37 %
01.04.2019 01:30 9,9 C 8,3 C 6,7 C 64 % 1019,0 hPa 0,0 l/m 10,0 km/h (2 Bft) O-NO 73 0 min 0,000 mm 0,0 UV-I 0 W/m 3,4 C 7,5 C 16,1 km/h (3 Bft) 98,11 %
01.04.2019 01:32 9,8 C 8,3 C 7,2 C 64 % 1019,0 hPa 0,0 l/m 8,2 km/h (2 Bft) NO 44 0 min 0,000 mm 0,0 UV-I 0 W/m 3,3 C 8,5 C 12,9 km/h (3 Bft) 93,94 %
01.04.2019 01:34 9,8 C 8,3 C 7,2 C 64 % 1019,1 hPa 0,0 l/m 8,4 km/h (2 Bft) O-NO 73 0 min 0,000 mm 0,0 UV-I 0 W/m 3,3 C 8,4 C 12,9 km/h (3 Bft) 98,36 %
01.04.2019 01:36 9,8 C 8,3 C 7,2 C 65 % 1019,1 hPa 0,0 l/m 10,1 km/h (2 Bft) O-NO 65 0 min 0,000 mm 0,0 UV-I 0 W/m 3,5 C 7,3 C 14,5 km/h (3 Bft) 94,34 %
01.04.2019 01:38 9,7 C 8,3 C 6,7 C 65 % 1019,1 hPa 0,0 l/m 9,1 km/h (2 Bft) O 83 0 min 0,000 mm 0,0 UV-I 0 W/m 3,4 C 7,8 C 16,1 km/h (3 Bft) 97,87 %
01.04.2019 01:40 9,7 C 8,3 C 7,2 C 65 % 1019,1 hPa 0,0 l/m 9,4 km/h (2 Bft) O-NO 63 0 min 0,000 mm 0,0 UV-I 0 W/m 3,4 C 7,6 C 14,5 km/h (3 Bft) 100,00 %
01.04.2019 01:42 9,7 C 8,3 C 7,2 C 65 % 1019,1 hPa 0,0 l/m 10,9 km/h (2 Bft) NO 35 0 min 0,000 mm 0,0 UV-I 0 W/m 3,4 C 6,8 C 14,5 km/h (3 Bft) 100,00 %
01.04.2019 01:44 9,7 C 8,3 C 6,7 C 66 % 1019,1 hPa 0,0 l/m 8,8 km/h (2 Bft) NO 43 0 min 0,000 mm 0,0 UV-I 0 W/m 3,7 C 8,0 C 16,1 km/h (3 Bft) 100,00 %
01.04.2019 01:46 9,6 C 8,3 C 6,7 C 66 % 1019,1 hPa 0,0 l/m 9,7 km/h (2 Bft) NO 35 0 min 0,000 mm 0,0 UV-I 0 W/m 3,6 C 7,3 C 14,5 km/h (3 Bft) 97,56 %
01.04.2019 01:48 9,5 C 8,3 C 6,7 C 67 % 1019,1 hPa 0,0 l/m 9,0 km/h (2 Bft) O-NO 65 0 min 0,000 mm 0,0 UV-I 0 W/m 3,7 C 7,7 C 14,5 km/h (3 Bft) 97,56 %
01.04.2019 01:50 9,4 C 8,3 C 6,7 C 67 % 1019,1 hPa 0,0 l/m 8,4 km/h (2 Bft) NO 34 0 min 0,000 mm 0,0 UV-I 0 W/m 3,6 C 7,9 C 16,1 km/h (3 Bft) 100,00 %
01.04.2019 01:52 9,4 C 8,3 C 6,1 C 67 % 1019,1 hPa 0,0 l/m 7,4 km/h (2 Bft) NO 44 0 min 0,000 mm 0,0 UV-I 0 W/m 3,6 C 8,7 C 11,3 km/h (2 Bft) 100,00 %
01.04.2019 01:54 9,4 C 8,3 C 6,1 C 67 % 1019,0 hPa 0,0 l/m 8,3 km/h (2 Bft) NO 49 0 min 0,000 mm 0,0 UV-I 0 W/m 3,6 C 8,0 C 14,5 km/h (3 Bft) 100,00 %
01.04.2019 01:56 9,2 C 8,3 C 6,1 C 69 % 1019,1 hPa 0,0 l/m 9,9 km/h (2 Bft) NO 53 0 min 0,000 mm 0,0 UV-I 0 W/m 3,8 C 6,8 C 16,1 km/h (3 Bft) 100,00 %
01.04.2019 01:58 9,1 C 8,3 C 6,1 C 69 % 1019,0 hPa 0,0 l/m 11,3 km/h (2 Bft) O-NO 61 0 min 0,000 mm 0,0 UV-I 0 W/m 3,7 C 5,9 C 17,7 km/h (3 Bft) 100,00 %
01.04.2019 02:00 8,9 C 8,3 C 6,1 C 70 % 1019,0 hPa 0,0 l/m 11,4 km/h (2 Bft) NO 55 0 min 0,051 mm 0,0 UV-I 0 W/m 3,7 C 5,6 C 16,1 km/h (3 Bft) 100,00 %
01.04.2019 02:02 8,8 C 8,3 C 6,1 C 71 % 1019,1 hPa 0,0 l/m 10,8 km/h (2 Bft) NO 53 0 min 0,000 mm 0,0 UV-I 0 W/m 3,8 C 5,8 C 14,5 km/h (3 Bft) 100,00 %
01.04.2019 02:04 8,8 C 8,3 C 6,1 C 71 % 1019,1 hPa 0,0 l/m 10,2 km/h (2 Bft) NO 54 0 min 0,000 mm 0,0 UV-I 0 W/m 3,8 C 6,1 C 14,5 km/h (3 Bft) 100,00 %
01.04.2019 02:06 8,7 C 8,3 C 6,1 C 72 % 1019,1 hPa 0,0 l/m 11,3 km/h (2 Bft) NO 54 0 min 0,000 mm 0,0 UV-I 0 W/m 3,9 C 5,4 C 16,1 km/h (3 Bft) 100,00 %
01.04.2019 02:08 8,7 C 8,3 C 6,1 C 72 % 1019,1 hPa 0,0 l/m 11,9 km/h (2 Bft) NO 51 0 min 0,000 mm 0,0 UV-I 0 W/m 3,9 C 5,1 C 16,1 km/h (3 Bft) 98,11 %
01.04.2019 02:10 8,6 C 8,3 C 6,7 C 73 % 1019,0 hPa 0,0 l/m 8,6 km/h (2 Bft) NO 42 0 min 0,000 mm 0,0 UV-I 0 W/m 4,0 C 7,0 C 14,5 km/h (3 Bft) 96,00 %
01.04.2019 02:12 8,6 C 8,3 C 6,1 C 73 % 1019,1 hPa 0,0 l/m 10,8 km/h (2 Bft) NO 34 0 min 0,000 mm 0,0 UV-I 0 W/m 4,0 C 5,6 C 14,5 km/h (3 Bft) 97,44 %
01.04.2019 02:14 8,6 C 8,3 C 6,1 C 73 % 1019,0 hPa 0,0 l/m 9,9 km/h (2 Bft) O 84 0 min 0,000 mm 0,0 UV-I 0 W/m 4,0 C 6,1 C 16,1 km/h (3 Bft) 97,87 %
01.04.2019 02:16 8,6 C 8,3 C 6,1 C 73 % 1019,0 hPa 0,0 l/m 10,3 km/h (2 Bft) O-NO 74 0 min 0,000 mm 0,0 UV-I 0 W/m 4,0 C 5,9 C 16,1 km/h (3 Bft) 98,00 %
01.04.2019 02:18 8,5 C 8,3 C 6,1 C 74 % 1019,0 hPa 0,0 l/m 9,4 km/h (2 Bft) N-NO 28 0 min 0,000 mm 0,0 UV-I 0 W/m 4,1 C 6,3 C 14,5 km/h (3 Bft) 96,15 %
01.04.2019 02:20 8,4 C 8,3 C 6,1 C 74 % 1019,0 hPa 0,0 l/m 9,7 km/h (2 Bft) NO 55 0 min 0,000 mm 0,0 UV-I 0 W/m 4,0 C 6,0 C 14,5 km/h (3 Bft) 100,00 %
01.04.2019 02:22 8,4 C 8,3 C 6,1 C 75 % 1019,0 hPa 0,0 l/m 8,8 km/h (2 Bft) O-NO 57 0 min 0,000 mm 0,0 UV-I 0 W/m 4,2 C 6,6 C 14,5 km/h (3 Bft) 96,23 %
01.04.2019 02:24 8,4 C 8,3 C 6,1 C 75 % 1019,0 hPa 0,0 l/m 9,0 km/h (2 Bft) O-NO 57 0 min 0,000 mm 0,0 UV-I 0 W/m 4,2 C 6,5 C 14,5 km/h (3 Bft) 98,00 %
01.04.2019 02:26 8,4 C 8,3 C 6,1 C 75 % 1019,0 hPa 0,0 l/m 8,5 km/h (2 Bft) NO 51 0 min 0,000 mm 0,0 UV-I 0 W/m 4,2 C 6,8 C 11,3 km/h (2 Bft) 97,14 %
01.04.2019 02:28 8,4 C 8,3 C 6,7 C 75 % 1019,0 hPa 0,0 l/m 9,2 km/h (2 Bft) NO 43 0 min 0,000 mm 0,0 UV-I 0 W/m 4,2 C 6,3 C 12,9 km/h (3 Bft) 98,11 %
01.04.2019 02:30 8,4 C 8,3 C 6,7 C 75 % 1019,0 hPa 0,0 l/m 9,2 km/h (2 Bft) O-NO 60 0 min 0,000 mm 0,0 UV-I 0 W/m 4,2 C 6,3 C 12,9 km/h (3 Bft) 100,00 %
01.04.2019 02:32 8,4 C 8,3 C 6,7 C 76 % 1019,0 hPa 0,0 l/m 9,0 km/h (2 Bft) NO 34 0 min 0,000 mm 0,0 UV-I 0 W/m 4,4 C 6,5 C 14,5 km/h (3 Bft) 100,00 %
01.04.2019 02:34 8,4 C 8,3 C 6,7 C 76 % 1019,0 hPa 0,0 l/m 8,6 km/h (2 Bft) NO 54 0 min 0,000 mm 0,0 UV-I 0 W/m 4,4 C 6,7 C 12,9 km/h (3 Bft) 100,00 %
01.04.2019 02:36 8,4 C 8,3 C 6,7 C 76 % 1019,0 hPa 0,0 l/m 9,3 km/h (2 Bft) NO 55 0 min 0,000 mm 0,0 UV-I 0 W/m 4,4 C 6,3 C 14,5 km/h (3 Bft) 100,00 %
01.04.2019 02:38 8,4 C 8,3 C 6,7 C 76 % 1018,9 hPa 0,0 l/m 9,6 km/h (2 Bft) O-NO 62 0 min 0,000 mm 0,0 UV-I 0 W/m 4,4 C 6,1 C 14,5 km/h (3 Bft) 100,00 %
01.04.2019 02:40 8,4 C 8,3 C 6,7 C 76 % 1018,9 hPa 0,0 l/m 9,1 km/h (2 Bft) NO 53 0 min 0,000 mm 0,0 UV-I 0 W/m 4,4 C 6,4 C 14,5 km/h (3 Bft) 100,00 %
01.04.2019 02:42 8,4 C 8,3 C 6,7 C 76 % 1018,9 hPa 0,0 l/m 10,1 km/h (2 Bft) NO 54 0 min 0,000 mm 0,0 UV-I 0 W/m 4,4 C 5,8 C 14,5 km/h (3 Bft) 100,00 %
01.04.2019 02:44 8,3 C 8,3 C 6,1 C 77 % 1018,9 hPa 0,0 l/m 8,6 km/h (2 Bft) O-NO 61 0 min 0,000 mm 0,0 UV-I 0 W/m 4,5 C 6,6 C 9,7 km/h (2 Bft) 100,00 %
01.04.2019 02:46 8,3 C 8,3 C 6,1 C 77 % 1018,9 hPa 0,0 l/m 8,8 km/h (2 Bft) NO 49 0 min 0,000 mm 0,0 UV-I 0 W/m 4,5 C 6,5 C 12,9 km/h (3 Bft) 100,00 %
01.04.2019 02:48 8,3 C 8,3 C 6,1 C 77 % 1018,9 hPa 0,0 l/m 7,9 km/h (2 Bft) NO 55 0 min 0,000 mm 0,0 UV-I 0 W/m 4,5 C 7,1 C 12,9 km/h (3 Bft) 97,56 %
01.04.2019 02:50 8,2 C 8,3 C 5,6 C 78 % 1018,9 hPa 0,0 l/m 7,8 km/h (2 Bft) O-NO 61 0 min 0,000 mm 0,0 UV-I 0 W/m 4,6 C 7,1 C 11,3 km/h (2 Bft) 97,87 %
01.04.2019 02:52 8,2 C 8,3 C 5,6 C 78 % 1018,9 hPa 0,0 l/m 8,0 km/h (2 Bft) NO 50 0 min 0,000 mm 0,0 UV-I 0 W/m 4,6 C 7,0 C 11,3 km/h (2 Bft) 98,11 %
01.04.2019 02:54 8,1 C 8,3 C 5,6 C 78 % 1018,9 hPa 0,0 l/m 8,1 km/h (2 Bft) O-NO 57 0 min 0,000 mm 0,0 UV-I 0 W/m 4,5 C 6,8 C 12,9 km/h (3 Bft) 94,87 %
01.04.2019 02:56 8,1 C 8,3 C 5,6 C 78 % 1018,9 hPa 0,0 l/m 7,7 km/h (2 Bft) O-NO 57 0 min 0,000 mm 0,0 UV-I 0 W/m 4,5 C 7,1 C 12,9 km/h (3 Bft) 98,00 %
01.04.2019 02:58 8,0 C 8,3 C 5,6 C 79 % 1018,9 hPa 0,0 l/m 8,5 km/h (2 Bft) NO 45 0 min 0,000 mm 0,0 UV-I 0 W/m 4,6 C 6,4 C 14,5 km/h (3 Bft) 97,56 %
01.04.2019 03:00 8,1 C 8,3 C 5,6 C 79 % 1018,9 hPa 0,0 l/m 9,9 km/h (2 Bft) O-NO 59 0 min 0,000 mm 0,0 UV-I 0 W/m 4,7 C 5,6 C 14,5 km/h (3 Bft) 98,11 %
01.04.2019 03:02 8,1 C 8,3 C 5,6 C 79 % 1018,9 hPa 0,0 l/m 10,6 km/h (2 Bft) NO 46 0 min 0,026 mm 0,0 UV-I 0 W/m 4,7 C 5,1 C 16,1 km/h (3 Bft) 97,56 %
01.04.2019 03:04 8,1 C 8,3 C 5,6 C 79 % 1018,9 hPa 0,0 l/m 12,2 km/h (2 Bft) NO 48 0 min 0,000 mm 0,0 UV-I 0 W/m 4,7 C 4,2 C 17,7 km/h (3 Bft) 98,00 %
01.04.2019 03:06 8,2 C 8,3 C 6,1 C 79 % 1018,9 hPa 0,0 l/m 11,9 km/h (2 Bft) O-NO 65 0 min 0,000 mm 0,0 UV-I 0 W/m 4,8 C 4,5 C 16,1 km/h (3 Bft) 97,56 %
01.04.2019 03:08 8,3 C 8,3 C 6,1 C 78 % 1018,9 hPa 0,0 l/m 13,0 km/h (3 Bft) NO 47 0 min 0,000 mm 0,0 UV-I 0 W/m 4,7 C 4,0 C 17,7 km/h (3 Bft) 96,61 %
01.04.2019 03:10 8,4 C 8,3 C 6,1 C 78 % 1018,9 hPa 0,0 l/m 13,7 km/h (3 Bft) O-NO 73 0 min 0,000 mm 0,0 UV-I 0 W/m 4,8 C 3,8 C 20,9 km/h (4 Bft) 97,87 %
01.04.2019 03:12 8,5 C 8,3 C 6,1 C 78 % 1018,9 hPa 0,0 l/m 13,1 km/h (3 Bft) NO 51 0 min 0,000 mm 0,0 UV-I 0 W/m 4,9 C 4,2 C 17,7 km/h (3 Bft) 97,87 %
01.04.2019 03:14 8,6 C 8,3 C 6,1 C 77 % 1018,9 hPa 0,0 l/m 10,8 km/h (2 Bft) NO 53 0 min 0,000 mm 0,0 UV-I 0 W/m 4,8 C 5,6 C 16,1 km/h (3 Bft) 97,37 %
01.04.2019 03:16 8,6 C 8,3 C 5,6 C 77 % 1018,9 hPa 0,0 l/m 11,2 km/h (2 Bft) NO 49 0 min 0,000 mm 0,0 UV-I 0 W/m 4,8 C 5,3 C 17,7 km/h (3 Bft) 96,00 %
01.04.2019 03:18 8,5 C 8,3 C 6,1 C 77 % 1018,9 hPa 0,0 l/m 12,1 km/h (2 Bft) NO 53 0 min 0,000 mm 0,0 UV-I 0 W/m 4,7 C 4,7 C 17,7 km/h (3 Bft) 92,00 %
01.04.2019 03:20 8,4 C 8,3 C 6,1 C 78 % 1018,9 hPa 0,0 l/m 11,2 km/h (2 Bft) NO 41 0 min 0,000 mm 0,0 UV-I 0 W/m 4,8 C 5,1 C 17,7 km/h (3 Bft) 94,00 %
01.04.2019 03:22 8,4 C 8,3 C 6,1 C 78 % 1018,9 hPa 0,0 l/m 10,9 km/h (2 Bft) O-NO 59 0 min 0,000 mm 0,0 UV-I 0 W/m 4,8 C 5,3 C 17,7 km/h (3 Bft) 95,74 %
01.04.2019 03:24 8,4 C 8,3 C 6,1 C 78 % 1019,0 hPa 0,0 l/m 12,6 km/h (3 Bft) O-NO 58 0 min 0,000 mm 0,0 UV-I 0 W/m 4,8 C 4,4 C 19,3 km/h (3 Bft) 91,49 %
01.04.2019 03:26 8,2 C 8,3 C 6,1 C 78 % 1018,9 hPa 0,0 l/m 12,7 km/h (3 Bft) O-NO 63 0 min 0,000 mm 0,0 UV-I 0 W/m 4,6 C 4,1 C 20,9 km/h (4 Bft) 91,67 %
01.04.2019 03:28 8,2 C 8,3 C 6,1 C 79 % 1018,9 hPa 0,0 l/m 12,8 km/h (3 Bft) O-NO 57 0 min 0,000 mm 0,0 UV-I 0 W/m 4,8 C 4,0 C 20,9 km/h (4 Bft) 95,74 %
01.04.2019 03:30 8,2 C 8,3 C 6,1 C 79 % 1018,9 hPa 0,0 l/m 13,8 km/h (3 Bft) O-NO 61 0 min 0,000 mm 0,0 UV-I 0 W/m 4,8 C 3,5 C 17,7 km/h (3 Bft) 89,36 %
01.04.2019 03:32 8,2 C 8,3 C 6,1 C 79 % 1018,8 hPa 0,0 l/m 14,8 km/h (3 Bft) NO 56 0 min 0,000 mm 0,0 UV-I 0 W/m 4,8 C 3,0 C 20,9 km/h (4 Bft) 92,00 %
01.04.2019 03:34 8,2 C 8,3 C 6,1 C 79 % 1018,9 hPa 0,0 l/m 14,8 km/h (3 Bft) O-NO 63 0 min 0,000 mm 0,0 UV-I 0 W/m 4,8 C 3,0 C 19,3 km/h (3 Bft) 93,62 %
01.04.2019 03:36 8,2 C 8,3 C 6,1 C 79 % 1018,9 hPa 0,0 l/m 14,3 km/h (3 Bft) O-NO 57 0 min 0,000 mm 0,0 UV-I 0 W/m 4,8 C 3,3 C 20,9 km/h (4 Bft) 89,36 %
01.04.2019 03:38 8,2 C 8,3 C 6,1 C 79 % 1018,8 hPa 0,0 l/m 13,5 km/h (3 Bft) O-NO 71 0 min 0,000 mm 0,0 UV-I 0 W/m 4,8 C 3,7 C 22,5 km/h (4 Bft) 93,62 %
01.04.2019 03:40 8,3 C 8,3 C 6,1 C 79 % 1018,9 hPa 0,0 l/m 12,2 km/h (2 Bft) O-NO 57 0 min 0,000 mm 0,0 UV-I 0 W/m 4,9 C 4,4 C 19,3 km/h (3 Bft) 91,49 %
01.04.2019 03:42 8,4 C 8,3 C 6,1 C 78 % 1018,8 hPa 0,0 l/m 11,1 km/h (2 Bft) O-NO 64 0 min 0,000 mm 0,0 UV-I 0 W/m 4,8 C 5,2 C 16,1 km/h (3 Bft) 90,00 %
01.04.2019 03:44 8,4 C 8,3 C 6,1 C 78 % 1018,9 hPa 0,0 l/m 14,0 km/h (3 Bft) O-NO 63 0 min 0,000 mm 0,0 UV-I 0 W/m 4,8 C 3,7 C 20,9 km/h (4 Bft) 93,62 %
01.04.2019 03:46 8,3 C 8,3 C 6,1 C 78 % 1018,8 hPa 0,0 l/m 13,9 km/h (3 Bft) O-NO 63 0 min 0,000 mm 0,0 UV-I 0 W/m 4,7 C 3,6 C 20,9 km/h (4 Bft) 93,62 %
01.04.2019 03:48 8,3 C 8,3 C 6,1 C 79 % 1018,8 hPa 0,0 l/m 16,4 km/h (3 Bft) NO 52 0 min 0,000 mm 0,0 UV-I 0 W/m 4,9 C 2,5 C 22,5 km/h (4 Bft) 95,74 %
01.04.2019 03:50 8,3 C 8,3 C 6,1 C 79 % 1018,9 hPa 0,0 l/m 13,3 km/h (3 Bft) NO 40 0 min 0,000 mm 0,0 UV-I 0 W/m 4,9 C 3,9 C 22,5 km/h (4 Bft) 97,87 %
01.04.2019 03:52 8,3 C 8,3 C 6,1 C 79 % 1018,8 hPa 0,0 l/m 13,8 km/h (3 Bft) O-NO 72 0 min 0,000 mm 0,0 UV-I 0 W/m 4,9 C 3,6 C 17,7 km/h (3 Bft) 97,37 %
01.04.2019 03:54 8,4 C 8,3 C 6,1 C 78 % 1018,8 hPa 0,0 l/m 14,4 km/h (3 Bft) NO 55 0 min 0,000 mm 0,0 UV-I 0 W/m 4,8 C 3,5 C 19,3 km/h (3 Bft) 100,00 %
01.04.2019 03:56 8,4 C 8,3 C 6,1 C 78 % 1018,8 hPa 0,0 l/m 11,6 km/h (2 Bft) O-NO 61 0 min 0,000 mm 0,0 UV-I 0 W/m 4,8 C 4,9 C 19,3 km/h (3 Bft) 100,00 %
01.04.2019 03:58 8,3 C 8,3 C 6,1 C 78 % 1018,9 hPa 0,0 l/m 11,6 km/h (2 Bft) O 80 0 min 0,000 mm 0,0 UV-I 0 W/m 4,7 C 4,8 C 16,1 km/h (3 Bft) 100,00 %
01.04.2019 04:00 8,2 C 8,3 C 6,1 C 78 % 1018,9 hPa 0,0 l/m 9,7 km/h (2 Bft) O-NO 68 0 min 0,025 mm 0,0 UV-I 0 W/m 4,6 C 5,8 C 16,1 km/h (3 Bft) 97,87 %
01.04.2019 04:02 8,0 C 8,3 C 5,6 C 79 % 1018,9 hPa 0,0 l/m 8,6 km/h (2 Bft) NO 53 0 min 0,000 mm 0,0 UV-I 0 W/m 4,6 C 6,3 C 14,5 km/h (3 Bft) 100,00 %
01.04.2019 04:04 7,8 C 8,3 C 5,6 C 80 % 1018,8 hPa 0,0 l/m 8,9 km/h (2 Bft) NO 38 0 min 0,000 mm 0,0 UV-I 0 W/m 4,6 C 5,9 C 14,5 km/h (3 Bft) 97,87 %
01.04.2019 04:06 7,8 C 8,3 C 5,6 C 80 % 1018,9 hPa 0,0 l/m 7,7 km/h (2 Bft) O-NO 68 0 min 0,000 mm 0,0 UV-I 0 W/m 4,6 C 6,8 C 11,3 km/h (2 Bft) 97,92 %
01.04.2019 04:08 7,7 C 8,3 C 5,0 C 80 % 1018,9 hPa 0,0 l/m 6,1 km/h (2 Bft) O-NO 65 0 min 0,000 mm 0,0 UV-I 0 W/m 4,5 C 7,7 C 9,7 km/h (2 Bft) 100,00 %
01.04.2019 04:10 7,6 C 8,3 C 5,0 C 80 % 1018,9 hPa 0,0 l/m 6,7 km/h (2 Bft) O-NO 60 0 min 0,000 mm 0,0 UV-I 0 W/m 4,4 C 7,4 C 12,9 km/h (3 Bft) 100,00 %
01.04.2019 04:12 7,4 C 8,3 C 5,0 C 81 % 1018,9 hPa 0,0 l/m 7,9 km/h (2 Bft) O-NO 61 0 min 0,000 mm 0,0 UV-I 0 W/m 4,4 C 6,2 C 12,9 km/h (3 Bft) 97,87 %
01.04.2019 04:14 7,3 C 8,3 C 4,4 C 81 % 1018,9 hPa 0,0 l/m 8,3 km/h (2 Bft) NO 56 0 min 0,000 mm 0,0 UV-I 0 W/m 4,3 C 5,8 C 11,3 km/h (2 Bft) 100,00 %
01.04.2019 04:16 7,2 C 8,3 C 4,4 C 82 % 1018,9 hPa 0,0 l/m 8,9 km/h (2 Bft) O-NO 59 0 min 0,000 mm 0,0 UV-I 0 W/m 4,3 C 5,2 C 14,5 km/h (3 Bft) 95,74 %
01.04.2019 04:18 7,1 C 8,3 C 4,4 C 83 % 1018,9 hPa 0,0 l/m 10,7 km/h (2 Bft) O-NO 59 0 min 0,000 mm 0,0 UV-I 0 W/m 4,4 C 3,9 C 14,5 km/h (3 Bft) 100,00 %
01.04.2019 04:20 7,1 C 8,3 C 4,4 C 83 % 1018,9 hPa 0,0 l/m 10,6 km/h (2 Bft) O-NO 57 0 min 0,000 mm 0,0 UV-I 0 W/m 4,4 C 4,0 C 16,1 km/h (3 Bft) 100,00 %
01.04.2019 04:22 7,1 C 8,3 C 4,4 C 83 % 1019,0 hPa 0,0 l/m 10,3 km/h (2 Bft) NO 52 0 min 0,000 mm 0,0 UV-I 0 W/m 4,4 C 4,2 C 14,5 km/h (3 Bft) 100,00 %
01.04.2019 04:24 7,1 C 8,3 C 4,4 C 83 % 1018,9 hPa 0,0 l/m 8,3 km/h (2 Bft) O-NO 66 0 min 0,000 mm 0,0 UV-I 0 W/m 4,4 C 5,6 C 14,5 km/h (3 Bft) 100,00 %
01.04.2019 04:26 7,3 C 8,3 C 4,4 C 83 % 1019,0 hPa 0,0 l/m 7,5 km/h (2 Bft) O-NO 68 0 min 0,000 mm 0,0 UV-I 0 W/m 4,6 C 6,4 C 12,9 km/h (3 Bft) 95,74 %
01.04.2019 04:28 7,3 C 8,3 C 4,4 C 82 % 1019,0 hPa 0,0 l/m 9,9 km/h (2 Bft) O 99 0 min 0,000 mm 0,0 UV-I 0 W/m 4,4 C 4,7 C 14,5 km/h (3 Bft) 100,00 %
01.04.2019 04:30 7,2 C 8,3 C 4,4 C 82 % 1019,0 hPa 0,0 l/m 10,5 km/h (2 Bft) O 101 0 min 0,000 mm 0,0 UV-I 0 W/m 4,3 C 4,2 C 14,5 km/h (3 Bft) 97,87 %
01.04.2019 04:32 7,2 C 8,3 C 4,4 C 82 % 1019,0 hPa 0,0 l/m 9,2 km/h (2 Bft) O 87 0 min 0,000 mm 0,0 UV-I 0 W/m 4,3 C 5,0 C 12,9 km/h (3 Bft) 100,00 %
01.04.2019 04:34 7,2 C 8,3 C 4,4 C 83 % 1019,0 hPa 0,0 l/m 10,0 km/h (2 Bft) O-NO 69 0 min 0,000 mm 0,0 UV-I 0 W/m 4,5 C 4,5 C 12,9 km/h (3 Bft) 100,00 %
01.04.2019 04:36 7,2 C 8,3 C 4,4 C 83 % 1019,0 hPa 0,0 l/m 9,6 km/h (2 Bft) O 98 0 min 0,000 mm 0,0 UV-I 0 W/m 4,5 C 4,8 C 12,9 km/h (3 Bft) 100,00 %
01.04.2019 04:38 7,2 C 8,3 C 4,4 C 83 % 1019,0 hPa 0,0 l/m 7,6 km/h (2 Bft) O-NO 69 0 min 0,000 mm 0,0 UV-I 0 W/m 4,5 C 6,2 C 12,9 km/h (3 Bft) 97,87 %
01.04.2019 04:40 7,2 C 8,3 C 4,4 C 83 % 1019,0 hPa 0,0 l/m 9,9 km/h (2 Bft) O-NO 71 0 min 0,000 mm 0,0 UV-I 0 W/m 4,5 C 4,6 C 12,9 km/h (3 Bft) 97,87 %
01.04.2019 04:42 7,3 C 8,3 C 4,4 C 83 % 1018,9 hPa 0,0 l/m 8,5 km/h (2 Bft) O-NO 67 0 min 0,000 mm 0,0 UV-I 0 W/m 4,6 C 5,6 C 12,9 km/h (3 Bft) 100,00 %
01.04.2019 04:44 7,3 C 8,3 C 5,0 C 83 % 1019,0 hPa 0,0 l/m 8,4 km/h (2 Bft) O-NO 59 0 min 0,000 mm 0,0 UV-I 0 W/m 4,6 C 5,7 C 12,9 km/h (3 Bft) 97,92 %
01.04.2019 04:46 7,3 C 8,3 C 5,0 C 82 % 1018,9 hPa 0,0 l/m 8,3 km/h (2 Bft) O-NO 78 0 min 0,000 mm 0,0 UV-I 0 W/m 4,4 C 5,8 C 12,9 km/h (3 Bft) 97,87 %
01.04.2019 04:48 7,3 C 8,3 C 5,0 C 82 % 1018,9 hPa 0,0 l/m 8,5 km/h (2 Bft) O-NO 72 0 min 0,000 mm 0,0 UV-I 0 W/m 4,4 C 5,6 C 12,9 km/h (3 Bft) 98,00 %
01.04.2019 04:50 7,3 C 8,3 C 4,4 C 82 % 1019,0 hPa 0,0 l/m 9,0 km/h (2 Bft) O-NO 67 0 min 0,000 mm 0,0 UV-I 0 W/m 4,4 C 5,3 C 12,9 km/h (3 Bft) 96,00 %
01.04.2019 04:52 7,2 C 8,3 C 4,4 C 82 % 1019,0 hPa 0,0 l/m 7,5 km/h (2 Bft) O-NO 78 0 min 0,000 mm 0,0 UV-I 0 W/m 4,3 C 6,3 C 9,7 km/h (2 Bft) 95,74 %
01.04.2019 04:54 7,2 C 8,3 C 4,4 C 82 % 1019,0 hPa 0,0 l/m 8,4 km/h (2 Bft) O-NO 69 0 min 0,000 mm 0,0 UV-I 0 W/m 4,3 C 5,6 C 12,9 km/h (3 Bft) 97,87 %
01.04.2019 04:56 7,2 C 8,3 C 4,4 C 82 % 1019,0 hPa 0,0 l/m 7,9 km/h (2 Bft) O-NO 63 0 min 0,000 mm 0,0 UV-I 0 W/m 4,3 C 6,0 C 12,9 km/h (3 Bft) 91,49 %
01.04.2019 04:58 7,1 C 8,3 C 4,4 C 83 % 1019,0 hPa 0,0 l/m 7,1 km/h (2 Bft) O 84 0 min 0,000 mm 0,0 UV-I 0 W/m 4,4 C 6,5 C 11,3 km/h (2 Bft) 95,74 %
01.04.2019 05:00 7,1 C 8,3 C 4,4 C 83 % 1019,0 hPa 0,0 l/m 7,0 km/h (2 Bft) O-NO 57 0 min 0,025 mm 0,0 UV-I 0 W/m 4,4 C 6,6 C 9,7 km/h (2 Bft) 97,37 %
01.04.2019 05:02 7,1 C 8,3 C 4,4 C 83 % 1019,0 hPa 0,0 l/m 8,0 km/h (2 Bft) O-NO 74 0 min 0,000 mm 0,0 UV-I 0 W/m 4,4 C 5,8 C 11,3 km/h (2 Bft) 94,00 %
01.04.2019 05:04 7,1 C 8,3 C 4,4 C 83 % 1019,1 hPa 0,0 l/m 8,3 km/h (2 Bft) O 82 0 min 0,000 mm 0,0 UV-I 0 W/m 4,4 C 5,6 C 12,9 km/h (3 Bft) 95,74 %
01.04.2019 05:06 7,1 C 8,3 C 4,4 C 83 % 1019,0 hPa 0,0 l/m 10,3 km/h (2 Bft) O 90 0 min 0,000 mm 0,0 UV-I 0 W/m 4,4 C 4,2 C 14,5 km/h (3 Bft) 100,00 %
01.04.2019 05:08 7,0 C 8,3 C 4,4 C 83 % 1019,0 hPa 0,0 l/m 8,5 km/h (2 Bft) O 84 0 min 0,000 mm 0,0 UV-I 0 W/m 4,3 C 5,3 C 14,5 km/h (3 Bft) 95,74 %
01.04.2019 05:10 7,0 C 8,3 C 4,4 C 83 % 1019,0 hPa 0,0 l/m 11,2 km/h (2 Bft) O-NO 76 0 min 0,000 mm 0,0 UV-I 0 W/m 4,3 C 3,5 C 14,5 km/h (3 Bft) 100,00 %
01.04.2019 05:12 7,0 C 8,3 C 4,4 C 83 % 1019,0 hPa 0,0 l/m 9,2 km/h (2 Bft) O-NO 69 0 min 0,000 mm 0,0 UV-I 0 W/m 4,3 C 4,8 C 14,5 km/h (3 Bft) 100,00 %
01.04.2019 05:14 6,9 C 8,3 C 4,4 C 83 % 1019,0 hPa 0,0 l/m 9,0 km/h (2 Bft) O-NO 70 0 min 0,000 mm 0,0 UV-I 0 W/m 4,2 C 4,9 C 12,9 km/h (3 Bft) 100,00 %
01.04.2019 05:16 6,9 C 8,3 C 4,4 C 83 % 1019,0 hPa 0,0 l/m 9,2 km/h (2 Bft) O 89 0 min 0,000 mm 0,0 UV-I 0 W/m 4,2 C 4,7 C 12,9 km/h (3 Bft) 97,87 %
01.04.2019 05:18 6,8 C 8,3 C 4,4 C 84 % 1019,0 hPa 0,0 l/m 10,1 km/h (2 Bft) O 80 0 min 0,000 mm 0,0 UV-I 0 W/m 4,3 C 4,0 C 14,5 km/h (3 Bft) 100,00 %
01.04.2019 05:20 6,8 C 8,3 C 4,4 C 84 % 1019,0 hPa 0,0 l/m 9,8 km/h (2 Bft) O-NO 71 0 min 0,000 mm 0,0 UV-I 0 W/m 4,3 C 4,2 C 14,5 km/h (3 Bft) 100,00 %
01.04.2019 05:22 6,8 C 8,3 C 4,4 C 84 % 1019,0 hPa 0,0 l/m 9,1 km/h (2 Bft) O-NO 69 0 min 0,000 mm 0,0 UV-I 0 W/m 4,3 C 4,7 C 12,9 km/h (3 Bft) 100,00 %
01.04.2019 05:24 6,7 C 8,3 C 4,4 C 84 % 1019,0 hPa 0,0 l/m 8,9 km/h (2 Bft) NO 54 0 min 0,000 mm 0,0 UV-I 0 W/m 4,2 C 4,7 C 12,9 km/h (3 Bft) 100,00 %
01.04.2019 05:26 6,7 C 8,3 C 4,4 C 84 % 1019,0 hPa 0,0 l/m 9,1 km/h (2 Bft) O-NO 67 0 min 0,000 mm 0,0 UV-I 0 W/m 4,2 C 4,6 C 12,9 km/h (3 Bft) 97,87 %
01.04.2019 05:28 6,7 C 8,3 C 4,4 C 84 % 1019,0 hPa 0,0 l/m 7,9 km/h (2 Bft) O-NO 65 0 min 0,000 mm 0,0 UV-I 0 W/m 4,2 C 5,5 C 12,9 km/h (3 Bft) 97,87 %
01.04.2019 05:30 6,6 C 8,3 C 4,4 C 84 % 1019,0 hPa 0,0 l/m 8,6 km/h (2 Bft) O-NO 61 0 min 0,000 mm 0,0 UV-I 0 W/m 4,1 C 4,8 C 14,5 km/h (3 Bft) 93,62 %
01.04.2019 05:32 6,4 C 8,3 C 4,4 C 84 % 1019,0 hPa 0,0 l/m 11,5 km/h (2 Bft) O-NO 67 0 min 0,000 mm 0,0 UV-I 0 W/m 3,9 C 2,7 C 16,1 km/h (3 Bft) 97,87 %
01.04.2019 05:34 6,3 C 8,3 C 4,4 C 85 % 1019,0 hPa 0,0 l/m 8,8 km/h (2 Bft) NO 48 0 min 0,000 mm 0,0 UV-I 0 W/m 4,0 C 4,4 C 16,1 km/h (3 Bft) 97,87 %
01.04.2019 05:36 6,3 C 8,3 C 4,4 C 85 % 1018,9 hPa 0,0 l/m 11,3 km/h (2 Bft) N-NO 33 0 min 0,000 mm 0,0 UV-I 0 W/m 4,0 C 2,7 C 14,5 km/h (3 Bft) 97,87 %
01.04.2019 05:38 6,3 C 8,3 C 4,4 C 86 % 1019,0 hPa 0,0 l/m 9,0 km/h (2 Bft) NO 40 0 min 0,000 mm 0,0 UV-I 0 W/m 4,1 C 4,2 C 14,5 km/h (3 Bft) 94,00 %
01.04.2019 05:40 6,4 C 8,3 C 4,4 C 86 % 1019,0 hPa 0,0 l/m 9,8 km/h (2 Bft) O 82 0 min 0,000 mm 0,0 UV-I 0 W/m 4,2 C 3,8 C 14,5 km/h (3 Bft) 97,87 %
01.04.2019 05:42 6,5 C 8,3 C 4,4 C 86 % 1019,0 hPa 0,0 l/m 11,7 km/h (2 Bft) O-NO 75 0 min 0,000 mm 0,0 UV-I 0 W/m 4,3 C 2,7 C 16,1 km/h (3 Bft) 98,00 %
01.04.2019 05:44 6,6 C 8,3 C 4,4 C 86 % 1018,9 hPa 0,0 l/m 11,7 km/h (2 Bft) O-NO 57 0 min 0,000 mm 0,0 UV-I 0 W/m 4,4 C 2,8 C 16,1 km/h (3 Bft) 94,29 %
01.04.2019 05:46 6,7 C 8,3 C 5,0 C 85 % 1019,0 hPa 0,0 l/m 12,4 km/h (3 Bft) O-NO 74 0 min 0,000 mm 0,0 UV-I 0 W/m 4,4 C 2,5 C 20,9 km/h (4 Bft) 98,00 %
01.04.2019 05:48 6,7 C 8,3 C 5,0 C 85 % 1019,0 hPa 0,0 l/m 14,4 km/h (3 Bft) O-NO 61 0 min 0,000 mm 0,0 UV-I 0 W/m 4,4 C 1,4 C 19,3 km/h (3 Bft) 95,74 %
01.04.2019 05:50 6,8 C 8,3 C 5,0 C 85 % 1018,9 hPa 0,0 l/m 14,4 km/h (3 Bft) O 83 0 min 0,000 mm 0,0 UV-I 0 W/m 4,5 C 1,5 C 19,3 km/h (3 Bft) 97,87 %
01.04.2019 05:52 6,7 C 8,3 C 5,0 C 85 % 1018,9 hPa 0,0 l/m 15,5 km/h (3 Bft) O 79 0 min 0,000 mm 0,0 UV-I 0 W/m 4,4 C 0,9 C 19,3 km/h (3 Bft) 98,00 %
01.04.2019 05:54 6,8 C 8,3 C 5,0 C 85 % 1019,0 hPa 0,0 l/m 14,8 km/h (3 Bft) O-NO 63 0 min 0,000 mm 0,0 UV-I 0 W/m 4,5 C 1,4 C 19,3 km/h (3 Bft) 96,00 %
01.04.2019 05:56 6,8 C 8,3 C 5,0 C 85 % 1019,0 hPa 0,0 l/m 16,9 km/h (3 Bft) O-NO 77 0 min 0,000 mm 0,0 UV-I 0 W/m 4,5 C 0,4 C 22,5 km/h (4 Bft) 95,74 %
01.04.2019 05:58 6,8 C 8,3 C 5,0 C 85 % 1019,0 hPa 0,0 l/m 15,1 km/h (3 Bft) NO 54 0 min 0,000 mm 0,0 UV-I 0 W/m 4,5 C 1,2 C 19,3 km/h (3 Bft) 94,59 %
01.04.2019 06:00 6,8 C 8,3 C 5,0 C 85 % 1019,0 hPa 0,0 l/m 13,7 km/h (3 Bft) NO 38 0 min 0,026 mm 0,0 UV-I 0 W/m 4,5 C 1,9 C 19,3 km/h (3 Bft) 97,92 %
01.04.2019 06:02 6,8 C 8,3 C 5,0 C 85 % 1019,0 hPa 0,0 l/m 13,4 km/h (3 Bft) O-NO 67 0 min 0,000 mm 0,0 UV-I 0 W/m 4,5 C 2,1 C 22,5 km/h (4 Bft) 95,74 %
01.04.2019 06:04 6,8 C 8,3 C 5,0 C 85 % 1019,1 hPa 0,0 l/m 13,1 km/h (3 Bft) O-NO 76 0 min 0,000 mm 0,0 UV-I 0 W/m 4,5 C 2,2 C 19,3 km/h (3 Bft) 95,74 %
01.04.2019 06:06 6,8 C 8,3 C 5,0 C 85 % 1019,0 hPa 0,0 l/m 11,8 km/h (2 Bft) NO 39 0 min 0,000 mm 0,0 UV-I 0 W/m 4,5 C 2,9 C 17,7 km/h (3 Bft) 97,87 %
01.04.2019 06:08 6,8 C 8,3 C 5,0 C 85 % 1019,0 hPa 0,0 l/m 10,6 km/h (2 Bft) O-NO 71 0 min 0,000 mm 0,0 UV-I 0 W/m 4,5 C 3,7 C 17,7 km/h (3 Bft) 97,87 %
01.04.2019 06:10 6,8 C 8,3 C 5,0 C 85 % 1019,0 hPa 0,0 l/m 12,1 km/h (2 Bft) O-NO 71 0 min 0,000 mm 0,0 UV-I 0 W/m 4,5 C 2,8 C 16,1 km/h (3 Bft) 98,00 %
01.04.2019 06:12 6,8 C 8,3 C 5,0 C 85 % 1019,0 hPa 0,0 l/m 11,6 km/h (2 Bft) O-NO 76 0 min 0,000 mm 0,0 UV-I 0 W/m 4,5 C 3,1 C 16,1 km/h (3 Bft) 97,87 %
01.04.2019 06:14 6,8 C 8,3 C 5,0 C 85 % 1019,0 hPa 0,0 l/m 10,9 km/h (2 Bft) NO 55 0 min 0,000 mm 0,0 UV-I 0 W/m 4,5 C 3,5 C 14,5 km/h (3 Bft) 93,62 %
01.04.2019 06:16 6,8 C 8,3 C 5,0 C 85 % 1018,9 hPa 0,0 l/m 14,9 km/h (3 Bft) O-NO 61 0 min 0,000 mm 0,0 UV-I 0 W/m 4,5 C 1,3 C 19,3 km/h (3 Bft) 95,74 %
01.04.2019 06:18 6,8 C 8,3 C 5,0 C 85 % 1018,9 hPa 0,0 l/m 11,4 km/h (2 Bft) O-NO 72 0 min 0,000 mm 0,0 UV-I 0 W/m 4,5 C 3,2 C 16,1 km/h (3 Bft) 97,87 %
01.04.2019 06:20 6,7 C 8,3 C 5,0 C 85 % 1019,0 hPa 0,0 l/m 12,6 km/h (3 Bft) O-NO 65 0 min 0,000 mm 0,0 UV-I 0 W/m 4,4 C 2,4 C 17,7 km/h (3 Bft) 94,00 %
01.04.2019 06:22 6,7 C 8,3 C 5,0 C 85 % 1019,0 hPa 0,0 l/m 11,6 km/h (2 Bft) NO 47 0 min 0,000 mm 0,0 UV-I 0 W/m 4,4 C 2,9 C 19,3 km/h (3 Bft) 97,87 %
01.04.2019 06:24 6,7 C 8,3 C 5,0 C 85 % 1019,0 hPa 0,0 l/m 11,4 km/h (2 Bft) NO 49 0 min 0,000 mm 0,0 UV-I 0 W/m 4,4 C 3,1 C 17,7 km/h (3 Bft) 97,87 %
01.04.2019 06:26 6,7 C 8,3 C 5,0 C 85 % 1019,0 hPa 0,0 l/m 9,3 km/h (2 Bft) NO 44 0 min 0,000 mm 0,0 UV-I 0 W/m 4,4 C 4,4 C 17,7 km/h (3 Bft) 100,00 %
01.04.2019 06:28 6,7 C 8,3 C 5,0 C 85 % 1018,9 hPa 0,0 l/m 11,8 km/h (2 Bft) O 92 0 min 0,000 mm 0,0 UV-I 0 W/m 4,4 C 2,8 C 20,9 km/h (4 Bft) 100,00 %
01.04.2019 06:30 6,7 C 8,3 C 5,0 C 85 % 1019,0 hPa 0,0 l/m 9,4 km/h (2 Bft) O-NO 69 0 min 0,000 mm 0,0 UV-I 0 W/m 4,4 C 4,4 C 12,9 km/h (3 Bft) 95,74 %
01.04.2019 06:32 6,6 C 8,3 C 4,4 C 85 % 1019,0 hPa 0,0 l/m 8,8 km/h (2 Bft) O-NO 61 0 min 0,000 mm 0,0 UV-I 4 W/m 4,3 C 4,7 C 16,1 km/h (3 Bft) 100,00 %
01.04.2019 06:34 6,6 C 8,3 C 4,4 C 85 % 1019,0 hPa 0,0 l/m 8,9 km/h (2 Bft) O-NO 57 0 min 0,000 mm 0,0 UV-I 5 W/m 4,3 C 4,6 C 16,1 km/h (3 Bft) 100,00 %
01.04.2019 06:36 6,6 C 8,3 C 4,4 C 85 % 1019,0 hPa 0,0 l/m 9,8 km/h (2 Bft) NO 55 0 min 0,000 mm 0,0 UV-I 5 W/m 4,3 C 4,0 C 16,1 km/h (3 Bft) 93,62 %
01.04.2019 06:38 6,5 C 8,3 C 4,4 C 86 % 1019,0 hPa 0,0 l/m 11,0 km/h (2 Bft) O-NO 61 0 min 0,000 mm 0,0 UV-I 7 W/m 4,3 C 3,1 C 17,7 km/h (3 Bft) 100,00 %
01.04.2019 06:40 6,6 C 8,3 C 4,4 C 86 % 1019,0 hPa 0,0 l/m 9,3 km/h (2 Bft) O-NO 76 0 min 0,000 mm 0,0 UV-I 7 W/m 4,4 C 4,3 C 14,5 km/h (3 Bft) 96,00 %
01.04.2019 06:42 6,6 C 8,3 C 4,4 C 86 % 1019,1 hPa 0,0 l/m 10,2 km/h (2 Bft) O-NO 65 0 min 0,000 mm 0,0 UV-I 7 W/m 4,4 C 3,7 C 19,3 km/h (3 Bft) 97,87 %
01.04.2019 06:44 6,6 C 8,3 C 4,4 C 86 % 1019,1 hPa 0,0 l/m 10,2 km/h (2 Bft) O-NO 62 0 min 0,000 mm 0,0 UV-I 7 W/m 4,4 C 3,7 C 16,1 km/h (3 Bft) 93,62 %
01.04.2019 06:46 6,6 C 8,3 C 4,4 C 86 % 1019,1 hPa 0,0 l/m 10,9 km/h (2 Bft) O-NO 71 0 min 0,000 mm 0,0 UV-I 9 W/m 4,4 C 3,3 C 16,1 km/h (3 Bft) 95,74 %
01.04.2019 06:48 6,6 C 8,3 C 5,0 C 86 % 1019,1 hPa 0,0 l/m 10,6 km/h (2 Bft) O 87 0 min 0,000 mm 0,0 UV-I 9 W/m 4,4 C 3,4 C 16,1 km/h (3 Bft) 96,00 %
01.04.2019 06:50 6,6 C 8,3 C 5,0 C 86 % 1019,1 hPa 0,0 l/m 11,6 km/h (2 Bft) O-NO 65 0 min 0,000 mm 0,0 UV-I 11 W/m 4,4 C 2,8 C 16,1 km/h (3 Bft) 97,87 %
01.04.2019 06:52 6,6 C 8,3 C 5,0 C 86 % 1019,1 hPa 0,0 l/m 10,5 km/h (2 Bft) O-NO 69 0 min 0,000 mm 0,0 UV-I 11 W/m 4,4 C 3,5 C 12,9 km/h (3 Bft) 97,87 %
01.04.2019 06:54 6,5 C 8,3 C 5,0 C 86 % 1019,1 hPa 0,0 l/m 8,6 km/h (2 Bft) O-NO 78 2 min 0,000 mm 0,0 UV-I 12 W/m 4,3 C 4,7 C 12,9 km/h (3 Bft) 97,87 %
01.04.2019 06:56 6,4 C 8,3 C 4,4 C 86 % 1019,1 hPa 0,0 l/m 10,8 km/h (2 Bft) O-NO 78 0 min 0,000 mm 0,0 UV-I 12 W/m 4,2 C 3,1 C 16,1 km/h (3 Bft) 97,87 %
01.04.2019 06:58 6,3 C 8,3 C 4,4 C 86 % 1019,1 hPa 0,0 l/m 10,3 km/h (2 Bft) O 79 0 min 0,000 mm 0,0 UV-I 14 W/m 4,1 C 3,3 C 16,1 km/h (3 Bft) 98,00 %
01.04.2019 07:00 6,3 C 8,3 C 4,4 C 87 % 1019,2 hPa 0,0 l/m 11,4 km/h (2 Bft) O-NO 76 0 min 0,025 mm 0,0 UV-I 14 W/m 4,3 C 2,6 C 16,1 km/h (3 Bft) 95,12 %
01.04.2019 07:02 6,4 C 8,3 C 4,4 C 87 % 1019,1 hPa 0,0 l/m 11,8 km/h (2 Bft) O 85 0 min 0,000 mm 0,0 UV-I 16 W/m 4,4 C 2,5 C 16,1 km/h (3 Bft) 95,74 %
01.04.2019 07:04 6,4 C 8,3 C 5,0 C 87 % 1019,2 hPa 0,0 l/m 13,5 km/h (3 Bft) NO 53 0 min 0,000 mm 0,0 UV-I 18 W/m 4,4 C 1,5 C 17,7 km/h (3 Bft) 97,87 %
01.04.2019 07:06 6,4 C 8,3 C 5,0 C 86 % 1019,2 hPa 0,0 l/m 15,2 km/h (3 Bft) O-NO 67 0 min 0,000 mm 0,0 UV-I 19 W/m 4,2 C 0,7 C 20,9 km/h (4 Bft) 97,87 %
01.04.2019 07:08 6,5 C 8,3 C 5,0 C 86 % 1019,2 hPa 0,0 l/m 15,6 km/h (3 Bft) O 81 0 min 0,000 mm 0,0 UV-I 19 W/m 4,3 C 0,6 C 22,5 km/h (4 Bft) 98,00 %
01.04.2019 07:10 6,6 C 8,3 C 5,6 C 86 % 1019,2 hPa 0,0 l/m 18,4 km/h (3 Bft) O 83 0 min 0,000 mm 0,0 UV-I 21 W/m 4,4 C -0,5 C 25,7 km/h (4 Bft) 98,00 %
01.04.2019 07:12 6,8 C 8,3 C 5,6 C 85 % 1019,2 hPa 0,0 l/m 16,9 km/h (3 Bft) O 84 0 min 0,000 mm 0,0 UV-I 22 W/m 4,5 C 0,4 C 22,5 km/h (4 Bft) 97,87 %
01.04.2019 07:14 6,8 C 8,3 C 5,6 C 85 % 1019,2 hPa 0,0 l/m 16,6 km/h (3 Bft) NO 55 0 min 0,000 mm 0,0 UV-I 24 W/m 4,5 C 0,5 C 24,1 km/h (4 Bft) 97,14 %
01.04.2019 07:16 7,0 C 8,3 C 5,6 C 84 % 1019,2 hPa 0,0 l/m 21,7 km/h (4 Bft) O 86 0 min 0,000 mm 0,0 UV-I 26 W/m 4,5 C -1,2 C 30,6 km/h (5 Bft) 98,00 %
01.04.2019 07:18 7,1 C 8,3 C 6,1 C 83 % 1019,2 hPa 0,0 l/m 21,8 km/h (4 Bft) O 91 0 min 0,000 mm 0,0 UV-I 28 W/m 4,4 C -1,1 C 30,6 km/h (5 Bft) 95,74 %
01.04.2019 07:20 7,2 C 8,3 C 6,1 C 83 % 1019,3 hPa 0,0 l/m 19,0 km/h (3 Bft) O 94 0 min 0,000 mm 0,0 UV-I 31 W/m 4,5 C 0,0 C 27,4 km/h (4 Bft) 95,83 %
01.04.2019 07:22 7,3 C 8,3 C 6,1 C 82 % 1019,2 hPa 0,0 l/m 23,8 km/h (4 Bft) O 81 0 min 0,000 mm 0,0 UV-I 33 W/m 4,4 C -1,5 C 32,2 km/h (5 Bft) 95,74 %
01.04.2019 07:24 7,3 C 8,3 C 6,1 C 82 % 1019,2 hPa 0,0 l/m 19,9 km/h (4 Bft) O 88 0 min 0,000 mm 0,0 UV-I 35 W/m 4,4 C -0,2 C 25,7 km/h (4 Bft) 93,62 %
01.04.2019 07:26 7,4 C 8,3 C 6,1 C 81 % 1019,2 hPa 0,0 l/m 20,1 km/h (4 Bft) O 93 0 min 0,000 mm 0,0 UV-I 36 W/m 4,4 C -0,1 C 29,0 km/h (5 Bft) 93,62 %
01.04.2019 07:28 7,4 C 8,3 C 6,1 C 81 % 1019,2 hPa 0,0 l/m 22,2 km/h (4 Bft) O-NO 77 0 min 0,000 mm 0,0 UV-I 38 W/m 4,4 C -0,8 C 29,0 km/h (5 Bft) 95,74 %
01.04.2019 07:30 7,5 C 8,3 C 6,7 C 81 % 1019,2 hPa 0,0 l/m 20,1 km/h (4 Bft) O 84 0 min 0,000 mm 0,0 UV-I 42 W/m 4,5 C 0,0 C 32,2 km/h (5 Bft) 93,62 %
01.04.2019 07:32 7,5 C 8,3 C 6,7 C 80 % 1019,2 hPa 0,0 l/m 18,2 km/h (3 Bft) O 82 0 min 0,000 mm 0,0 UV-I 44 W/m 4,3 C 0,7 C 25,7 km/h (4 Bft) 94,00 %
01.04.2019 07:34 7,5 C 8,3 C 6,7 C 80 % 1019,2 hPa 0,0 l/m 20,4 km/h (4 Bft) NO 56 0 min 0,000 mm 0,0 UV-I 47 W/m 4,3 C -0,1 C 29,0 km/h (5 Bft) 91,49 %
01.04.2019 07:36 7,5 C 8,3 C 6,7 C 80 % 1019,3 hPa 0,0 l/m 23,0 km/h (4 Bft) O 80 0 min 0,000 mm 0,0 UV-I 49 W/m 4,3 C -1,0 C 30,6 km/h (5 Bft) 95,74 %
01.04.2019 07:38 7,5 C 8,3 C 6,7 C 80 % 1019,3 hPa 0,0 l/m 20,4 km/h (4 Bft) O 91 0 min 0,000 mm 0,0 UV-I 53 W/m 4,3 C -0,1 C 29,0 km/h (5 Bft) 91,49 %
01.04.2019 07:40 7,5 C 8,3 C 6,7 C 80 % 1019,2 hPa 0,0 l/m 24,1 km/h (4 Bft) O 79 0 min 0,000 mm 0,0 UV-I 56 W/m 4,3 C -1,3 C 32,2 km/h (5 Bft) 93,62 %
01.04.2019 07:42 7,5 C 8,3 C 6,7 C 80 % 1019,3 hPa 0,0 l/m 22,3 km/h (4 Bft) O-NO 69 0 min 0,000 mm 0,0 UV-I 59 W/m 4,3 C -0,7 C 30,6 km/h (5 Bft) 93,62 %
01.04.2019 07:44 7,5 C 8,3 C 6,7 C 80 % 1019,3 hPa 0,0 l/m 22,7 km/h (4 Bft) O-NO 67 0 min 0,000 mm 0,0 UV-I 60 W/m 4,3 C -0,9 C 33,8 km/h (5 Bft) 91,43 %
01.04.2019 07:46 7,5 C 8,3 C 6,7 C 79 % 1019,3 hPa 0,0 l/m 22,2 km/h (4 Bft) O-NO 78 0 min 0,000 mm 0,0 UV-I 62 W/m 4,1 C -0,7 C 32,2 km/h (5 Bft) 94,00 %
01.04.2019 07:48 7,6 C 8,3 C 6,7 C 79 % 1019,3 hPa 0,0 l/m 26,3 km/h (4 Bft) O-NO 60 0 min 0,000 mm 0,0 UV-I 77 W/m 4,2 C -1,8 C 33,8 km/h (5 Bft) 95,74 %
01.04.2019 07:50 7,6 C 8,3 C 6,7 C 79 % 1019,4 hPa 0,0 l/m 21,9 km/h (4 Bft) O-NO 74 0 min 0,000 mm 0,0 UV-I 93 W/m 4,2 C -0,5 C 32,2 km/h (5 Bft) 94,00 %
01.04.2019 07:52 7,6 C 8,9 C 6,7 C 78 % 1019,3 hPa 0,0 l/m 22,4 km/h (4 Bft) O-NO 65 0 min 0,000 mm 0,0 UV-I 97 W/m 4,0 C -0,6 C 30,6 km/h (5 Bft) 95,74 %
01.04.2019 07:54 7,6 C 8,3 C 6,7 C 77 % 1019,3 hPa 0,0 l/m 26,3 km/h (4 Bft) O-NO 76 0 min 0,000 mm 0,0 UV-I 102 W/m 3,8 C -1,8 C 33,8 km/h (5 Bft) 97,92 %
01.04.2019 07:56 7,6 C 8,3 C 6,7 C 78 % 1019,3 hPa 0,0 l/m 25,1 km/h (4 Bft) O 98 0 min 0,000 mm 0,0 UV-I 107 W/m 4,0 C -1,4 C 33,8 km/h (5 Bft) 95,65 %
01.04.2019 07:58 7,7 C 8,3 C 6,7 C 77 % 1019,5 hPa 0,0 l/m 26,1 km/h (4 Bft) NO 46 2 min 0,000 mm 0,0 UV-I 113 W/m 3,9 C -1,6 C 38,6 km/h (5 Bft) 98,00 %
01.04.2019 08:00 7,7 C 8,3 C 6,7 C 77 % 1019,4 hPa 0,0 l/m 25,9 km/h (4 Bft) O-NO 64 2 min 0,051 mm 0,0 UV-I 116 W/m 3,9 C -1,5 C 37,0 km/h (5 Bft) 97,92 %
01.04.2019 08:02 7,7 C 8,3 C 7,2 C 77 % 1019,5 hPa 0,0 l/m 24,3 km/h (4 Bft) O-NO 72 2 min 0,000 mm 0,0 UV-I 122 W/m 3,9 C -1,1 C 33,8 km/h (5 Bft) 100,00 %
01.04.2019 08:04 7,7 C 8,3 C 7,2 C 76 % 1019,5 hPa 0,0 l/m 21,3 km/h (4 Bft) O-NO 75 0 min 0,000 mm 0,0 UV-I 120 W/m 3,7 C -0,1 C 29,0 km/h (5 Bft) 100,00 %
01.04.2019 08:06 7,7 C 8,3 C 7,2 C 77 % 1019,5 hPa 0,0 l/m 20,3 km/h (4 Bft) NO 53 0 min 0,000 mm 0,0 UV-I 113 W/m 3,9 C 0,2 C 30,6 km/h (5 Bft) 97,87 %
01.04.2019 08:08 7,7 C 8,3 C 7,2 C 76 % 1019,5 hPa 0,0 l/m 23,1 km/h (4 Bft) O 90 0 min 0,000 mm 0,0 UV-I 97 W/m 3,7 C -0,7 C 33,8 km/h (5 Bft) 94,74 %
01.04.2019 08:10 7,6 C 8,3 C 7,2 C 76 % 1019,5 hPa 0,0 l/m 23,2 km/h (4 Bft) O-NO 58 0 min 0,000 mm 0,0 UV-I 78 W/m 3,6 C -0,9 C 38,6 km/h (5 Bft) 100,00 %
01.04.2019 08:12 7,6 C 8,3 C 7,2 C 76 % 1019,4 hPa 0,0 l/m 25,2 km/h (4 Bft) O 79 0 min 0,000 mm 0,0 UV-I 77 W/m 3,6 C -1,5 C 32,2 km/h (5 Bft) 97,87 %
01.04.2019 08:14 7,6 C 8,3 C 7,2 C 76 % 1019,5 hPa 0,0 l/m 27,8 km/h (4 Bft) O-NO 69 0 min 0,000 mm 0,0 UV-I 78 W/m 3,6 C -2,2 C 35,4 km/h (5 Bft) 100,00 %
01.04.2019 08:16 7,6 C 8,3 C 6,7 C 76 % 1019,5 hPa 0,0 l/m 22,1 km/h (4 Bft) O 83 0 min 0,000 mm 0,0 UV-I 80 W/m 3,6 C -0,5 C 29,0 km/h (5 Bft) 95,74 %
01.04.2019 08:18 7,5 C 8,3 C 6,7 C 77 % 1019,5 hPa 0,0 l/m 22,3 km/h (4 Bft) O 85 0 min 0,000 mm 0,0 UV-I 83 W/m 3,7 C -0,7 C 30,6 km/h (5 Bft) 93,62 %
01.04.2019 08:20 7,4 C 8,3 C 7,2 C 76 % 1019,6 hPa 0,0 l/m 23,2 km/h (4 Bft) O 80 0 min 0,000 mm 0,0 UV-I 84 W/m 3,5 C -1,1 C 32,2 km/h (5 Bft) 100,00 %
01.04.2019 08:22 7,5 C 8,3 C 7,2 C 76 % 1019,5 hPa 0,0 l/m 23,6 km/h (4 Bft) O-NO 66 0 min 0,000 mm 0,0 UV-I 87 W/m 3,5 C -1,1 C 32,2 km/h (5 Bft) 97,87 %
01.04.2019 08:24 7,5 C 8,3 C 7,2 C 75 % 1019,5 hPa 0,0 l/m 24,9 km/h (4 Bft) O-NO 74 0 min 0,000 mm 0,0 UV-I 90 W/m 3,4 C -1,5 C 30,6 km/h (5 Bft) 97,87 %
01.04.2019 08:26 7,5 C 8,3 C 7,2 C 75 % 1019,6 hPa 0,0 l/m 25,9 km/h (4 Bft) NO 52 0 min 0,000 mm 0,0 UV-I 95 W/m 3,4 C -1,8 C 37,0 km/h (5 Bft) 100,00 %
01.04.2019 08:28 7,5 C 8,3 C 7,2 C 75 % 1019,5 hPa 0,0 l/m 22,9 km/h (4 Bft) O-NO 78 0 min 0,000 mm 0,0 UV-I 110 W/m 3,4 C -0,9 C 32,2 km/h (5 Bft) 97,87 %
01.04.2019 08:30 7,6 C 8,3 C 7,2 C 75 % 1019,5 hPa 0,0 l/m 22,7 km/h (4 Bft) O-NO 66 0 min 0,000 mm 0,0 UV-I 116 W/m 3,5 C -0,7 C 33,8 km/h (5 Bft) 97,87 %
01.04.2019 08:32 7,6 C 8,3 C 7,2 C 75 % 1019,6 hPa 0,0 l/m 28,3 km/h (4 Bft) O-NO 62 0 min 0,000 mm 0,0 UV-I 135 W/m 3,5 C -2,3 C 37,0 km/h (5 Bft) 97,92 %
01.04.2019 08:34 7,6 C 8,3 C 7,8 C 75 % 1019,6 hPa 0,0 l/m 22,7 km/h (4 Bft) N-NO 23 0 min 0,000 mm 0,0 UV-I 148 W/m 3,5 C -0,7 C 29,0 km/h (5 Bft) 98,08 %
01.04.2019 08:36 7,6 C 8,3 C 7,8 C 75 % 1019,6 hPa 0,0 l/m 26,5 km/h (4 Bft) O-NO 74 2 min 0,000 mm 0,0 UV-I 197 W/m 3,5 C -1,8 C 32,2 km/h (5 Bft) 100,00 %
01.04.2019 08:38 7,7 C 8,3 C 8,3 C 75 % 1019,6 hPa 0,0 l/m 19,7 km/h (3 Bft) O-NO 59 2 min 0,000 mm 0,0 UV-I 216 W/m 3,6 C 0,4 C 25,7 km/h (4 Bft) 97,87 %
01.04.2019 08:40 7,7 C 8,3 C 8,3 C 74 % 1019,6 hPa 0,0 l/m 20,9 km/h (4 Bft) O-NO 67 2 min 0,000 mm 0,0 UV-I 223 W/m 3,4 C 0,0 C 32,2 km/h (5 Bft) 98,25 %
01.04.2019 08:44 7,8 C 8,3 C 8,3 C 74 % 1019,6 hPa 0,0 l/m 27,9 km/h (4 Bft) NO 50 4 min 0,000 mm 0,0 UV-I 240 W/m 3,5 C -1,9 C 35,4 km/h (5 Bft) 100,00 %
01.04.2019 08:46 7,8 C 8,3 C 8,3 C 73 % 1019,6 hPa 0,0 l/m 25,9 km/h (4 Bft) O-NO 73 2 min 0,000 mm 0,3 UV-I 248 W/m 3,3 C -1,4 C 33,8 km/h (5 Bft) 96,00 %
01.04.2019 08:48 7,9 C 8,3 C 8,3 C 73 % 1019,6 hPa 0,0 l/m 22,3 km/h (4 Bft) O 101 2 min 0,000 mm 0,5 UV-I 253 W/m 3,4 C -0,2 C 30,6 km/h (5 Bft) 98,11 %
01.04.2019 08:50 7,9 C 8,3 C 8,3 C 73 % 1019,6 hPa 0,0 l/m 27,1 km/h (4 Bft) O 92 2 min 0,000 mm 0,5 UV-I 261 W/m 3,4 C -1,6 C 40,2 km/h (6 Bft) 97,56 %
01.04.2019 08:52 7,9 C 8,3 C 8,9 C 72 % 1019,6 hPa 0,0 l/m 26,1 km/h (4 Bft) O-NO 78 2 min 0,000 mm 0,5 UV-I 273 W/m 3,2 C -1,3 C 38,6 km/h (5 Bft) 97,56 %
01.04.2019 08:54 8,0 C 8,3 C 8,9 C 73 % 1019,6 hPa 0,0 l/m 24,4 km/h (4 Bft) O-SO 107 2 min 0,000 mm 0,5 UV-I 283 W/m 3,5 C -0,7 C 32,2 km/h (5 Bft) 98,00 %
01.04.2019 08:56 8,1 C 8,3 C 8,9 C 73 % 1019,6 hPa 0,0 l/m 22,6 km/h (4 Bft) O 82 2 min 0,000 mm 0,5 UV-I 289 W/m 3,6 C -0,0 C 30,6 km/h (5 Bft) 98,11 %
01.04.2019 08:58 8,1 C 8,3 C 8,9 C 72 % 1019,6 hPa 0,0 l/m 27,4 km/h (4 Bft) O-NO 57 2 min 0,000 mm 0,6 UV-I 296 W/m 3,4 C -1,4 C 38,6 km/h (5 Bft) 98,00 %
01.04.2019 09:00 8,2 C 8,3 C 8,9 C 71 % 1019,6 hPa 0,0 l/m 28,0 km/h (4 Bft) O-NO 74 2 min 0,127 mm 0,6 UV-I 305 W/m 3,3 C -1,4 C 38,6 km/h (5 Bft) 97,56 %
01.04.2019 09:02 8,2 C 8,3 C 8,9 C 71 % 1019,6 hPa 0,0 l/m 30,7 km/h (5 Bft) O-NO 76 2 min 0,000 mm 0,6 UV-I 311 W/m 3,3 C -2,0 C 37,0 km/h (5 Bft) 100,00 %
01.04.2019 09:04 8,3 C 8,3 C 8,9 C 71 % 1019,5 hPa 0,0 l/m 28,9 km/h (5 Bft) O-NO 63 2 min 0,000 mm 0,6 UV-I 319 W/m 3,4 C -1,5 C 43,5 km/h (6 Bft) 100,00 %
01.04.2019 09:06 8,3 C 8,3 C 8,9 C 70 % 1019,6 hPa 0,0 l/m 32,7 km/h (5 Bft) O 85 2 min 0,000 mm 0,6 UV-I 326 W/m 3,2 C -2,3 C 41,8 km/h (6 Bft) 100,00 %
01.04.2019 09:08 8,3 C 8,3 C 8,9 C 70 % 1019,6 hPa 0,0 l/m 29,0 km/h (5 Bft) O-NO 59 2 min 0,000 mm 0,6 UV-I 334 W/m 3,2 C -1,5 C 37,0 km/h (5 Bft) 100,00 %
01.04.2019 09:10 8,4 C 8,3 C 9,4 C 71 % 1019,5 hPa 0,0 l/m 23,6 km/h (4 Bft) O 89 2 min 0,000 mm 0,7 UV-I 341 W/m 3,5 C 0,1 C 30,6 km/h (5 Bft) 98,00 %
01.04.2019 09:12 8,4 C 8,3 C 9,4 C 70 % 1019,6 hPa 0,0 l/m 29,5 km/h (5 Bft) O-NO 76 2 min 0,000 mm 0,7 UV-I 348 W/m 3,3 C -1,5 C 41,8 km/h (6 Bft) 100,00 %
01.04.2019 09:14 8,5 C 8,3 C 9,4 C 70 % 1019,5 hPa 0,0 l/m 29,0 km/h (5 Bft) O 82 2 min 0,000 mm 0,7 UV-I 356 W/m 3,3 C -1,2 C 45,1 km/h (6 Bft) 98,00 %
01.04.2019 09:16 8,6 C 8,3 C 10,0 C 70 % 1019,6 hPa 0,0 l/m 26,6 km/h (4 Bft) O-NO 66 2 min 0,000 mm 0,7 UV-I 362 W/m 3,4 C -0,5 C 35,4 km/h (5 Bft) 97,73 %
01.04.2019 09:18 8,6 C 8,3 C 10,0 C 69 % 1019,6 hPa 0,0 l/m 33,6 km/h (5 Bft) O 101 2 min 0,000 mm 0,7 UV-I 365 W/m 3,2 C -2,1 C 45,1 km/h (6 Bft) 100,00 %
01.04.2019 09:20 8,6 C 8,3 C 10,0 C 69 % 1019,6 hPa 0,0 l/m 30,0 km/h (5 Bft) O-NO 69 2 min 0,000 mm 0,8 UV-I 372 W/m 3,2 C -1,3 C 43,5 km/h (6 Bft) 100,00 %
01.04.2019 09:22 8,6 C 8,3 C 10,0 C 69 % 1019,6 hPa 0,0 l/m 30,3 km/h (5 Bft) O 84 2 min 0,000 mm 0,8 UV-I 374 W/m 3,2 C -1,4 C 38,6 km/h (5 Bft) 100,00 %
01.04.2019 09:24 8,6 C 8,3 C 10,0 C 69 % 1019,6 hPa 0,0 l/m 29,3 km/h (5 Bft) O-NO 67 2 min 0,000 mm 0,8 UV-I 383 W/m 3,2 C -1,2 C 43,5 km/h (6 Bft) 98,11 %
01.04.2019 09:26 8,7 C 8,3 C 10,0 C 68 % 1019,5 hPa 0,0 l/m 32,1 km/h (5 Bft) O-NO 66 2 min 0,000 mm 0,8 UV-I 386 W/m 3,1 C -1,6 C 40,2 km/h (6 Bft) 96,00 %
01.04.2019 09:28 8,7 C 8,3 C 10,0 C 68 % 1019,5 hPa 0,0 l/m 35,5 km/h (5 Bft) O-NO 69 2 min 0,000 mm 0,8 UV-I 391 W/m 3,1 C -2,3 C 43,5 km/h (6 Bft) 97,14 %
01.04.2019 09:30 8,7 C 8,3 C 10,6 C 68 % 1019,5 hPa 0,0 l/m 32,6 km/h (5 Bft) O 91 2 min 0,000 mm 0,9 UV-I 396 W/m 3,1 C -1,7 C 43,5 km/h (6 Bft) 97,73 %
01.04.2019 09:32 8,7 C 8,3 C 10,6 C 68 % 1019,6 hPa 0,0 l/m 28,2 km/h (4 Bft) O 96 2 min 0,000 mm 0,9 UV-I 403 W/m 3,1 C -0,8 C 37,0 km/h (5 Bft) 98,11 %
01.04.2019 09:34 8,7 C 8,3 C 10,6 C 67 % 1019,6 hPa 0,0 l/m 31,8 km/h (5 Bft) O-NO 73 2 min 0,000 mm 0,9 UV-I 410 W/m 2,9 C -1,6 C 45,1 km/h (6 Bft) 98,11 %
01.04.2019 09:36 8,8 C 8,3 C 11,1 C 67 % 1019,6 hPa 0,0 l/m 29,1 km/h (5 Bft) O-NO 71 2 min 0,000 mm 0,9 UV-I 416 W/m 3,0 C -0,8 C 41,8 km/h (6 Bft) 97,73 %
01.04.2019 09:38 8,8 C 8,3 C 11,7 C 67 % 1019,6 hPa 0,0 l/m 29,8 km/h (5 Bft) O 92 2 min 0,000 mm 1,0 UV-I 420 W/m 3,0 C -1,0 C 38,6 km/h (5 Bft) 97,73 %
01.04.2019 09:40 8,8 C 8,3 C 11,7 C 66 % 1019,6 hPa 0,0 l/m 25,6 km/h (4 Bft) O-SO 115 2 min 0,000 mm 1,0 UV-I 425 W/m 2,8 C 0,0 C 37,0 km/h (5 Bft) 93,62 %
01.04.2019 09:42 8,8 C 8,3 C 11,7 C 67 % 1019,7 hPa 0,0 l/m 30,7 km/h (5 Bft) O 82 2 min 0,000 mm 1,0 UV-I 431 W/m 3,0 C -1,2 C 41,8 km/h (6 Bft) 98,00 %
01.04.2019 09:44 8,8 C 8,3 C 12,2 C 67 % 1019,6 hPa 0,0 l/m 25,5 km/h (4 Bft) O-NO 71 2 min 0,000 mm 1,0 UV-I 436 W/m 3,0 C 0,1 C 35,4 km/h (5 Bft) 97,44 %
01.04.2019 09:46 8,9 C 8,3 C 12,8 C 67 % 1019,7 hPa 0,0 l/m 24,5 km/h (4 Bft) O 95 2 min 0,000 mm 1,0 UV-I 441 W/m 3,1 C 0,5 C 35,4 km/h (5 Bft) 98,18 %
01.04.2019 09:48 8,9 C 8,3 C 13,3 C 67 % 1019,7 hPa 0,0 l/m 27,0 km/h (4 Bft) O-NO 74 2 min 0,000 mm 1,1 UV-I 444 W/m 3,1 C -0,2 C 40,2 km/h (6 Bft) 97,62 %
01.04.2019 09:50 9,0 C 8,3 C 13,3 C 66 % 1019,7 hPa 0,0 l/m 32,4 km/h (5 Bft) O 94 2 min 0,000 mm 1,1 UV-I 452 W/m 3,0 C -1,3 C 41,8 km/h (6 Bft) 98,11 %
01.04.2019 09:52 9,0 C 8,3 C 13,9 C 67 % 1019,7 hPa 0,0 l/m 26,7 km/h (4 Bft) O-NO 76 2 min 0,000 mm 1,1 UV-I 456 W/m 3,2 C 0,0 C 41,8 km/h (6 Bft) 97,56 %
01.04.2019 09:54 9,1 C 8,3 C 14,4 C 67 % 1019,7 hPa 0,0 l/m 23,4 km/h (4 Bft) O 94 2 min 0,000 mm 1,1 UV-I 462 W/m 3,3 C 1,1 C 38,6 km/h (5 Bft) 98,00 %
01.04.2019 09:56 9,2 C 8,3 C 15,0 C 66 % 1019,7 hPa 0,0 l/m 27,9 km/h (4 Bft) O-NO 65 2 min 0,000 mm 1,2 UV-I 467 W/m 3,2 C 0,0 C 43,5 km/h (6 Bft) 97,87 %
01.04.2019 09:58 9,2 C 8,3 C 15,6 C 66 % 1019,7 hPa 0,0 l/m 28,2 km/h (4 Bft) O-NO 77 2 min 0,000 mm 1,2 UV-I 472 W/m 3,2 C -0,1 C 40,2 km/h (6 Bft) 96,00 %
01.04.2019 10:00 9,3 C 8,3 C 15,6 C 66 % 1019,7 hPa 0,0 l/m 29,1 km/h (5 Bft) O 86 2 min 0,254 mm 1,2 UV-I 477 W/m 3,3 C -0,1 C 41,8 km/h (6 Bft) 94,74 %
01.04.2019 10:02 9,3 C 8,3 C 15,6 C 65 % 1019,7 hPa 0,0 l/m 34,6 km/h (5 Bft) O-NO 65 2 min 0,000 mm 1,2 UV-I 478 W/m 3,1 C -1,2 C 45,1 km/h (6 Bft) 95,74 %
01.04.2019 10:04 9,2 C 8,9 C 15,0 C 64 % 1019,7 hPa 0,0 l/m 33,1 km/h (5 Bft) O 85 2 min 0,000 mm 1,2 UV-I 483 W/m 2,8 C -1,1 C 46,7 km/h (6 Bft) 94,64 %
01.04.2019 10:06 9,3 C 8,9 C 15,6 C 65 % 1019,7 hPa 0,0 l/m 28,2 km/h (4 Bft) O-NO 71 2 min 0,000 mm 1,3 UV-I 489 W/m 3,1 C 0,1 C 41,8 km/h (6 Bft) 97,73 %
01.04.2019 10:08 9,3 C 8,3 C 15,6 C 64 % 1019,7 hPa 0,0 l/m 30,0 km/h (5 Bft) O-NO 70 2 min 0,000 mm 1,3 UV-I 493 W/m 2,8 C -0,3 C 45,1 km/h (6 Bft) 96,00 %
01.04.2019 10:10 9,3 C 8,3 C 15,6 C 64 % 1019,7 hPa 0,0 l/m 25,0 km/h (4 Bft) O-SO 107 2 min 0,000 mm 1,3 UV-I 496 W/m 2,8 C 0,9 C 35,4 km/h (5 Bft) 97,37 %
01.04.2019 10:12 9,3 C 8,9 C 15,6 C 64 % 1019,7 hPa 0,0 l/m 34,1 km/h (5 Bft) O 94 2 min 0,000 mm 1,3 UV-I 502 W/m 2,8 C -1,2 C 54,7 km/h (7 Bft) 100,00 %
01.04.2019 10:14 9,3 C 8,9 C 16,1 C 64 % 1019,8 hPa 0,0 l/m 32,1 km/h (5 Bft) O 88 2 min 0,000 mm 1,3 UV-I 504 W/m 2,8 C -0,8 C 41,8 km/h (6 Bft) 96,92 %
01.04.2019 10:16 9,4 C 8,9 C 16,7 C 64 % 1019,7 hPa 0,0 l/m 28,6 km/h (4 Bft) O 84 2 min 0,000 mm 1,4 UV-I 509 W/m 2,9 C 0,1 C 35,4 km/h (5 Bft) 100,00 %
01.04.2019 10:18 9,4 C 8,9 C 16,7 C 64 % 1019,7 hPa 0,0 l/m 28,0 km/h (4 Bft) O-NO 57 2 min 0,000 mm 1,4 UV-I 513 W/m 2,9 C 0,3 C 38,6 km/h (5 Bft) 97,73 %
01.04.2019 10:20 9,4 C 8,9 C 16,1 C 63 % 1019,7 hPa 0,0 l/m 32,3 km/h (5 Bft) O-NO 74 2 min 0,000 mm 1,4 UV-I 515 W/m 2,7 C -0,7 C 49,9 km/h (6 Bft) 100,00 %
01.04.2019 10:22 9,4 C 8,9 C 16,7 C 63 % 1019,6 hPa 0,0 l/m 32,3 km/h (5 Bft) O 96 2 min 0,000 mm 1,4 UV-I 518 W/m 2,7 C -0,7 C 46,7 km/h (6 Bft) 100,00 %
01.04.2019 10:24 9,4 C 8,9 C 16,7 C 65 % 1019,7 hPa 0,0 l/m 29,5 km/h (5 Bft) O-NO 71 2 min 0,000 mm 1,5 UV-I 522 W/m 3,2 C -0,1 C 38,6 km/h (5 Bft) 100,00 %
01.04.2019 10:26 9,5 C 8,9 C 16,7 C 65 % 1019,7 hPa 0,0 l/m 31,4 km/h (5 Bft) O 83 2 min 0,000 mm 1,5 UV-I 526 W/m 3,3 C -0,3 C 41,8 km/h (6 Bft) 100,00 %
01.04.2019 10:28 9,6 C 8,9 C 16,1 C 63 % 1019,7 hPa 0,0 l/m 38,4 km/h (5 Bft) O 81 2 min 0,000 mm 1,5 UV-I 531 W/m 2,9 C -1,5 C 54,7 km/h (7 Bft) 96,00 %
01.04.2019 10:30 9,6 C 8,9 C 16,1 C 63 % 1019,7 hPa 0,0 l/m 33,8 km/h (5 Bft) O-NO 74 2 min 0,000 mm 1,5 UV-I 537 W/m 2,9 C -0,7 C 51,5 km/h (7 Bft) 100,00 %
01.04.2019 10:32 9,6 C 8,9 C 16,7 C 62 % 1019,7 hPa 0,0 l/m 36,7 km/h (5 Bft) O-NO 72 2 min 0,000 mm 1,6 UV-I 544 W/m 2,7 C -1,2 C 46,7 km/h (6 Bft) 100,00 %
01.04.2019 10:34 9,6 C 8,9 C 16,1 C 62 % 1019,7 hPa 0,0 l/m 35,8 km/h (5 Bft) O 93 2 min 0,000 mm 1,6 UV-I 546 W/m 2,7 C -1,0 C 51,5 km/h (7 Bft) 100,00 %
01.04.2019 10:36 9,6 C 8,9 C 16,7 C 62 % 1019,6 hPa 0,0 l/m 31,6 km/h (5 Bft) O-NO 77 2 min 0,000 mm 1,6 UV-I 550 W/m 2,7 C -0,2 C 45,1 km/h (6 Bft) 100,00 %
01.04.2019 10:38 9,6 C 8,9 C 16,7 C 64 % 1019,6 hPa 0,0 l/m 29,1 km/h (5 Bft) O 94 2 min 0,000 mm 1,6 UV-I 554 W/m 3,1 C 0,3 C 41,8 km/h (6 Bft) 100,00 %
01.04.2019 10:40 9,7 C 8,9 C 17,2 C 64 % 1019,7 hPa 0,0 l/m 32,6 km/h (5 Bft) O-NO 78 2 min 0,000 mm 1,6 UV-I 556 W/m 3,2 C -0,3 C 41,8 km/h (6 Bft) 100,00 %
01.04.2019 10:42 9,7 C 8,3 C 17,2 C 62 % 1019,7 hPa 0,0 l/m 35,6 km/h (5 Bft) O 90 2 min 0,000 mm 1,7 UV-I 560 W/m 2,8 C -0,8 C 46,7 km/h (6 Bft) 97,37 %
01.04.2019 10:44 9,7 C 8,9 C 16,7 C 62 % 1019,6 hPa 0,0 l/m 36,9 km/h (5 Bft) O-NO 76 2 min 0,000 mm 1,7 UV-I 563 W/m 2,8 C -1,1 C 49,9 km/h (6 Bft) 100,00 %
01.04.2019 10:46 9,7 C 8,9 C 17,2 C 62 % 1019,7 hPa 0,0 l/m 33,1 km/h (5 Bft) NO 55 2 min 0,000 mm 1,7 UV-I 565 W/m 2,8 C -0,4 C 46,7 km/h (6 Bft) 100,00 %
01.04.2019 10:48 9,7 C 8,9 C 17,2 C 62 % 1019,6 hPa 0,0 l/m 31,8 km/h (5 Bft) O-NO 65 2 min 0,000 mm 1,7 UV-I 569 W/m 2,8 C -0,1 C 45,1 km/h (6 Bft) 100,00 %
01.04.2019 10:50 9,8 C 8,9 C 17,2 C 63 % 1019,6 hPa 0,0 l/m 34,5 km/h (5 Bft) O-NO 78 2 min 0,000 mm 1,7 UV-I 573 W/m 3,1 C -0,5 C 46,7 km/h (6 Bft) 100,00 %
01.04.2019 10:52 9,7 C 8,9 C 16,7 C 61 % 1019,6 hPa 0,0 l/m 40,7 km/h (6 Bft) O-NO 66 2 min 0,000 mm 1,8 UV-I 575 W/m 2,5 C -1,7 C 54,7 km/h (7 Bft) 97,87 %
01.04.2019 10:54 9,7 C 8,9 C 16,7 C 61 % 1019,6 hPa 0,0 l/m 41,3 km/h (6 Bft) O-NO 64 2 min 0,000 mm 1,8 UV-I 580 W/m 2,5 C -1,7 C 62,8 km/h (8 Bft) 100,00 %
01.04.2019 10:56 9,6 C 8,9 C 16,1 C 61 % 1019,6 hPa 0,0 l/m 39,6 km/h (6 Bft) O 98 2 min 0,000 mm 1,8 UV-I 583 W/m 2,5 C -1,6 C 56,3 km/h (7 Bft) 100,00 %
01.04.2019 10:58 9,6 C 8,9 C 16,7 C 61 % 1019,6 hPa 0,0 l/m 36,0 km/h (5 Bft) O 85 2 min 0,000 mm 1,8 UV-I 588 W/m 2,5 C -1,1 C 48,3 km/h (6 Bft) 95,74 %
01.04.2019 11:00 9,6 C 8,9 C 16,7 C 62 % 1019,6 hPa 0,0 l/m 36,7 km/h (5 Bft) O 80 2 min 0,356 mm 1,9 UV-I 594 W/m 2,7 C -1,2 C 48,3 km/h (6 Bft) 97,87 %
01.04.2019 11:02 9,7 C 8,9 C 16,7 C 63 % 1019,6 hPa 0,0 l/m 34,9 km/h (5 Bft) O-NO 74 2 min 0,000 mm 1,9 UV-I 567 W/m 3,0 C -0,7 C 48,3 km/h (6 Bft) 97,92 %
01.04.2019 11:04 9,7 C 8,9 C 16,7 C 62 % 1019,6 hPa 0,0 l/m 36,2 km/h (5 Bft) O-SO 115 2 min 0,000 mm 1,9 UV-I 566 W/m 2,8 C -1,0 C 49,9 km/h (6 Bft) 96,00 %
01.04.2019 11:06 9,7 C 8,9 C 17,2 C 63 % 1019,6 hPa 0,0 l/m 31,4 km/h (5 Bft) O 92 2 min 0,000 mm 1,9 UV-I 609 W/m 3,0 C -0,1 C 43,5 km/h (6 Bft) 97,87 %
01.04.2019 11:08 9,8 C 8,9 C 17,8 C 64 % 1019,5 hPa 0,0 l/m 32,9 km/h (5 Bft) O 80 2 min 0,000 mm 1,9 UV-I 608 W/m 3,3 C -0,2 C 45,1 km/h (6 Bft) 94,00 %
01.04.2019 11:10 9,8 C 8,9 C 18,3 C 63 % 1019,5 hPa 0,0 l/m 33,4 km/h (5 Bft) O-NO 74 2 min 0,000 mm 2,0 UV-I 610 W/m 3,1 C -0,3 C 46,7 km/h (6 Bft) 95,45 %
01.04.2019 11:12 9,8 C 8,9 C 17,8 C 62 % 1019,4 hPa 0,0 l/m 31,3 km/h (5 Bft) O-NO 72 2 min 0,000 mm 2,0 UV-I 612 W/m 2,9 C 0,1 C 45,1 km/h (6 Bft) 89,47 %
01.04.2019 11:14 9,9 C 8,9 C 17,8 C 62 % 1019,5 hPa 0,0 l/m 35,7 km/h (5 Bft) O-NO 78 2 min 0,000 mm 2,0 UV-I 615 W/m 3,0 C -0,6 C 45,1 km/h (6 Bft) 94,34 %
01.04.2019 11:16 9,9 C 8,9 C 18,3 C 63 % 1019,5 hPa 0,0 l/m 32,7 km/h (5 Bft) O 96 2 min 0,000 mm 2,0 UV-I 620 W/m 3,2 C -0,0 C 45,1 km/h (6 Bft) 94,00 %
01.04.2019 11:18 9,9 C 8,9 C 18,3 C 62 % 1019,4 hPa 0,0 l/m 31,1 km/h (5 Bft) O 87 2 min 0,000 mm 2,1 UV-I 624 W/m 3,0 C 0,3 C 41,8 km/h (6 Bft) 92,11 %
01.04.2019 11:20 10,1 C 8,9 C 18,9 C 64 % 1019,4 hPa 0,0 l/m 27,1 km/h (4 Bft) O-SO 102 2 min 0,000 mm 2,1 UV-I 624 W/m 3,6 C 1,4 C 41,8 km/h (6 Bft) 90,57 %
01.04.2019 11:22 10,2 C 8,9 C 19,4 C 63 % 1019,4 hPa 0,0 l/m 26,3 km/h (4 Bft) O 84 2 min 0,000 mm 2,1 UV-I 627 W/m 3,5 C 1,8 C 41,8 km/h (6 Bft) 92,00 %
01.04.2019 11:24 10,3 C 8,9 C 19,4 C 63 % 1019,4 hPa 0,0 l/m 27,8 km/h (4 Bft) O 88 2 min 0,000 mm 2,1 UV-I 628 W/m 3,6 C 1,6 C 45,1 km/h (6 Bft) 90,24 %
01.04.2019 11:26 10,4 C 8,9 C 19,4 C 61 % 1019,4 hPa 0,0 l/m 29,2 km/h (5 Bft) O 90 2 min 0,000 mm 2,1 UV-I 630 W/m 3,2 C 1,4 C 38,6 km/h (5 Bft) 90,57 %
01.04.2019 11:28 10,4 C 8,9 C 19,4 C 62 % 1019,3 hPa 0,0 l/m 33,3 km/h (5 Bft) O-SO 103 2 min 0,000 mm 2,2 UV-I 635 W/m 3,4 C 0,6 C 43,5 km/h (6 Bft) 97,37 %
01.04.2019 11:30 10,4 C 8,9 C 19,4 C 61 % 1019,3 hPa 0,0 l/m 33,1 km/h (5 Bft) O-NO 60 2 min 0,000 mm 2,2 UV-I 638 W/m 3,2 C 0,6 C 46,7 km/h (6 Bft) 90,57 %
01.04.2019 11:32 10,4 C 8,9 C 18,9 C 60 % 1019,3 hPa 0,0 l/m 34,3 km/h (5 Bft) O 79 2 min 0,000 mm 2,2 UV-I 640 W/m 3,0 C 0,4 C 46,7 km/h (6 Bft) 90,91 %
01.04.2019 11:34 10,4 C 8,9 C 18,9 C 60 % 1019,3 hPa 0,0 l/m 33,7 km/h (5 Bft) O 98 2 min 0,000 mm 2,2 UV-I 643 W/m 3,0 C 0,5 C 41,8 km/h (6 Bft) 96,23 %
01.04.2019 11:36 10,3 C 8,9 C 19,4 C 62 % 1019,2 hPa 0,0 l/m 29,2 km/h (5 Bft) O-NO 62 2 min 0,000 mm 2,2 UV-I 647 W/m 3,3 C 1,2 C 40,2 km/h (6 Bft) 92,31 %
01.04.2019 11:38 10,5 C 8,9 C 19,4 C 61 % 1019,3 hPa 0,0 l/m 31,2 km/h (5 Bft) O 83 2 min 0,000 mm 2,2 UV-I 651 W/m 3,3 C 1,1 C 38,6 km/h (5 Bft) 95,74 %
01.04.2019 11:40 10,6 C 8,9 C 18,9 C 61 % 1019,3 hPa 0,0 l/m 32,4 km/h (5 Bft) O-NO 65 2 min 0,000 mm 2,2 UV-I 651 W/m 3,4 C 1,0 C 48,3 km/h (6 Bft) 97,87 %
01.04.2019 11:42 10,6 C 8,9 C 18,9 C 61 % 1019,2 hPa 0,0 l/m 31,8 km/h (5 Bft) O-NO 70 2 min 0,000 mm 2,3 UV-I 656 W/m 3,4 C 1,1 C 41,8 km/h (6 Bft) 95,74 %
01.04.2019 11:44 10,6 C 8,9 C 19,4 C 62 % 1019,2 hPa 0,0 l/m 34,4 km/h (5 Bft) O 80 2 min 0,000 mm 2,3 UV-I 657 W/m 3,6 C 0,7 C 41,8 km/h (6 Bft) 95,12 %
01.04.2019 11:46 10,7 C 8,9 C 19,4 C 61 % 1019,2 hPa 0,0 l/m 32,0 km/h (5 Bft) O-NO 67 2 min 0,000 mm 2,3 UV-I 657 W/m 3,5 C 1,2 C 45,1 km/h (6 Bft) 96,23 %
01.04.2019 11:48 10,7 C 8,9 C 20,0 C 61 % 1019,2 hPa 0,0 l/m 26,5 km/h (4 Bft) O-NO 70 2 min 0,000 mm 2,3 UV-I 659 W/m 3,5 C 2,4 C 37,0 km/h (5 Bft) 98,11 %
01.04.2019 11:50 10,8 C 8,9 C 20,6 C 62 % 1019,2 hPa 0,0 l/m 26,4 km/h (4 Bft) O 82 2 min 0,000 mm 2,3 UV-I 663 W/m 3,8 C 2,6 C 32,2 km/h (5 Bft) 95,74 %
01.04.2019 11:52 10,9 C 8,9 C 20,6 C 62 % 1019,2 hPa 0,0 l/m 26,1 km/h (4 Bft) O 93 2 min 0,000 mm 2,3 UV-I 664 W/m 3,9 C 2,8 C 38,6 km/h (5 Bft) 97,87 %
01.04.2019 11:54 11,1 C 8,9 C 20,6 C 61 % 1019,1 hPa 0,0 l/m 28,1 km/h (4 Bft) O-NO 66 2 min 0,000 mm 2,4 UV-I 667 W/m 3,9 C 2,6 C 35,4 km/h (5 Bft) 97,14 %
01.04.2019 11:56 11,2 C 8,9 C 21,1 C 61 % 1019,1 hPa 0,0 l/m 25,6 km/h (4 Bft) O 82 2 min 0,000 mm 2,4 UV-I 669 W/m 4,0 C 3,3 C 37,0 km/h (5 Bft) 96,15 %
01.04.2019 11:58 11,3 C 8,9 C 21,7 C 60 % 1019,1 hPa 0,0 l/m 27,1 km/h (4 Bft) O-NO 74 2 min 0,000 mm 2,4 UV-I 672 W/m 3,8 C 3,1 C 35,4 km/h (5 Bft) 97,73 %
01.04.2019 12:00 11,4 C 8,9 C 21,1 C 60 % 1019,1 hPa 0,0 l/m 28,0 km/h (4 Bft) O-NO 61 2 min 0,406 mm 2,4 UV-I 674 W/m 3,9 C 3,0 C 38,6 km/h (5 Bft) 96,67 %
01.04.2019 12:02 11,3 C 8,9 C 20,6 C 58 % 1019,1 hPa 0,0 l/m 35,4 km/h (5 Bft) O 88 2 min 0,000 mm 2,4 UV-I 674 W/m 3,3 C 1,5 C 54,7 km/h (7 Bft) 98,57 %
01.04.2019 12:04 11,3 C 8,9 C 20,6 C 58 % 1019,0 hPa 0,0 l/m 33,0 km/h (5 Bft) O-NO 78 2 min 0,000 mm 2,4 UV-I 675 W/m 3,3 C 1,9 C 48,3 km/h (6 Bft) 97,37 %
01.04.2019 12:06 11,3 C 8,9 C 20,6 C 58 % 1019,0 hPa 0,0 l/m 35,5 km/h (5 Bft) O 89 2 min 0,000 mm 2,4 UV-I 678 W/m 3,3 C 1,5 C 49,9 km/h (6 Bft) 96,23 %
01.04.2019 12:08 11,3 C 8,9 C 20,0 C 58 % 1019,0 hPa 0,0 l/m 32,7 km/h (5 Bft) O-NO 77 2 min 0,000 mm 2,4 UV-I 680 W/m 3,3 C 2,0 C 41,8 km/h (6 Bft) 96,23 %
01.04.2019 12:10 11,3 C 8,9 C 20,6 C 59 % 1019,0 hPa 0,0 l/m 27,6 km/h (4 Bft) O-NO 74 2 min 0,000 mm 2,5 UV-I 680 W/m 3,6 C 3,0 C 37,0 km/h (5 Bft) 94,74 %
01.04.2019 12:12 11,4 C 8,9 C 20,6 C 58 % 1018,9 hPa 0,0 l/m 35,1 km/h (5 Bft) O 80 2 min 0,000 mm 2,5 UV-I 681 W/m 3,4 C 1,7 C 45,1 km/h (6 Bft) 98,21 %
01.04.2019 12:14 11,4 C 8,9 C 20,6 C 58 % 1018,9 hPa 0,0 l/m 30,2 km/h (5 Bft) O-NO 67 2 min 0,000 mm 2,5 UV-I 685 W/m 3,4 C 2,6 C 40,2 km/h (6 Bft) 97,73 %
01.04.2019 12:16 11,6 C 8,9 C 21,1 C 59 % 1018,9 hPa 0,0 l/m 27,4 km/h (4 Bft) N-NO 21 2 min 0,000 mm 2,5 UV-I 681 W/m 3,9 C 3,4 C 41,8 km/h (6 Bft) 97,44 %
01.04.2019 12:18 11,7 C 8,9 C 21,1 C 59 % 1018,9 hPa 0,0 l/m 28,3 km/h (4 Bft) O-NO 71 2 min 0,000 mm 2,5 UV-I 683 W/m 4,0 C 3,4 C 45,1 km/h (6 Bft) 98,11 %
01.04.2019 12:20 11,7 C 8,9 C 20,6 C 57 % 1018,9 hPa 0,0 l/m 33,1 km/h (5 Bft) O-NO 74 2 min 0,000 mm 2,5 UV-I 683 W/m 3,5 C 2,5 C 43,5 km/h (6 Bft) 95,74 %
01.04.2019 12:22 11,7 C 8,9 C 20,6 C 57 % 1018,9 hPa 0,0 l/m 30,7 km/h (5 Bft) O-NO 78 2 min 0,000 mm 2,5 UV-I 684 W/m 3,5 C 2,9 C 46,7 km/h (6 Bft) 97,37 %
01.04.2019 12:24 11,8 C 8,9 C 21,1 C 58 % 1018,9 hPa 0,0 l/m 25,8 km/h (4 Bft) O-NO 69 2 min 0,000 mm 2,5 UV-I 686 W/m 3,8 C 4,1 C 33,8 km/h (5 Bft) 96,43 %
01.04.2019 12:26 11,8 C 8,9 C 20,6 C 57 % 1018,8 hPa 0,0 l/m 25,4 km/h (4 Bft) O 92 2 min 0,000 mm 2,5 UV-I 688 W/m 3,6 C 4,2 C 33,8 km/h (5 Bft) 97,56 %
01.04.2019 12:28 11,9 C 8,9 C 20,6 C 56 % 1018,8 hPa 0,0 l/m 31,9 km/h (5 Bft) O 96 2 min 0,000 mm 2,6 UV-I 689 W/m 3,4 C 3,0 C 45,1 km/h (6 Bft) 96,43 %
01.04.2019 12:30 11,9 C 8,9 C 20,6 C 56 % 1018,7 hPa 0,0 l/m 36,6 km/h (5 Bft) O-NO 65 2 min 0,000 mm 2,6 UV-I 693 W/m 3,4 C 2,2 C 48,3 km/h (6 Bft) 97,37 %
01.04.2019 12:32 11,9 C 9,4 C 20,6 C 56 % 1018,7 hPa 0,0 l/m 34,0 km/h (5 Bft) O 82 2 min 0,000 mm 2,6 UV-I 694 W/m 3,4 C 2,6 C 46,7 km/h (6 Bft) 96,43 %
01.04.2019 12:34 11,8 C 8,9 C 20,0 C 55 % 1018,7 hPa 0,0 l/m 38,9 km/h (6 Bft) O 89 2 min 0,000 mm 2,6 UV-I 694 W/m 3,1 C 1,7 C 54,7 km/h (7 Bft) 95,74 %
01.04.2019 12:36 11,8 C 8,9 C 20,0 C 55 % 1018,7 hPa 0,0 l/m 35,9 km/h (5 Bft) O 94 2 min 0,000 mm 2,6 UV-I 694 W/m 3,1 C 2,2 C 48,3 km/h (6 Bft) 95,45 %
01.04.2019 12:39 11,8 C 8,9 C 20,0 C 57 % 1018,6 hPa 0,0 l/m 37,7 km/h (5 Bft) NO 40 3 min 0,000 mm 2,6 UV-I 694 W/m 3,6 C 1,9 C 53,1 km/h (7 Bft) 94,74 %
01.04.2019 12:40 11,8 C 8,9 C 20,0 C 57 % 1018,6 hPa 0,0 l/m 32,0 km/h (5 Bft) O-NO 65 1 min 0,000 mm 2,6 UV-I 696 W/m 3,6 C 2,8 C 41,8 km/h (6 Bft) 100,00 %
01.04.2019 12:42 11,8 C 8,9 C 20,0 C 57 % 1018,6 hPa 0,0 l/m 32,8 km/h (5 Bft) O-NO 76 2 min 0,000 mm 2,6 UV-I 694 W/m 3,6 C 2,7 C 48,3 km/h (6 Bft) 96,23 %
01.04.2019 12:44 11,9 C 8,9 C 20,6 C 57 % 1018,6 hPa 0,0 l/m 35,2 km/h (5 Bft) O 81 2 min 0,000 mm 2,6 UV-I 696 W/m 3,7 C 2,4 C 43,5 km/h (6 Bft) 95,12 %
01.04.2019 12:46 11,9 C 8,9 C 21,1 C 57 % 1018,6 hPa 0,0 l/m 29,9 km/h (5 Bft) O 80 2 min 0,000 mm 2,6 UV-I 698 W/m 3,7 C 3,3 C 43,5 km/h (6 Bft) 92,59 %
01.04.2019 12:48 12,1 C 8,9 C 21,1 C 58 % 1018,6 hPa 0,0 l/m 29,4 km/h (5 Bft) NO 53 2 min 0,000 mm 2,6 UV-I 696 W/m 4,1 C 3,7 C 41,8 km/h (6 Bft) 96,92 %
01.04.2019 12:50 12,3 C 8,9 C 21,7 C 57 % 1018,6 hPa 0,0 l/m 30,2 km/h (5 Bft) O-NO 73 2 min 0,000 mm 2,6 UV-I 696 W/m 4,0 C 3,9 C 41,8 km/h (6 Bft) 92,73 %
01.04.2019 12:52 12,3 C 8,9 C 21,1 C 57 % 1018,5 hPa 0,0 l/m 30,1 km/h (5 Bft) O-NO 78 2 min 0,000 mm 2,6 UV-I 699 W/m 4,0 C 3,9 C 38,6 km/h (5 Bft) 95,74 %
01.04.2019 12:54 12,4 C 8,9 C 21,1 C 57 % 1018,5 hPa 0,0 l/m 33,5 km/h (5 Bft) O-NO 58 2 min 0,000 mm 2,6 UV-I 700 W/m 4,1 C 3,4 C 48,3 km/h (6 Bft) 95,74 %
01.04.2019 12:56 12,5 C 8,9 C 21,1 C 55 % 1018,5 hPa 0,0 l/m 31,5 km/h (5 Bft) O-NO 74 2 min 0,000 mm 2,6 UV-I 699 W/m 3,7 C 3,9 C 45,1 km/h (6 Bft) 94,87 %
01.04.2019 12:58 12,6 C 8,9 C 21,1 C 55 % 1018,5 hPa 0,0 l/m 34,0 km/h (5 Bft) O-NO 74 2 min 0,000 mm 2,6 UV-I 697 W/m 3,8 C 3,6 C 45,1 km/h (6 Bft) 95,74 %
01.04.2019 13:00 12,5 C 8,9 C 21,1 C 55 % 1018,4 hPa 0,0 l/m 37,5 km/h (5 Bft) O 90 2 min 0,483 mm 2,6 UV-I 699 W/m 3,7 C 2,9 C 46,7 km/h (6 Bft) 98,00 %
01.04.2019 13:02 12,5 C 8,9 C 21,1 C 56 % 1018,4 hPa 0,0 l/m 28,9 km/h (5 Bft) O-NO 65 2 min 0,000 mm 2,6 UV-I 699 W/m 4,0 C 4,4 C 37,0 km/h (5 Bft) 95,74 %
01.04.2019 13:04 12,6 C 8,9 C 21,7 C 56 % 1018,4 hPa 0,0 l/m 26,2 km/h (4 Bft) O-NO 74 2 min 0,000 mm 2,7 UV-I 700 W/m 4,1 C 5,1 C 40,2 km/h (6 Bft) 98,11 %
01.04.2019 13:06 12,7 C 8,9 C 22,2 C 55 % 1018,4 hPa 0,0 l/m 26,7 km/h (4 Bft) O 94 2 min 0,000 mm 2,6 UV-I 699 W/m 3,9 C 5,1 C 38,6 km/h (5 Bft) 93,62 %
01.04.2019 13:08 12,8 C 8,9 C 22,2 C 56 % 1018,3 hPa 0,0 l/m 33,7 km/h (5 Bft) O-NO 59 2 min 0,000 mm 2,6 UV-I 700 W/m 4,2 C 4,0 C 45,1 km/h (6 Bft) 97,73 %
01.04.2019 13:10 12,8 C 8,9 C 21,7 C 55 % 1018,3 hPa 0,0 l/m 33,2 km/h (5 Bft) O 86 2 min 0,000 mm 2,6 UV-I 697 W/m 4,0 C 4,0 C 41,8 km/h (6 Bft) 97,56 %
01.04.2019 13:12 12,8 C 8,9 C 21,7 C 55 % 1018,3 hPa 0,0 l/m 31,6 km/h (5 Bft) O 84 2 min 0,000 mm 2,6 UV-I 698 W/m 4,0 C 4,3 C 48,3 km/h (6 Bft) 96,00 %
01.04.2019 13:14 12,8 C 8,9 C 21,7 C 56 % 1018,3 hPa 0,0 l/m 32,5 km/h (5 Bft) O-NO 70 2 min 0,000 mm 2,6 UV-I 695 W/m 4,2 C 4,1 C 41,8 km/h (6 Bft) 97,56 %
01.04.2019 13:16 12,8 C 9,4 C 21,1 C 54 % 1018,2 hPa 0,0 l/m 33,2 km/h (5 Bft) O-NO 68 2 min 0,000 mm 2,6 UV-I 696 W/m 3,7 C 4,0 C 41,8 km/h (6 Bft) 97,87 %
01.04.2019 13:18 12,8 C 8,9 C 21,1 C 55 % 1018,2 hPa 0,0 l/m 32,4 km/h (5 Bft) O-NO 64 2 min 0,000 mm 2,6 UV-I 700 W/m 4,0 C 4,2 C 41,8 km/h (6 Bft) 98,00 %
01.04.2019 13:20 12,8 C 8,9 C 21,7 C 56 % 1018,2 hPa 0,0 l/m 33,6 km/h (5 Bft) O 86 2 min 0,000 mm 2,6 UV-I 699 W/m 4,2 C 4,0 C 45,1 km/h (6 Bft) 98,00 %
01.04.2019 13:22 12,9 C 8,9 C 21,7 C 54 % 1018,2 hPa 0,0 l/m 32,3 km/h (5 Bft) O 91 2 min 0,000 mm 2,6 UV-I 699 W/m 3,8 C 4,3 C 40,2 km/h (6 Bft) 98,00 %
01.04.2019 13:24 12,9 C 8,9 C 21,1 C 55 % 1018,1 hPa 0,0 l/m 31,1 km/h (5 Bft) O-NO 64 2 min 0,000 mm 2,6 UV-I 699 W/m 4,1 C 4,5 C 46,7 km/h (6 Bft) 100,00 %
01.04.2019 13:26 13,1 C 8,9 C 22,2 C 56 % 1018,1 hPa 0,0 l/m 21,6 km/h (4 Bft) O-NO 73 2 min 0,000 mm 2,6 UV-I 697 W/m 4,5 C 6,9 C 33,8 km/h (5 Bft) 100,00 %
01.04.2019 13:28 13,1 C 8,9 C 22,2 C 54 % 1018,1 hPa 0,0 l/m 32,4 km/h (5 Bft) O-NO 66 2 min 0,000 mm 2,6 UV-I 696 W/m 4,0 C 4,6 C 49,9 km/h (6 Bft) 100,00 %
01.04.2019 13:30 13,2 C 9,4 C 22,2 C 54 % 1018,1 hPa 0,0 l/m 32,9 km/h (5 Bft) O-NO 63 2 min 0,000 mm 2,6 UV-I 694 W/m 4,1 C 4,7 C 46,7 km/h (6 Bft) 100,00 %
01.04.2019 13:32 13,2 C 8,9 C 22,2 C 54 % 1018,1 hPa 0,0 l/m 33,9 km/h (5 Bft) O-NO 71 2 min 0,000 mm 2,6 UV-I 696 W/m 4,1 C 4,5 C 45,1 km/h (6 Bft) 100,00 %
01.04.2019 13:34 13,3 C 8,9 C 22,2 C 56 % 1018,1 hPa 0,0 l/m 23,4 km/h (4 Bft) O 88 2 min 0,000 mm 2,6 UV-I 692 W/m 4,7 C 6,7 C 32,2 km/h (5 Bft) 98,00 %
01.04.2019 13:36 13,3 C 8,9 C 22,2 C 55 % 1018,0 hPa 0,0 l/m 30,0 km/h (5 Bft) O 99 2 min 0,000 mm 2,6 UV-I 692 W/m 4,5 C 5,3 C 48,3 km/h (6 Bft) 100,00 %
01.04.2019 13:38 13,4 C 8,9 C 22,8 C 54 % 1018,0 hPa 0,0 l/m 30,1 km/h (5 Bft) O 94 2 min 0,000 mm 2,6 UV-I 691 W/m 4,3 C 5,4 C 43,5 km/h (6 Bft) 98,00 %
01.04.2019 13:40 13,4 C 8,9 C 23,3 C 55 % 1018,0 hPa 0,0 l/m 30,8 km/h (5 Bft) O-NO 74 2 min 0,000 mm 2,6 UV-I 691 W/m 4,5 C 5,3 C 41,8 km/h (6 Bft) 100,00 %
01.04.2019 13:42 13,5 C 8,9 C 22,8 C 55 % 1018,0 hPa 0,0 l/m 29,6 km/h (5 Bft) O 88 2 min 0,000 mm 2,6 UV-I 689 W/m 4,6 C 5,7 C 37,0 km/h (5 Bft) 100,00 %
01.04.2019 13:44 13,6 C 8,9 C 22,8 C 54 % 1017,8 hPa 0,0 l/m 26,7 km/h (4 Bft) NO 50 2 min 0,000 mm 2,6 UV-I 687 W/m 4,5 C 6,4 C 33,8 km/h (5 Bft) 100,00 %
01.04.2019 13:46 13,7 C 8,9 C 22,8 C 54 % 1017,8 hPa 0,0 l/m 31,3 km/h (5 Bft) O 79 2 min 0,000 mm 2,6 UV-I 689 W/m 4,6 C 5,6 C 41,8 km/h (6 Bft) 100,00 %
01.04.2019 13:48 13,7 C 8,9 C 22,8 C 54 % 1017,8 hPa 0,0 l/m 25,9 km/h (4 Bft) O-NO 57 2 min 0,000 mm 2,6 UV-I 686 W/m 4,6 C 6,7 C 35,4 km/h (5 Bft) 100,00 %
01.04.2019 13:50 13,9 C 8,9 C 23,3 C 53 % 1017,8 hPa 0,0 l/m 24,3 km/h (4 Bft) O 80 2 min 0,000 mm 2,6 UV-I 685 W/m 4,5 C 7,3 C 40,2 km/h (6 Bft) 100,00 %
01.04.2019 13:52 14,0 C 8,9 C 23,3 C 53 % 1017,8 hPa 0,0 l/m 25,4 km/h (4 Bft) O 82 2 min 0,000 mm 2,6 UV-I 685 W/m 4,6 C 7,2 C 35,4 km/h (5 Bft) 100,00 %
01.04.2019 13:54 14,1 C 8,9 C 23,3 C 53 % 1017,7 hPa 0,0 l/m 25,4 km/h (4 Bft) O-NO 67 2 min 0,000 mm 2,6 UV-I 685 W/m 4,7 C 7,3 C 37,0 km/h (5 Bft) 98,00 %
01.04.2019 13:56 14,1 C 8,9 C 23,3 C 53 % 1017,7 hPa 0,0 l/m 30,4 km/h (5 Bft) O-NO 67 2 min 0,000 mm 2,5 UV-I 682 W/m 4,7 C 6,4 C 38,6 km/h (5 Bft) 97,44 %
01.04.2019 13:58 14,0 C 8,9 C 22,8 C 52 % 1017,7 hPa 0,0 l/m 28,8 km/h (4 Bft) O-SO 102 2 min 0,000 mm 2,5 UV-I 681 W/m 4,3 C 6,5 C 40,2 km/h (6 Bft) 98,28 %
01.04.2019 14:00 14,0 C 8,9 C 22,2 C 52 % 1017,7 hPa 0,0 l/m 32,0 km/h (5 Bft) O 88 2 min 0,508 mm 2,5 UV-I 677 W/m 4,3 C 5,9 C 43,5 km/h (6 Bft) 97,37 %
01.04.2019 14:02 14,1 C 8,9 C 22,8 C 53 % 1017,7 hPa 0,0 l/m 27,2 km/h (4 Bft) O-NO 78 2 min 0,000 mm 2,5 UV-I 675 W/m 4,7 C 6,9 C 35,4 km/h (5 Bft) 95,56 %
01.04.2019 14:04 14,1 C 8,9 C 22,8 C 52 % 1017,6 hPa 0,0 l/m 28,0 km/h (4 Bft) O 80 2 min 0,000 mm 2,5 UV-I 673 W/m 4,4 C 6,8 C 40,2 km/h (6 Bft) 98,00 %
01.04.2019 14:06 14,1 C 8,9 C 22,2 C 52 % 1017,6 hPa 0,0 l/m 31,0 km/h (5 Bft) O-NO 67 2 min 0,000 mm 2,5 UV-I 668 W/m 4,4 C 6,3 C 38,6 km/h (5 Bft) 96,15 %
01.04.2019 14:08 14,1 C 8,9 C 22,8 C 54 % 1017,6 hPa 0,0 l/m 24,3 km/h (4 Bft) O 93 2 min 0,000 mm 2,4 UV-I 665 W/m 4,9 C 7,5 C 32,2 km/h (5 Bft) 97,62 %
01.04.2019 14:10 14,2 C 8,9 C 23,3 C 53 % 1017,6 hPa 0,0 l/m 26,0 km/h (4 Bft) O 80 2 min 0,000 mm 2,4 UV-I 665 W/m 4,8 C 7,3 C 33,8 km/h (5 Bft) 95,45 %
01.04.2019 14:12 14,2 C 8,9 C 22,8 C 53 % 1017,6 hPa 0,0 l/m 25,3 km/h (4 Bft) NO 36 2 min 0,000 mm 2,4 UV-I 666 W/m 4,8 C 7,5 C 37,0 km/h (5 Bft) 98,11 %
01.04.2019 14:14 14,2 C 8,9 C 22,8 C 52 % 1017,5 hPa 0,0 l/m 26,2 km/h (4 Bft) O-NO 67 2 min 0,000 mm 2,4 UV-I 664 W/m 4,5 C 7,3 C 35,4 km/h (5 Bft) 96,00 %
01.04.2019 14:16 14,3 C 8,9 C 23,3 C 54 % 1017,4 hPa 0,0 l/m 23,8 km/h (4 Bft) O 80 2 min 0,000 mm 2,4 UV-I 661 W/m 5,1 C 7,9 C 37,0 km/h (5 Bft) 100,00 %
01.04.2019 14:18 14,3 C 8,9 C 22,8 C 52 % 1017,4 hPa 0,0 l/m 28,2 km/h (4 Bft) O 86 2 min 0,000 mm 2,4 UV-I 660 W/m 4,6 C 7,0 C 37,0 km/h (5 Bft) 100,00 %
01.04.2019 14:20 14,4 C 8,9 C 23,3 C 51 % 1017,4 hPa 0,0 l/m 29,7 km/h (5 Bft) O-NO 59 2 min 0,000 mm 2,4 UV-I 658 W/m 4,4 C 6,9 C 45,1 km/h (6 Bft) 100,00 %
01.04.2019 14:22 14,4 C 8,9 C 23,9 C 53 % 1017,3 hPa 0,0 l/m 27,2 km/h (4 Bft) O-SO 116 2 min 0,000 mm 2,4 UV-I 655 W/m 4,9 C 7,4 C 46,7 km/h (6 Bft) 96,23 %
01.04.2019 14:24 14,4 C 8,9 C 23,3 C 51 % 1017,3 hPa 0,0 l/m 29,9 km/h (5 Bft) O 101 2 min 0,000 mm 2,3 UV-I 653 W/m 4,4 C 6,9 C 38,6 km/h (5 Bft) 95,12 %
01.04.2019 14:26 14,4 C 8,9 C 23,3 C 51 % 1017,2 hPa 0,0 l/m 28,1 km/h (4 Bft) O 88 2 min 0,000 mm 2,3 UV-I 650 W/m 4,4 C 7,2 C 37,0 km/h (5 Bft) 100,00 %
01.04.2019 14:28 14,4 C 8,9 C 23,3 C 51 % 1017,2 hPa 0,0 l/m 27,5 km/h (4 Bft) O-SO 107 2 min 0,000 mm 2,3 UV-I 647 W/m 4,4 C 7,3 C 35,4 km/h (5 Bft) 97,87 %
01.04.2019 14:30 14,4 C 8,9 C 23,9 C 51 % 1017,2 hPa 0,0 l/m 25,1 km/h (4 Bft) O 88 2 min 0,000 mm 2,3 UV-I 643 W/m 4,4 C 7,8 C 38,6 km/h (5 Bft) 100,00 %
01.04.2019 14:32 14,4 C 8,9 C 23,3 C 52 % 1017,2 hPa 0,0 l/m 26,3 km/h (4 Bft) O 94 2 min 0,000 mm 2,3 UV-I 641 W/m 4,7 C 7,5 C 33,8 km/h (5 Bft) 100,00 %
01.04.2019 14:34 14,3 C 8,9 C 22,8 C 50 % 1017,1 hPa 0,0 l/m 32,2 km/h (5 Bft) O 82 2 min 0,000 mm 2,3 UV-I 640 W/m 4,0 C 6,3 C 40,2 km/h (6 Bft) 100,00 %
01.04.2019 14:36 14,3 C 8,9 C 22,2 C 50 % 1017,1 hPa 0,0 l/m 32,2 km/h (5 Bft) O-NO 65 2 min 0,000 mm 2,2 UV-I 638 W/m 4,0 C 6,3 C 40,2 km/h (6 Bft) 100,00 %
01.04.2019 14:38 14,2 C 8,9 C 21,7 C 50 % 1017,1 hPa 0,0 l/m 32,6 km/h (5 Bft) O-NO 65 2 min 0,000 mm 2,2 UV-I 635 W/m 3,9 C 6,1 C 48,3 km/h (6 Bft) 97,73 %
01.04.2019 14:40 14,2 C 8,9 C 21,1 C 51 % 1017,0 hPa 0,0 l/m 33,9 km/h (5 Bft) O-NO 68 2 min 0,000 mm 2,2 UV-I 634 W/m 4,2 C 5,9 C 43,5 km/h (6 Bft) 98,00 %
01.04.2019 14:42 14,2 C 8,9 C 21,7 C 51 % 1017,1 hPa 0,0 l/m 29,7 km/h (5 Bft) O-NO 68 2 min 0,000 mm 2,2 UV-I 630 W/m 4,2 C 6,6 C 40,2 km/h (6 Bft) 96,23 %
01.04.2019 14:44 14,3 C 8,9 C 21,7 C 51 % 1017,0 hPa 0,0 l/m 32,6 km/h (5 Bft) O 82 2 min 0,000 mm 2,2 UV-I 629 W/m 4,3 C 6,3 C 38,6 km/h (5 Bft) 97,22 %
01.04.2019 14:46 14,3 C 8,9 C 22,2 C 52 % 1017,0 hPa 0,0 l/m 26,8 km/h (4 Bft) O-NO 68 2 min 0,000 mm 2,2 UV-I 624 W/m 4,6 C 7,3 C 41,8 km/h (6 Bft) 98,11 %
01.04.2019 14:48 14,3 C 8,9 C 22,2 C 50 % 1017,0 hPa 0,0 l/m 34,3 km/h (5 Bft) NO 51 2 min 0,000 mm 2,1 UV-I 620 W/m 4,0 C 6,0 C 46,7 km/h (6 Bft) 97,56 %
01.04.2019 14:50 14,3 C 8,9 C 22,2 C 50 % 1017,0 hPa 0,0 l/m 28,4 km/h (4 Bft) O 98 2 min 0,000 mm 2,1 UV-I 618 W/m 4,0 C 7,0 C 40,2 km/h (6 Bft) 94,00 %
01.04.2019 14:52 14,3 C 8,9 C 22,2 C 50 % 1017,0 hPa 0,0 l/m 28,5 km/h (4 Bft) O-NO 76 2 min 0,000 mm 2,1 UV-I 614 W/m 4,0 C 7,0 C 41,8 km/h (6 Bft) 97,56 %
01.04.2019 14:54 14,3 C 8,9 C 21,1 C 49 % 1016,9 hPa 0,0 l/m 35,7 km/h (5 Bft) O 80 2 min 0,000 mm 2,1 UV-I 609 W/m 3,7 C 5,8 C 46,7 km/h (6 Bft) 96,00 %
01.04.2019 14:56 14,3 C 8,9 C 21,1 C 51 % 1016,9 hPa 0,0 l/m 33,7 km/h (5 Bft) O-NO 70 2 min 0,000 mm 2,1 UV-I 607 W/m 4,3 C 6,1 C 43,5 km/h (6 Bft) 96,23 %
01.04.2019 14:58 14,2 C 8,9 C 21,7 C 49 % 1016,9 hPa 0,0 l/m 27,5 km/h (4 Bft) O 94 2 min 0,000 mm 2,0 UV-I 605 W/m 3,6 C 7,0 C 37,0 km/h (5 Bft) 97,87 %
01.04.2019 15:00 14,3 C 8,9 C 21,7 C 51 % 1016,9 hPa 0,0 l/m 28,5 km/h (4 Bft) O 94 2 min 0,482 mm 2,0 UV-I 603 W/m 4,3 C 7,0 C 40,2 km/h (6 Bft) 95,74 %
01.04.2019 15:02 14,3 C 8,9 C 21,7 C 49 % 1016,8 hPa 0,0 l/m 32,4 km/h (5 Bft) O 82 2 min 0,000 mm 2,0 UV-I 600 W/m 3,7 C 6,3 C 48,3 km/h (6 Bft) 97,56 %
01.04.2019 15:04 14,3 C 8,9 C 21,7 C 50 % 1016,8 hPa 0,0 l/m 35,0 km/h (5 Bft) O 93 2 min 0,000 mm 2,0 UV-I 593 W/m 4,0 C 5,9 C 46,7 km/h (6 Bft) 98,11 %
01.04.2019 15:06 14,3 C 8,9 C 22,2 C 50 % 1016,8 hPa 0,0 l/m 30,9 km/h (5 Bft) NO 43 2 min 0,000 mm 1,9 UV-I 589 W/m 4,0 C 6,6 C 40,2 km/h (6 Bft) 98,00 %
01.04.2019 15:08 14,4 C 8,9 C 22,2 C 51 % 1016,7 hPa 0,0 l/m 30,0 km/h (5 Bft) O 91 2 min 0,000 mm 1,9 UV-I 587 W/m 4,4 C 6,8 C 45,1 km/h (6 Bft) 93,62 %
01.04.2019 15:10 14,5 C 8,9 C 21,7 C 48 % 1016,7 hPa 0,0 l/m 33,1 km/h (5 Bft) O-NO 58 2 min 0,000 mm 1,9 UV-I 587 W/m 3,6 C 6,5 C 48,3 km/h (6 Bft) 100,00 %
01.04.2019 15:12 14,4 C 8,9 C 21,7 C 50 % 1016,7 hPa 0,0 l/m 33,1 km/h (5 Bft) O-NO 71 2 min 0,000 mm 1,9 UV-I 581 W/m 4,1 C 6,3 C 45,1 km/h (6 Bft) 100,00 %
01.04.2019 15:14 14,5 C 8,9 C 21,7 C 51 % 1016,7 hPa 0,0 l/m 30,0 km/h (5 Bft) O-NO 67 2 min 0,000 mm 1,8 UV-I 575 W/m 4,5 C 7,0 C 38,6 km/h (5 Bft) 100,00 %
01.04.2019 15:16 14,6 C 8,9 C 21,7 C 50 % 1016,7 hPa 0,0 l/m 27,2 km/h (4 Bft) O 82 2 min 0,000 mm 1,8 UV-I 575 W/m 4,3 C 7,6 C 35,4 km/h (5 Bft) 97,44 %
01.04.2019 15:18 14,6 C 8,9 C 21,7 C 50 % 1016,6 hPa 0,0 l/m 31,4 km/h (5 Bft) O-NO 64 2 min 0,000 mm 1,8 UV-I 560 W/m 4,3 C 6,9 C 43,5 km/h (6 Bft) 94,23 %
01.04.2019 15:20 14,6 C 8,9 C 21,7 C 51 % 1016,7 hPa 0,0 l/m 28,4 km/h (4 Bft) O 88 2 min 0,000 mm 1,8 UV-I 560 W/m 4,6 C 7,4 C 46,7 km/h (6 Bft) 97,92 %
01.04.2019 15:22 14,6 C 8,9 C 21,7 C 49 % 1016,6 hPa 0,0 l/m 31,8 km/h (5 Bft) O-NO 71 2 min 0,000 mm 1,8 UV-I 564 W/m 4,0 C 6,8 C 43,5 km/h (6 Bft) 97,37 %
01.04.2019 15:24 14,6 C 8,9 C 21,7 C 48 % 1016,5 hPa 0,0 l/m 35,4 km/h (5 Bft) O 94 2 min 0,000 mm 1,7 UV-I 558 W/m 3,7 C 6,3 C 46,7 km/h (6 Bft) 98,21 %
01.04.2019 15:26 14,6 C 8,9 C 21,1 C 49 % 1016,5 hPa 0,0 l/m 32,0 km/h (5 Bft) O-NO 65 2 min 0,000 mm 1,7 UV-I 553 W/m 4,0 C 6,8 C 41,8 km/h (6 Bft) 98,11 %
01.04.2019 15:28 14,6 C 9,4 C 21,7 C 50 % 1016,6 hPa 0,0 l/m 32,5 km/h (5 Bft) O-NO 65 2 min 0,000 mm 1,7 UV-I 552 W/m 4,3 C 6,7 C 41,8 km/h (6 Bft) 95,74 %
01.04.2019 15:30 14,6 C 8,9 C 21,1 C 49 % 1016,6 hPa 0,0 l/m 36,5 km/h (5 Bft) O 86 2 min 0,000 mm 1,7 UV-I 546 W/m 4,0 C 6,1 C 43,5 km/h (6 Bft) 97,56 %
01.04.2019 15:32 14,6 C 8,9 C 21,7 C 51 % 1016,6 hPa 0,0 l/m 25,0 km/h (4 Bft) O-NO 76 2 min 0,000 mm 1,7 UV-I 544 W/m 4,6 C 8,1 C 33,8 km/h (5 Bft) 97,56 %
01.04.2019 15:34 14,6 C 8,9 C 21,7 C 49 % 1016,5 hPa 0,0 l/m 28,0 km/h (4 Bft) O 86 2 min 0,000 mm 1,6 UV-I 536 W/m 4,0 C 7,5 C 48,3 km/h (6 Bft) 96,43 %
01.04.2019 15:36 14,6 C 8,9 C 21,7 C 49 % 1016,5 hPa 0,0 l/m 27,8 km/h (4 Bft) O 96 2 min 0,000 mm 1,6 UV-I 532 W/m 4,0 C 7,5 C 41,8 km/h (6 Bft) 98,00 %
01.04.2019 15:38 14,6 C 8,9 C 21,1 C 49 % 1016,5 hPa 0,0 l/m 28,4 km/h (4 Bft) O 82 2 min 0,000 mm 1,6 UV-I 527 W/m 4,0 C 7,4 C 40,2 km/h (6 Bft) 97,37 %
01.04.2019 15:40 14,7 C 8,9 C 21,1 C 49 % 1016,5 hPa 0,0 l/m 28,5 km/h (4 Bft) O 80 2 min 0,000 mm 1,6 UV-I 525 W/m 4,1 C 7,5 C 41,8 km/h (6 Bft) 98,00 %
01.04.2019 15:42 14,6 C 8,9 C 21,1 C 49 % 1016,4 hPa 0,0 l/m 30,1 km/h (5 Bft) O-NO 58 2 min 0,000 mm 1,5 UV-I 521 W/m 4,0 C 7,1 C 38,6 km/h (5 Bft) 100,00 %
01.04.2019 15:44 14,6 C 8,9 C 20,6 C 49 % 1016,5 hPa 0,0 l/m 29,7 km/h (5 Bft) O 81 2 min 0,000 mm 1,5 UV-I 518 W/m 4,0 C 7,2 C 41,8 km/h (6 Bft) 100,00 %
01.04.2019 15:46 14,6 C 9,4 C 20,6 C 48 % 1016,4 hPa 0,0 l/m 31,4 km/h (5 Bft) O-NO 76 2 min 0,000 mm 1,5 UV-I 509 W/m 3,7 C 6,9 C 38,6 km/h (5 Bft) 95,12 %
01.04.2019 15:48 14,7 C 8,9 C 21,1 C 49 % 1016,4 hPa 0,0 l/m 27,4 km/h (4 Bft) O-NO 59 2 min 0,000 mm 1,5 UV-I 508 W/m 4,1 C 7,7 C 37,0 km/h (5 Bft) 100,00 %
01.04.2019 15:50 14,7 C 8,9 C 21,7 C 50 % 1016,4 hPa 0,0 l/m 26,1 km/h (4 Bft) O-SO 109 2 min 0,000 mm 1,5 UV-I 505 W/m 4,4 C 8,0 C 38,6 km/h (5 Bft) 100,00 %
01.04.2019 15:52 14,8 C 8,9 C 21,1 C 49 % 1016,4 hPa 0,0 l/m 30,0 km/h (5 Bft) O 86 2 min 0,000 mm 1,4 UV-I 503 W/m 4,2 C 7,4 C 43,5 km/h (6 Bft) 100,00 %
01.04.2019 15:54 14,7 C 8,9 C 21,1 C 48 % 1016,4 hPa 0,0 l/m 28,7 km/h (4 Bft) O-SO 110 2 min 0,000 mm 1,4 UV-I 501 W/m 3,8 C 7,5 C 38,6 km/h (5 Bft) 100,00 %
01.04.2019 15:56 14,8 C 8,9 C 21,1 C 49 % 1016,4 hPa 0,0 l/m 29,3 km/h (5 Bft) O 88 2 min 0,000 mm 1,4 UV-I 496 W/m 4,2 C 7,5 C 40,2 km/h (6 Bft) 100,00 %
01.04.2019 15:58 14,8 C 8,9 C 21,7 C 48 % 1016,4 hPa 0,0 l/m 22,3 km/h (4 Bft) O-NO 78 2 min 0,000 mm 1,4 UV-I 482 W/m 3,9 C 8,9 C 33,8 km/h (5 Bft) 100,00 %
01.04.2019 16:00 14,8 C 8,9 C 21,1 C 48 % 1016,3 hPa 0,0 l/m 29,1 km/h (5 Bft) O-NO 76 2 min 0,000 mm 1,3 UV-I 459 W/m 3,9 C 7,6 C 38,6 km/h (5 Bft) 97,78 %
01.04.2019 16:02 14,8 C 8,9 C 20,6 C 48 % 1016,3 hPa 0,0 l/m 29,2 km/h (5 Bft) O 91 2 min 0,457 mm 1,3 UV-I 458 W/m 3,9 C 7,5 C 40,2 km/h (6 Bft) 100,00 %
01.04.2019 16:04 14,8 C 8,9 C 20,6 C 48 % 1016,2 hPa 0,0 l/m 24,6 km/h (4 Bft) O-SO 113 2 min 0,000 mm 1,3 UV-I 448 W/m 3,9 C 8,4 C 37,0 km/h (5 Bft) 100,00 %
01.04.2019 16:06 14,8 C 8,9 C 20,0 C 47 % 1016,3 hPa 0,0 l/m 29,3 km/h (5 Bft) O-NO 74 2 min 0,000 mm 1,3 UV-I 442 W/m 3,6 C 7,5 C 38,6 km/h (5 Bft) 98,31 %
01.04.2019 16:08 14,8 C 8,9 C 20,6 C 48 % 1016,2 hPa 0,0 l/m 25,2 km/h (4 Bft) O-NO 73 2 min 0,000 mm 1,2 UV-I 432 W/m 3,9 C 8,3 C 35,4 km/h (5 Bft) 100,00 %
01.04.2019 16:10 14,8 C 8,9 C 20,0 C 48 % 1016,3 hPa 0,0 l/m 26,6 km/h (4 Bft) O 90 2 min 0,000 mm 1,2 UV-I 416 W/m 3,9 C 8,0 C 35,4 km/h (5 Bft) 100,00 %
01.04.2019 16:12 14,8 C 8,9 C 19,4 C 48 % 1016,2 hPa 0,0 l/m 25,2 km/h (4 Bft) O 85 2 min 0,000 mm 1,2 UV-I 435 W/m 3,9 C 8,3 C 33,8 km/h (5 Bft) 100,00 %
01.04.2019 16:14 14,7 C 8,9 C 19,4 C 47 % 1016,3 hPa 0,0 l/m 28,0 km/h (4 Bft) O 83 2 min 0,000 mm 1,2 UV-I 440 W/m 3,5 C 7,6 C 35,4 km/h (5 Bft) 100,00 %
01.04.2019 16:16 14,7 C 8,9 C 19,4 C 47 % 1016,1 hPa 0,0 l/m 27,4 km/h (4 Bft) O-NO 71 2 min 0,000 mm 1,2 UV-I 438 W/m 3,5 C 7,7 C 37,0 km/h (5 Bft) 100,00 %
01.04.2019 16:18 14,8 C 8,9 C 20,0 C 49 % 1016,2 hPa 0,0 l/m 23,8 km/h (4 Bft) O-NO 65 2 min 0,000 mm 1,2 UV-I 441 W/m 4,2 C 8,6 C 30,6 km/h (5 Bft) 100,00 %
01.04.2019 16:20 14,8 C 8,9 C 20,0 C 48 % 1016,2 hPa 0,0 l/m 27,4 km/h (4 Bft) O 86 2 min 0,000 mm 1,1 UV-I 438 W/m 3,9 C 7,9 C 37,0 km/h (5 Bft) 100,00 %
01.04.2019 16:22 14,8 C 8,9 C 19,4 C 48 % 1016,2 hPa 0,0 l/m 26,5 km/h (4 Bft) O-NO 61 2 min 0,000 mm 1,1 UV-I 432 W/m 3,9 C 8,0 C 37,0 km/h (5 Bft) 97,73 %
01.04.2019 16:24 14,8 C 8,9 C 19,4 C 47 % 1016,1 hPa 0,0 l/m 33,0 km/h (5 Bft) O 95 2 min 0,000 mm 1,1 UV-I 427 W/m 3,6 C 6,9 C 45,1 km/h (6 Bft) 100,00 %
01.04.2019 16:26 14,8 C 8,9 C 19,4 C 47 % 1016,1 hPa 0,0 l/m 32,7 km/h (5 Bft) O-NO 68 2 min 0,000 mm 1,1 UV-I 423 W/m 3,6 C 7,0 C 40,2 km/h (6 Bft) 100,00 %
01.04.2019 16:28 14,8 C 9,4 C 19,4 C 47 % 1016,1 hPa 0,0 l/m 27,4 km/h (4 Bft) O 81 2 min 0,000 mm 1,0 UV-I 416 W/m 3,6 C 7,9 C 37,0 km/h (5 Bft) 100,00 %
01.04.2019 16:30 14,8 C 8,9 C 18,9 C 48 % 1016,1 hPa 0,0 l/m 26,5 km/h (4 Bft) O-NO 73 2 min 0,000 mm 1,0 UV-I 410 W/m 3,9 C 8,0 C 38,6 km/h (5 Bft) 97,56 %
01.04.2019 16:32 14,8 C 8,9 C 18,9 C 47 % 1016,1 hPa 0,0 l/m 25,7 km/h (4 Bft) O-NO 76 2 min 0,000 mm 1,0 UV-I 404 W/m 3,6 C 8,2 C 41,8 km/h (6 Bft) 98,00 %
01.04.2019 16:34 14,7 C 8,9 C 18,3 C 48 % 1016,1 hPa 0,0 l/m 26,9 km/h (4 Bft) O-NO 61 2 min 0,000 mm 1,0 UV-I 400 W/m 3,8 C 7,8 C 40,2 km/h (6 Bft) 97,87 %
01.04.2019 16:36 14,7 C 8,9 C 17,8 C 48 % 1016,1 hPa 0,0 l/m 22,2 km/h (4 Bft) O-NO 67 2 min 0,000 mm 1,0 UV-I 399 W/m 3,8 C 8,8 C 29,0 km/h (5 Bft) 96,00 %
01.04.2019 16:38 14,7 C 8,9 C 17,8 C 48 % 1016,0 hPa 0,0 l/m 24,2 km/h (4 Bft) O-NO 66 2 min 0,000 mm 0,9 UV-I 390 W/m 3,8 C 8,4 C 32,2 km/h (5 Bft) 97,44 %
01.04.2019 16:40 14,8 C 8,9 C 17,8 C 48 % 1016,1 hPa 0,0 l/m 24,8 km/h (4 Bft) O-NO 70 2 min 0,000 mm 0,9 UV-I 387 W/m 3,9 C 8,4 C 33,8 km/h (5 Bft) 98,21 %
01.04.2019 16:42 14,8 C 8,9 C 17,8 C 48 % 1015,9 hPa 0,0 l/m 25,7 km/h (4 Bft) O 82 2 min 0,000 mm 0,9 UV-I 383 W/m 3,9 C 8,2 C 33,8 km/h (5 Bft) 93,18 %
01.04.2019 16:44 14,8 C 8,9 C 17,8 C 47 % 1016,0 hPa 0,0 l/m 24,6 km/h (4 Bft) O 83 2 min 0,000 mm 0,9 UV-I 379 W/m 3,6 C 8,4 C 32,2 km/h (5 Bft) 96,00 %
01.04.2019 16:46 14,7 C 8,9 C 17,8 C 48 % 1016,1 hPa 0,0 l/m 24,7 km/h (4 Bft) O 85 2 min 0,000 mm 0,9 UV-I 373 W/m 3,8 C 8,3 C 32,2 km/h (5 Bft) 95,74 %
01.04.2019 16:48 14,7 C 8,9 C 18,3 C 48 % 1016,0 hPa 0,0 l/m 21,4 km/h (4 Bft) O-NO 68 2 min 0,000 mm 0,8 UV-I 371 W/m 3,8 C 9,0 C 30,6 km/h (5 Bft) 95,74 %
01.04.2019 16:50 14,7 C 8,9 C 17,8 C 48 % 1016,0 hPa 0,0 l/m 24,4 km/h (4 Bft) O-NO 72 2 min 0,000 mm 0,8 UV-I 368 W/m 3,8 C 8,3 C 37,0 km/h (5 Bft) 95,74 %
01.04.2019 16:52 14,8 C 9,4 C 17,2 C 48 % 1015,9 hPa 0,0 l/m 20,0 km/h (4 Bft) O 82 2 min 0,000 mm 0,8 UV-I 361 W/m 3,9 C 9,5 C 29,0 km/h (5 Bft) 95,45 %
01.04.2019 16:54 14,8 C 8,9 C 17,2 C 49 % 1016,0 hPa 0,0 l/m 17,7 km/h (3 Bft) O 85 2 min 0,000 mm 0,8 UV-I 355 W/m 4,2 C 10,1 C 22,5 km/h (4 Bft) 92,68 %
01.04.2019 16:56 14,8 C 8,9 C 16,7 C 49 % 1016,0 hPa 0,0 l/m 18,5 km/h (3 Bft) O 79 2 min 0,000 mm 0,8 UV-I 351 W/m 4,2 C 9,9 C 33,8 km/h (5 Bft) 93,62 %
01.04.2019 16:58 14,8 C 8,9 C 16,7 C 47 % 1016,0 hPa 0,0 l/m 23,5 km/h (4 Bft) O-NO 63 2 min 0,000 mm 0,7 UV-I 347 W/m 3,6 C 8,7 C 33,8 km/h (5 Bft) 96,00 %
01.04.2019 17:00 14,8 C 8,9 C 16,7 C 47 % 1015,9 hPa 0,0 l/m 25,0 km/h (4 Bft) O-NO 76 2 min 0,356 mm 0,7 UV-I 340 W/m 3,6 C 8,3 C 35,4 km/h (5 Bft) 91,49 %
01.04.2019 17:02 14,8 C 8,9 C 16,7 C 48 % 1015,9 hPa 0,0 l/m 31,0 km/h (5 Bft) O-NO 70 2 min 0,000 mm 0,7 UV-I 332 W/m 3,9 C 7,2 C 38,6 km/h (5 Bft) 93,62 %
01.04.2019 17:04 14,7 C 8,9 C 16,7 C 46 % 1016,0 hPa 0,0 l/m 31,9 km/h (5 Bft) O 85 2 min 0,000 mm 0,7 UV-I 328 W/m 3,2 C 7,0 C 40,2 km/h (6 Bft) 94,00 %
01.04.2019 17:06 14,6 C 8,9 C 16,7 C 48 % 1015,9 hPa 0,0 l/m 23,8 km/h (4 Bft) O-NO 69 2 min 0,000 mm 0,7 UV-I 324 W/m 3,7 C 8,3 C 30,6 km/h (5 Bft) 94,00 %
01.04.2019 17:08 14,6 C 8,9 C 16,7 C 48 % 1015,9 hPa 0,0 l/m 24,0 km/h (4 Bft) O-NO 71 2 min 0,000 mm 0,6 UV-I 318 W/m 3,7 C 8,3 C 30,6 km/h (5 Bft) 100,00 %
01.04.2019 17:10 14,6 C 8,9 C 16,1 C 48 % 1015,9 hPa 0,0 l/m 25,3 km/h (4 Bft) O 96 2 min 0,000 mm 0,6 UV-I 310 W/m 3,7 C 8,0 C 32,2 km/h (5 Bft) 96,23 %
01.04.2019 17:12 14,6 C 8,9 C 16,1 C 48 % 1015,9 hPa 0,0 l/m 24,5 km/h (4 Bft) O 79 2 min 0,000 mm 0,6 UV-I 306 W/m 3,7 C 8,2 C 37,0 km/h (5 Bft) 97,56 %
01.04.2019 17:14 14,6 C 8,9 C 16,1 C 48 % 1015,9 hPa 0,0 l/m 27,7 km/h (4 Bft) O-SO 103 2 min 0,000 mm 0,6 UV-I 299 W/m 3,7 C 7,5 C 40,2 km/h (6 Bft) 95,74 %
01.04.2019 17:16 14,6 C 8,9 C 16,1 C 48 % 1015,7 hPa 0,0 l/m 27,1 km/h (4 Bft) O 85 2 min 0,000 mm 0,6 UV-I 294 W/m 3,7 C 7,6 C 37,0 km/h (5 Bft) 97,22 %
01.04.2019 17:18 14,5 C 8,9 C 16,1 C 48 % 1015,9 hPa 0,0 l/m 22,8 km/h (4 Bft) O-NO 62 2 min 0,000 mm 0,6 UV-I 288 W/m 3,6 C 8,4 C 32,2 km/h (5 Bft) 98,21 %
01.04.2019 17:20 14,5 C 8,9 C 15,6 C 48 % 1015,9 hPa 0,0 l/m 23,7 km/h (4 Bft) O 81 2 min 0,000 mm 0,6 UV-I 285 W/m 3,6 C 8,2 C 33,8 km/h (5 Bft) 96,00 %
01.04.2019 17:22 14,5 C 8,9 C 15,6 C 48 % 1015,8 hPa 0,0 l/m 26,0 km/h (4 Bft) O-NO 71 2 min 0,000 mm 0,5 UV-I 278 W/m 3,6 C 7,7 C 35,4 km/h (5 Bft) 95,74 %
01.04.2019 17:24 14,4 C 9,4 C 15,0 C 47 % 1015,8 hPa 0,0 l/m 29,4 km/h (5 Bft) O 80 2 min 0,000 mm 0,5 UV-I 272 W/m 3,2 C 6,9 C 33,8 km/h (5 Bft) 96,00 %
01.04.2019 17:26 14,4 C 9,4 C 15,0 C 47 % 1015,8 hPa 0,0 l/m 30,2 km/h (5 Bft) O-NO 72 2 min 0,000 mm 0,5 UV-I 267 W/m 3,2 C 6,8 C 40,2 km/h (6 Bft) 97,56 %
01.04.2019 17:28 14,3 C 9,4 C 15,0 C 47 % 1015,8 hPa 0,0 l/m 30,0 km/h (5 Bft) O 84 2 min 0,000 mm 0,5 UV-I 260 W/m 3,1 C 6,7 C 43,5 km/h (6 Bft) 96,23 %
01.04.2019 17:30 14,3 C 9,4 C 14,4 C 47 % 1015,7 hPa 0,0 l/m 32,3 km/h (5 Bft) O 86 2 min 0,000 mm 0,5 UV-I 254 W/m 3,1 C 6,3 C 43,5 km/h (6 Bft) 100,00 %
01.04.2019 17:32 14,2 C 9,4 C 14,4 C 48 % 1015,8 hPa 0,0 l/m 30,3 km/h (5 Bft) O-NO 63 2 min 0,000 mm 0,4 UV-I 250 W/m 3,4 C 6,5 C 45,1 km/h (6 Bft) 94,64 %
01.04.2019 17:34 14,2 C 8,9 C 14,4 C 49 % 1015,7 hPa 0,0 l/m 30,9 km/h (5 Bft) O-NO 73 2 min 0,000 mm 0,0 UV-I 246 W/m 3,6 C 6,4 C 41,8 km/h (6 Bft) 95,12 %
01.04.2019 17:36 14,1 C 8,9 C 13,9 C 48 % 1015,7 hPa 0,0 l/m 29,1 km/h (5 Bft) O-NO 74 2 min 0,000 mm 0,0 UV-I 240 W/m 3,3 C 6,6 C 40,2 km/h (6 Bft) 98,00 %
01.04.2019 17:38 14,1 C 8,9 C 13,9 C 48 % 1015,7 hPa 0,0 l/m 27,8 km/h (4 Bft) O 82 2 min 0,000 mm 0,0 UV-I 236 W/m 3,3 C 6,8 C 41,8 km/h (6 Bft) 97,37 %
01.04.2019 17:40 14,1 C 8,9 C 13,9 C 48 % 1015,7 hPa 0,0 l/m 30,5 km/h (5 Bft) O 96 2 min 0,000 mm 0,0 UV-I 230 W/m 3,3 C 6,3 C 43,5 km/h (6 Bft) 98,21 %
01.04.2019 17:42 14,0 C 8,9 C 13,9 C 49 % 1015,7 hPa 0,0 l/m 26,0 km/h (4 Bft) O 94 2 min 0,000 mm 0,0 UV-I 222 W/m 3,5 C 7,0 C 40,2 km/h (6 Bft) 98,11 %
01.04.2019 17:44 14,0 C 8,9 C 13,9 C 48 % 1015,7 hPa 0,0 l/m 27,5 km/h (4 Bft) O-SO 102 2 min 0,000 mm 0,0 UV-I 219 W/m 3,2 C 6,7 C 40,2 km/h (6 Bft) 94,74 %
01.04.2019 17:46 14,0 C 8,9 C 13,9 C 48 % 1015,7 hPa 0,0 l/m 25,3 km/h (4 Bft) O 98 2 min 0,000 mm 0,0 UV-I 214 W/m 3,2 C 7,2 C 37,0 km/h (5 Bft) 97,87 %
01.04.2019 17:48 14,0 C 9,4 C 13,9 C 48 % 1015,6 hPa 0,0 l/m 27,7 km/h (4 Bft) O 98 2 min 0,000 mm 0,0 UV-I 210 W/m 3,2 C 6,7 C 37,0 km/h (5 Bft) 97,87 %
01.04.2019 17:50 14,0 C 9,4 C 13,3 C 49 % 1015,6 hPa 0,0 l/m 22,2 km/h (4 Bft) O 96 2 min 0,000 mm 0,0 UV-I 204 W/m 3,5 C 7,9 C 41,8 km/h (6 Bft) 97,44 %
01.04.2019 17:52 13,9 C 9,4 C 13,3 C 48 % 1015,6 hPa 0,0 l/m 26,8 km/h (4 Bft) O-NO 62 2 min 0,000 mm 0,0 UV-I 200 W/m 3,1 C 6,7 C 40,2 km/h (6 Bft) 98,28 %
01.04.2019 17:54 13,9 C 9,4 C 13,3 C 49 % 1015,6 hPa 0,0 l/m 28,0 km/h (4 Bft) NO 50 2 min 0,000 mm 0,0 UV-I 194 W/m 3,4 C 6,5 C 41,8 km/h (6 Bft) 97,44 %
01.04.2019 17:56 13,9 C 9,4 C 13,3 C 48 % 1015,5 hPa 0,0 l/m 31,3 km/h (5 Bft) O-NO 69 2 min 0,000 mm 0,0 UV-I 190 W/m 3,1 C 5,9 C 41,8 km/h (6 Bft) 94,00 %
01.04.2019 17:58 13,8 C 8,9 C 12,8 C 47 % 1015,6 hPa 0,0 l/m 31,5 km/h (5 Bft) O 79 2 min 0,000 mm 0,0 UV-I 186 W/m 2,7 C 5,7 C 37,0 km/h (5 Bft) 97,87 %
01.04.2019 18:00 13,8 C 8,9 C 12,8 C 48 % 1015,6 hPa 0,0 l/m 30,2 km/h (5 Bft) O 96 2 min 0,000 mm 0,0 UV-I 179 W/m 3,0 C 6,0 C 37,0 km/h (5 Bft) 98,00 %
01.04.2019 18:02 13,7 C 8,9 C 12,8 C 48 % 1015,6 hPa 0,0 l/m 29,0 km/h (5 Bft) O 85 2 min 0,305 mm 0,0 UV-I 174 W/m 2,9 C 6,0 C 38,6 km/h (5 Bft) 100,00 %
01.04.2019 18:04 13,7 C 8,9 C 12,8 C 49 % 1015,6 hPa 0,0 l/m 22,4 km/h (4 Bft) O 94 2 min 0,000 mm 0,0 UV-I 169 W/m 3,2 C 7,4 C 29,0 km/h (5 Bft) 98,11 %
01.04.2019 18:06 13,7 C 8,9 C 12,8 C 49 % 1015,6 hPa 0,0 l/m 23,4 km/h (4 Bft) O 100 2 min 0,000 mm 0,0 UV-I 164 W/m 3,2 C 7,2 C 37,0 km/h (5 Bft) 97,73 %
01.04.2019 18:08 13,7 C 8,9 C 12,8 C 49 % 1015,6 hPa 0,0 l/m 24,3 km/h (4 Bft) O 86 2 min 0,000 mm 0,0 UV-I 160 W/m 3,2 C 7,0 C 33,8 km/h (5 Bft) 96,23 %
01.04.2019 18:10 13,7 C 9,4 C 12,8 C 49 % 1015,6 hPa 0,0 l/m 26,9 km/h (4 Bft) O 92 2 min 0,000 mm 0,0 UV-I 156 W/m 3,2 C 6,4 C 37,0 km/h (5 Bft) 91,49 %
01.04.2019 18:12 13,6 C 9,4 C 12,8 C 48 % 1015,6 hPa 0,0 l/m 28,4 km/h (4 Bft) O-NO 75 2 min 0,000 mm 0,0 UV-I 150 W/m 2,8 C 6,0 C 43,5 km/h (6 Bft) 95,74 %
01.04.2019 18:14 13,6 C 9,4 C 12,8 C 49 % 1015,6 hPa 0,0 l/m 23,0 km/h (4 Bft) O 84 2 min 0,000 mm 0,0 UV-I 145 W/m 3,1 C 7,2 C 30,6 km/h (5 Bft) 94,74 %
01.04.2019 18:16 13,6 C 9,4 C 12,8 C 50 % 1015,7 hPa 0,0 l/m 18,3 km/h (3 Bft) O-NO 73 2 min 0,000 mm 0,0 UV-I 139 W/m 3,4 C 8,4 C 25,7 km/h (4 Bft) 96,00 %
01.04.2019 18:18 13,5 C 9,4 C 12,2 C 49 % 1015,6 hPa 0,0 l/m 24,3 km/h (4 Bft) O 80 2 min 0,000 mm 0,0 UV-I 134 W/m 3,0 C 6,7 C 33,8 km/h (5 Bft) 93,33 %
01.04.2019 18:20 13,4 C 9,4 C 12,2 C 49 % 1015,6 hPa 0,0 l/m 22,2 km/h (4 Bft) O-NO 70 2 min 0,000 mm 0,0 UV-I 130 W/m 2,9 C 7,1 C 30,6 km/h (5 Bft) 92,54 %
01.04.2019 18:22 13,4 C 9,4 C 12,2 C 49 % 1015,6 hPa 0,0 l/m 27,8 km/h (4 Bft) O-NO 78 2 min 0,000 mm 0,0 UV-I 124 W/m 2,9 C 5,9 C 37,0 km/h (5 Bft) 95,45 %
01.04.2019 18:24 13,4 C 8,9 C 12,2 C 48 % 1015,6 hPa 0,0 l/m 24,3 km/h (4 Bft) O 87 2 min 0,000 mm 0,0 UV-I 119 W/m 2,6 C 6,6 C 33,8 km/h (5 Bft) 90,57 %
01.04.2019 18:26 13,3 C 8,9 C 12,2 C 49 % 1015,6 hPa 0,0 l/m 28,9 km/h (5 Bft) O-NO 78 2 min 0,000 mm 0,0 UV-I 114 W/m 2,8 C 5,5 C 41,8 km/h (6 Bft) 94,74 %
01.04.2019 18:28 13,3 C 8,9 C 12,2 C 50 % 1015,6 hPa 0,0 l/m 23,8 km/h (4 Bft) O-NO 74 2 min 0,000 mm 0,0 UV-I 108 W/m 3,1 C 6,6 C 37,0 km/h (5 Bft) 91,49 %
01.04.2019 18:30 13,2 C 8,9 C 12,2 C 49 % 1015,6 hPa 0,0 l/m 24,9 km/h (4 Bft) O-NO 71 2 min 0,000 mm 0,0 UV-I 104 W/m 2,7 C 6,2 C 35,4 km/h (5 Bft) 98,11 %
01.04.2019 18:32 13,2 C 8,9 C 12,2 C 49 % 1015,6 hPa 0,0 l/m 25,9 km/h (4 Bft) O-NO 71 2 min 0,000 mm 0,0 UV-I 100 W/m 2,7 C 6,0 C 41,8 km/h (6 Bft) 95,24 %
01.04.2019 18:34 13,2 C 9,4 C 12,2 C 49 % 1015,6 hPa 0,0 l/m 26,3 km/h (4 Bft) O 94 2 min 0,000 mm 0,0 UV-I 96 W/m 2,7 C 5,9 C 40,2 km/h (6 Bft) 100,00 %
01.04.2019 18:36 13,2 C 9,4 C 11,7 C 49 % 1015,6 hPa 0,0 l/m 22,8 km/h (4 Bft) O 80 2 min 0,000 mm 0,0 UV-I 92 W/m 2,7 C 6,7 C 30,6 km/h (5 Bft) 97,44 %
01.04.2019 18:38 13,1 C 9,4 C 11,7 C 49 % 1015,6 hPa 0,0 l/m 22,7 km/h (4 Bft) O 85 2 min 0,000 mm 0,0 UV-I 89 W/m 2,6 C 6,6 C 29,0 km/h (5 Bft) 94,00 %
01.04.2019 18:40 13,0 C 9,4 C 11,7 C 49 % 1015,6 hPa 0,0 l/m 23,7 km/h (4 Bft) O 79 2 min 0,000 mm 0,0 UV-I 85 W/m 2,5 C 6,2 C 38,6 km/h (5 Bft) 98,00 %
01.04.2019 18:42 13,0 C 8,9 C 11,7 C 49 % 1015,7 hPa 0,0 l/m 26,8 km/h (4 Bft) O-NO 78 2 min 0,000 mm 0,0 UV-I 83 W/m 2,5 C 5,5 C 33,8 km/h (5 Bft) 97,56 %
01.04.2019 18:44 12,9 C 8,9 C 11,7 C 49 % 1015,6 hPa 0,0 l/m 27,8 km/h (4 Bft) O 88 2 min 0,000 mm 0,0 UV-I 79 W/m 2,5 C 5,2 C 37,0 km/h (5 Bft) 98,11 %
01.04.2019 18:46 12,9 C 8,9 C 11,7 C 49 % 1015,7 hPa 0,0 l/m 24,4 km/h (4 Bft) O 80 2 min 0,000 mm 0,0 UV-I 75 W/m 2,5 C 5,9 C 35,4 km/h (5 Bft) 97,73 %
01.04.2019 18:48 12,8 C 8,9 C 11,1 C 50 % 1015,6 hPa 0,0 l/m 24,0 km/h (4 Bft) O 92 2 min 0,000 mm 0,0 UV-I 70 W/m 2,6 C 5,9 C 32,2 km/h (5 Bft) 97,73 %
01.04.2019 18:50 12,7 C 8,9 C 11,1 C 49 % 1015,6 hPa 0,0 l/m 23,8 km/h (4 Bft) O-NO 76 2 min 0,000 mm 0,0 UV-I 66 W/m 2,3 C 5,8 C 35,4 km/h (5 Bft) 95,45 %
01.04.2019 18:52 12,7 C 8,9 C 11,1 C 49 % 1015,6 hPa 0,0 l/m 25,9 km/h (4 Bft) O-NO 65 2 min 0,000 mm 0,0 UV-I 62 W/m 2,3 C 5,3 C 37,0 km/h (5 Bft) 98,00 %
01.04.2019 18:54 12,6 C 8,9 C 11,1 C 49 % 1015,6 hPa 0,0 l/m 25,1 km/h (4 Bft) O-NO 75 2 min 0,000 mm 0,0 UV-I 58 W/m 2,2 C 5,3 C 38,6 km/h (5 Bft) 97,73 %
01.04.2019 18:56 12,6 C 8,9 C 11,1 C 49 % 1015,6 hPa 0,0 l/m 31,0 km/h (5 Bft) O-NO 65 2 min 0,000 mm 0,0 UV-I 54 W/m 2,2 C 4,1 C 45,1 km/h (6 Bft) 98,21 %
01.04.2019 18:58 12,6 C 9,4 C 11,1 C 48 % 1015,6 hPa 0,0 l/m 30,4 km/h (5 Bft) O-NO 59 2 min 0,000 mm 0,0 UV-I 52 W/m 1,9 C 4,2 C 40,2 km/h (6 Bft) 100,00 %
01.04.2019 19:00 12,6 C 9,4 C 11,1 C 49 % 1015,7 hPa 0,0 l/m 24,1 km/h (4 Bft) O-NO 65 2 min 0,000 mm 0,0 UV-I 48 W/m 2,2 C 5,6 C 33,8 km/h (5 Bft) 100,00 %
01.04.2019 19:02 12,5 C 8,9 C 10,6 C 49 % 1015,7 hPa 0,0 l/m 25,3 km/h (4 Bft) O 81 2 min 0,203 mm 0,0 UV-I 45 W/m 2,1 C 5,2 C 35,4 km/h (5 Bft) 97,73 %
01.04.2019 19:04 12,4 C 9,4 C 10,6 C 49 % 1015,7 hPa 0,0 l/m 19,5 km/h (3 Bft) O 101 2 min 0,000 mm 0,0 UV-I 43 W/m 2,0 C 6,5 C 25,7 km/h (4 Bft) 100,00 %
01.04.2019 19:06 12,3 C 9,4 C 10,6 C 49 % 1015,7 hPa 0,0 l/m 26,0 km/h (4 Bft) O-NO 74 2 min 0,000 mm 0,0 UV-I 39 W/m 1,9 C 4,7 C 40,2 km/h (6 Bft) 97,73 %
01.04.2019 19:08 12,3 C 9,4 C 10,6 C 49 % 1015,6 hPa 0,0 l/m 27,9 km/h (4 Bft) O-NO 76 2 min 0,000 mm 0,0 UV-I 36 W/m 1,9 C 4,3 C 38,6 km/h (5 Bft) 100,00 %
01.04.2019 19:10 12,3 C 9,4 C 10,6 C 49 % 1015,7 hPa 0,0 l/m 25,7 km/h (4 Bft) O 80 2 min 0,000 mm 0,0 UV-I 34 W/m 1,9 C 4,8 C 41,8 km/h (6 Bft) 100,00 %
01.04.2019 19:12 12,3 C 9,4 C 10,6 C 49 % 1015,7 hPa 0,0 l/m 23,9 km/h (4 Bft) O-NO 70 2 min 0,000 mm 0,0 UV-I 31 W/m 1,9 C 5,2 C 32,2 km/h (5 Bft) 97,87 %
01.04.2019 19:14 12,2 C 9,4 C 10,6 C 50 % 1015,8 hPa 0,0 l/m 23,5 km/h (4 Bft) O-NO 78 2 min 0,000 mm 0,0 UV-I 28 W/m 2,1 C 5,2 C 33,8 km/h (5 Bft) 100,00 %
01.04.2019 19:16 12,2 C 8,9 C 10,6 C 50 % 1015,8 hPa 0,0 l/m 28,6 km/h (4 Bft) O-NO 77 2 min 0,000 mm 0,0 UV-I 25 W/m 2,1 C 4,0 C 40,2 km/h (6 Bft) 98,21 %
01.04.2019 19:18 12,1 C 8,9 C 10,6 C 49 % 1015,8 hPa 0,0 l/m 31,2 km/h (5 Bft) O-NO 75 2 min 0,000 mm 0,0 UV-I 23 W/m 1,7 C 3,4 C 43,5 km/h (6 Bft) 100,00 %
01.04.2019 19:20 12,2 C 9,4 C 10,6 C 49 % 1015,8 hPa 0,0 l/m 25,8 km/h (4 Bft) O-NO 71 2 min 0,000 mm 0,0 UV-I 20 W/m 1,8 C 4,6 C 38,6 km/h (5 Bft) 97,87 %
01.04.2019 19:22 12,1 C 9,4 C 10,6 C 49 % 1015,8 hPa 0,0 l/m 25,3 km/h (4 Bft) O-NO 74 2 min 0,000 mm 0,0 UV-I 18 W/m 1,7 C 4,6 C 33,8 km/h (5 Bft) 100,00 %
01.04.2019 19:24 12,0 C 8,9 C 10,0 C 49 % 1015,7 hPa 0,0 l/m 25,5 km/h (4 Bft) O-NO 65 0 min 0,000 mm 0,0 UV-I 16 W/m 1,6 C 4,4 C 35,4 km/h (5 Bft) 100,00 %
01.04.2019 19:26 11,9 C 8,9 C 10,0 C 49 % 1015,7 hPa 0,0 l/m 28,3 km/h (4 Bft) O-NO 68 0 min 0,000 mm 0,0 UV-I 14 W/m 1,5 C 3,7 C 35,4 km/h (5 Bft) 100,00 %
01.04.2019 19:28 11,9 C 9,4 C 10,0 C 50 % 1015,8 hPa 0,0 l/m 24,9 km/h (4 Bft) O 88 0 min 0,000 mm 0,0 UV-I 12 W/m 1,8 C 4,4 C 38,6 km/h (5 Bft) 100,00 %
01.04.2019 19:30 11,8 C 9,4 C 10,0 C 50 % 1015,7 hPa 0,0 l/m 22,4 km/h (4 Bft) O-NO 65 0 min 0,000 mm 0,0 UV-I 11 W/m 1,7 C 4,9 C 33,8 km/h (5 Bft) 97,37 %
01.04.2019 19:32 11,8 C 8,9 C 10,0 C 50 % 1015,7 hPa 0,0 l/m 26,1 km/h (4 Bft) O 82 0 min 0,000 mm 0,0 UV-I 10 W/m 1,7 C 4,0 C 35,4 km/h (5 Bft) 97,37 %
01.04.2019 19:34 11,7 C 8,9 C 10,0 C 51 % 1015,8 hPa 0,0 l/m 23,2 km/h (4 Bft) O 79 0 min 0,000 mm 0,0 UV-I 9 W/m 1,9 C 4,6 C 30,6 km/h (5 Bft) 96,92 %
01.04.2019 19:36 11,7 C 8,9 C 10,0 C 51 % 1015,8 hPa 0,0 l/m 22,8 km/h (4 Bft) O-NO 59 0 min 0,000 mm 0,0 UV-I 7 W/m 1,9 C 4,7 C 33,8 km/h (5 Bft) 94,29 %
01.04.2019 19:38 11,6 C 8,9 C 9,4 C 50 % 1015,8 hPa 0,0 l/m 23,7 km/h (4 Bft) O 83 0 min 0,000 mm 0,0 UV-I 7 W/m 1,5 C 4,3 C 32,2 km/h (5 Bft) 98,00 %
01.04.2019 19:40 11,6 C 9,4 C 10,0 C 50 % 1015,8 hPa 0,0 l/m 25,6 km/h (4 Bft) O-NO 77 0 min 0,000 mm 0,0 UV-I 7 W/m 1,5 C 3,9 C 32,2 km/h (5 Bft) 96,00 %
01.04.2019 19:42 11,6 C 9,4 C 10,0 C 50 % 1015,7 hPa 0,0 l/m 27,1 km/h (4 Bft) O 89 0 min 0,000 mm 0,0 UV-I 6 W/m 1,5 C 3,5 C 41,8 km/h (6 Bft) 97,56 %
01.04.2019 19:44 11,5 C 9,4 C 10,0 C 50 % 1015,7 hPa 0,0 l/m 26,3 km/h (4 Bft) O-NO 70 0 min 0,000 mm 0,0 UV-I 5 W/m 1,4 C 3,6 C 37,0 km/h (5 Bft) 96,43 %
01.04.2019 19:46 11,5 C 9,4 C 9,4 C 50 % 1015,7 hPa 0,0 l/m 25,8 km/h (4 Bft) O-SO 104 0 min 0,000 mm 0,0 UV-I 5 W/m 1,4 C 3,7 C 38,6 km/h (5 Bft) 97,87 %
01.04.2019 19:48 11,5 C 9,4 C 9,4 C 50 % 1015,8 hPa 0,0 l/m 26,8 km/h (4 Bft) O-NO 72 0 min 0,000 mm 0,0 UV-I 3 W/m 1,4 C 3,4 C 40,2 km/h (6 Bft) 97,44 %
01.04.2019 19:50 11,5 C 9,4 C 9,4 C 50 % 1015,8 hPa 0,0 l/m 24,0 km/h (4 Bft) O 83 0 min 0,000 mm 0,0 UV-I 0 W/m 1,4 C 4,1 C 33,8 km/h (5 Bft) 96,00 %
01.04.2019 19:52 11,5 C 8,9 C 9,4 C 50 % 1015,8 hPa 0,0 l/m 30,1 km/h (5 Bft) O 91 0 min 0,000 mm 0,0 UV-I 0 W/m 1,4 C 2,7 C 37,0 km/h (5 Bft) 98,00 %
01.04.2019 19:54 11,5 C 8,9 C 9,4 C 49 % 1015,9 hPa 0,0 l/m 27,1 km/h (4 Bft) O-NO 74 0 min 0,000 mm 0,0 UV-I 0 W/m 1,2 C 3,4 C 38,6 km/h (5 Bft) 95,45 %
01.04.2019 19:56 11,4 C 9,4 C 9,4 C 49 % 1015,8 hPa 0,0 l/m 24,8 km/h (4 Bft) O-SO 105 0 min 0,000 mm 0,0 UV-I 0 W/m 1,1 C 3,8 C 38,6 km/h (5 Bft) 96,23 %
01.04.2019 19:58 11,4 C 9,4 C 9,4 C 50 % 1015,8 hPa 0,0 l/m 28,4 km/h (4 Bft) O 85 0 min 0,000 mm 0,0 UV-I 0 W/m 1,4 C 3,0 C 40,2 km/h (6 Bft) 100,00 %
01.04.2019 20:00 11,4 C 8,9 C 9,4 C 50 % 1015,8 hPa 0,0 l/m 25,5 km/h (4 Bft) O 79 0 min 0,152 mm 0,0 UV-I 0 W/m 1,4 C 3,6 C 38,6 km/h (5 Bft) 100,00 %
01.04.2019 20:02 11,3 C 8,9 C 9,4 C 49 % 1015,8 hPa 0,0 l/m 28,5 km/h (4 Bft) SO 124 0 min 0,000 mm 0,0 UV-I 0 W/m 1,0 C 2,8 C 40,2 km/h (6 Bft) 100,00 %
01.04.2019 20:04 11,3 C 8,9 C 9,4 C 50 % 1015,8 hPa 0,0 l/m 25,9 km/h (4 Bft) O 86 0 min 0,000 mm 0,0 UV-I 0 W/m 1,3 C 3,4 C 41,8 km/h (6 Bft) 100,00 %
01.04.2019 20:06 11,3 C 9,4 C 9,4 C 49 % 1015,9 hPa 0,0 l/m 25,4 km/h (4 Bft) O-NO 66 0 min 0,000 mm 0,0 UV-I 0 W/m 1,0 C 3,5 C 33,8 km/h (5 Bft) 100,00 %
01.04.2019 20:08 11,2 C 9,4 C 9,4 C 50 % 1015,9 hPa 0,0 l/m 24,3 km/h (4 Bft) O 96 0 min 0,000 mm 0,0 UV-I 0 W/m 1,2 C 3,6 C 32,2 km/h (5 Bft) 100,00 %
01.04.2019 20:10 11,2 C 9,4 C 9,4 C 50 % 1015,9 hPa 0,0 l/m 21,9 km/h (4 Bft) O 88 0 min 0,000 mm 0,0 UV-I 0 W/m 1,2 C 4,3 C 30,6 km/h (5 Bft) 100,00 %
01.04.2019 20:12 11,1 C 9,4 C 9,4 C 50 % 1015,9 hPa 0,0 l/m 22,5 km/h (4 Bft) O 92 0 min 0,000 mm 0,0 UV-I 0 W/m 1,1 C 4,0 C 30,6 km/h (5 Bft) 98,11 %
01.04.2019 20:14 11,1 C 9,4 C 9,4 C 50 % 1015,9 hPa 0,0 l/m 24,8 km/h (4 Bft) O-NO 76 0 min 0,000 mm 0,0 UV-I 0 W/m 1,1 C 3,4 C 35,4 km/h (5 Bft) 94,74 %
01.04.2019 20:16 11,1 C 9,4 C 9,4 C 50 % 1015,8 hPa 0,0 l/m 24,5 km/h (4 Bft) O 90 0 min 0,000 mm 0,0 UV-I 0 W/m 1,1 C 3,4 C 30,6 km/h (5 Bft) 100,00 %
01.04.2019 20:19 10,9 C 9,4 C 8,9 C 51 % 1015,9 hPa 0,0 l/m 22,8 km/h (4 Bft) O-NO 70 0 min 0,000 mm 0,0 UV-I 0 W/m 1,2 C 3,6 C 30,6 km/h (5 Bft) 97,18 %
01.04.2019 20:20 10,9 C 9,4 C 8,9 C 51 % 1015,9 hPa 0,0 l/m 25,0 km/h (4 Bft) O-NO 76 0 min 0,000 mm 0,0 UV-I 0 W/m 1,2 C 3,1 C 33,8 km/h (5 Bft) 100,00 %
01.04.2019 20:22 10,9 C 9,4 C 8,9 C 51 % 1016,1 hPa 0,0 l/m 22,5 km/h (4 Bft) O-NO 69 0 min 0,000 mm 0,0 UV-I 0 W/m 1,2 C 3,7 C 33,8 km/h (5 Bft) 97,37 %
01.04.2019 20:24 10,8 C 9,4 C 8,9 C 51 % 1016,0 hPa 0,0 l/m 20,7 km/h (4 Bft) O-NO 72 0 min 0,000 mm 0,0 UV-I 0 W/m 1,1 C 4,1 C 29,0 km/h (5 Bft) 94,64 %
01.04.2019 20:26 10,8 C 9,4 C 8,9 C 51 % 1016,0 hPa 0,0 l/m 25,1 km/h (4 Bft) O-NO 76 0 min 0,000 mm 0,0 UV-I 0 W/m 1,1 C 2,9 C 35,4 km/h (5 Bft) 97,44 %
01.04.2019 20:28 10,7 C 9,4 C 8,9 C 51 % 1016,0 hPa 0,0 l/m 20,9 km/h (4 Bft) O-NO 77 0 min 0,000 mm 0,0 UV-I 0 W/m 1,0 C 3,9 C 27,4 km/h (4 Bft) 96,15 %
01.04.2019 20:30 10,7 C 9,4 C 8,9 C 51 % 1016,0 hPa 0,0 l/m 26,2 km/h (4 Bft) O 90 0 min 0,000 mm 0,0 UV-I 0 W/m 1,0 C 2,5 C 33,8 km/h (5 Bft) 95,56 %
01.04.2019 20:32 10,7 C 9,4 C 8,9 C 51 % 1016,1 hPa 0,0 l/m 23,7 km/h (4 Bft) O-NO 67 0 min 0,000 mm 0,0 UV-I 0 W/m 1,0 C 3,1 C 35,4 km/h (5 Bft) 95,74 %
01.04.2019 20:34 10,7 C 8,9 C 8,9 C 50 % 1016,1 hPa 0,0 l/m 24,8 km/h (4 Bft) O 80 0 min 0,000 mm 0,0 UV-I 0 W/m 0,7 C 2,8 C 33,8 km/h (5 Bft) 95,74 %
01.04.2019 20:36 10,7 C 8,9 C 8,9 C 50 % 1016,1 hPa 0,0 l/m 25,2 km/h (4 Bft) O-NO 58 0 min 0,000 mm 0,0 UV-I 0 W/m 0,7 C 2,7 C 33,8 km/h (5 Bft) 97,87 %
01.04.2019 20:38 10,7 C 8,9 C 8,9 C 50 % 1016,1 hPa 0,0 l/m 27,2 km/h (4 Bft) O-NO 73 0 min 0,000 mm 0,0 UV-I 0 W/m 0,7 C 2,3 C 40,2 km/h (6 Bft) 96,00 %
01.04.2019 20:40 10,7 C 9,4 C 8,9 C 50 % 1016,1 hPa 0,0 l/m 25,5 km/h (4 Bft) O-NO 71 0 min 0,000 mm 0,0 UV-I 0 W/m 0,7 C 2,7 C 37,0 km/h (5 Bft) 94,74 %
01.04.2019 20:42 10,7 C 9,4 C 8,9 C 50 % 1016,1 hPa 0,0 l/m 30,0 km/h (5 Bft) O-NO 57 0 min 0,000 mm 0,0 UV-I 0 W/m 0,7 C 1,6 C 43,5 km/h (6 Bft) 98,00 %
01.04.2019 20:44 10,7 C 9,4 C 8,9 C 50 % 1016,1 hPa 0,0 l/m 25,7 km/h (4 Bft) O-NO 59 0 min 0,000 mm 0,0 UV-I 0 W/m 0,7 C 2,6 C 41,8 km/h (6 Bft) 97,73 %
01.04.2019 20:46 10,6 C 8,9 C 8,9 C 51 % 1016,2 hPa 0,0 l/m 23,0 km/h (4 Bft) O 96 0 min 0,000 mm 0,0 UV-I 0 W/m 0,9 C 3,2 C 30,6 km/h (5 Bft) 94,00 %
01.04.2019 20:48 10,6 C 8,9 C 8,9 C 50 % 1016,1 hPa 0,0 l/m 27,3 km/h (4 Bft) O-NO 78 0 min 0,000 mm 0,0 UV-I 0 W/m 0,6 C 2,1 C 35,4 km/h (5 Bft) 97,87 %
01.04.2019 20:50 10,6 C 8,9 C 8,9 C 50 % 1016,1 hPa 0,0 l/m 29,2 km/h (5 Bft) O 84 0 min 0,000 mm 0,0 UV-I 0 W/m 0,6 C 1,7 C 40,2 km/h (6 Bft) 98,00 %
01.04.2019 20:52 10,5 C 9,4 C 8,9 C 50 % 1016,2 hPa 0,0 l/m 22,8 km/h (4 Bft) O-NO 62 0 min 0,000 mm 0,0 UV-I 0 W/m 0,5 C 3,1 C 33,8 km/h (5 Bft) 98,00 %
01.04.2019 20:54 10,4 C 9,4 C 8,9 C 50 % 1016,1 hPa 0,0 l/m 27,6 km/h (4 Bft) O 92 0 min 0,000 mm 0,0 UV-I 0 W/m 0,4 C 1,7 C 35,4 km/h (5 Bft) 93,18 %
01.04.2019 20:56 10,4 C 9,4 C 8,9 C 50 % 1016,1 hPa 0,0 l/m 29,1 km/h (5 Bft) O 85 0 min 0,000 mm 0,0 UV-I 0 W/m 0,4 C 1,4 C 40,2 km/h (6 Bft) 97,44 %
01.04.2019 20:59 10,4 C 9,4 C 8,3 C 50 % 1016,2 hPa 0,0 l/m 22,7 km/h (4 Bft) O 81 0 min 0,000 mm 0,0 UV-I 0 W/m 0,4 C 3,0 C 37,0 km/h (5 Bft) 94,94 %
01.04.2019 21:00 10,3 C 9,4 C 8,3 C 51 % 1016,2 hPa 0,0 l/m 25,8 km/h (4 Bft) O-NO 67 0 min 0,000 mm 0,0 UV-I 0 W/m 0,6 C 2,0 C 32,2 km/h (5 Bft) 100,00 %
01.04.2019 21:02 10,3 C 9,4 C 8,3 C 50 % 1016,1 hPa 0,0 l/m 25,5 km/h (4 Bft) O-NO 78 0 min 0,127 mm 0,0 UV-I 0 W/m 0,3 C 2,1 C 33,8 km/h (5 Bft) 95,24 %
01.04.2019 21:04 10,3 C 9,4 C 8,3 C 51 % 1016,1 hPa 0,0 l/m 26,2 km/h (4 Bft) O-NO 72 0 min 0,000 mm 0,0 UV-I 0 W/m 0,6 C 1,9 C 35,4 km/h (5 Bft) 95,74 %
01.04.2019 21:06 10,2 C 9,4 C 8,3 C 51 % 1016,1 hPa 0,0 l/m 20,9 km/h (4 Bft) O 86 0 min 0,000 mm 0,0 UV-I 0 W/m 0,5 C 3,3 C 29,0 km/h (5 Bft) 96,00 %
01.04.2019 21:08 10,1 C 9,4 C 8,3 C 51 % 1016,1 hPa 0,0 l/m 23,6 km/h (4 Bft) O-NO 63 0 min 0,000 mm 0,0 UV-I 0 W/m 0,4 C 2,3 C 33,8 km/h (5 Bft) 100,00 %
01.04.2019 21:10 10,1 C 8,9 C 8,3 C 51 % 1016,1 hPa 0,0 l/m 25,0 km/h (4 Bft) O 80 0 min 0,000 mm 0,0 UV-I 0 W/m 0,4 C 2,0 C 32,2 km/h (5 Bft) 94,00 %
01.04.2019 21:12 10,1 C 8,9 C 8,3 C 50 % 1016,1 hPa 0,0 l/m 25,8 km/h (4 Bft) O-SO 119 0 min 0,000 mm 0,0 UV-I 0 W/m 0,2 C 1,8 C 32,2 km/h (5 Bft) 98,00 %
01.04.2019 21:14 10,1 C 9,4 C 8,3 C 50 % 1016,2 hPa 0,0 l/m 24,4 km/h (4 Bft) O-NO 78 0 min 0,000 mm 0,0 UV-I 0 W/m 0,2 C 2,1 C 32,2 km/h (5 Bft) 98,00 %
01.04.2019 21:16 10,1 C 9,4 C 8,3 C 50 % 1016,2 hPa 0,0 l/m 20,7 km/h (4 Bft) O-NO 60 0 min 0,000 mm 0,0 UV-I 0 W/m 0,2 C 3,2 C 30,6 km/h (5 Bft) 97,87 %
01.04.2019 21:18 10,0 C 9,4 C 8,3 C 51 % 1016,2 hPa 0,0 l/m 23,9 km/h (4 Bft) O 85 0 min 0,000 mm 0,0 UV-I 0 W/m 0,3 C 2,1 C 32,2 km/h (5 Bft) 100,00 %
01.04.2019 21:20 9,9 C 9,4 C 7,8 C 51 % 1016,2 hPa 0,0 l/m 24,0 km/h (4 Bft) NO 40 0 min 0,000 mm 0,0 UV-I 0 W/m 0,2 C 2,0 C 35,4 km/h (5 Bft) 100,00 %
01.04.2019 21:22 9,9 C 9,4 C 7,8 C 50 % 1016,2 hPa 0,0 l/m 24,1 km/h (4 Bft) O-NO 71 0 min 0,000 mm 0,0 UV-I 0 W/m -0,0 C 1,9 C 35,4 km/h (5 Bft) 95,74 %
01.04.2019 21:24 9,9 C 9,4 C 7,8 C 51 % 1016,2 hPa 0,0 l/m 26,9 km/h (4 Bft) O-NO 70 0 min 0,000 mm 0,0 UV-I 0 W/m 0,2 C 1,2 C 37,0 km/h (5 Bft) 100,00 %
01.04.2019 21:26 9,9 C 9,4 C 7,8 C 50 % 1016,3 hPa 0,0 l/m 25,5 km/h (4 Bft) O-NO 65 0 min 0,000 mm 0,0 UV-I 0 W/m -0,0 C 1,6 C 32,2 km/h (5 Bft) 97,87 %
01.04.2019 21:28 9,8 C 9,4 C 7,8 C 51 % 1016,4 hPa 0,0 l/m 21,6 km/h (4 Bft) O 90 0 min 0,000 mm 0,0 UV-I 0 W/m 0,2 C 2,5 C 27,4 km/h (4 Bft) 93,62 %
01.04.2019 21:30 9,8 C 9,4 C 7,8 C 51 % 1016,3 hPa 0,0 l/m 22,7 km/h (4 Bft) O-NO 76 0 min 0,000 mm 0,0 UV-I 0 W/m 0,2 C 2,2 C 35,4 km/h (5 Bft) 100,00 %
01.04.2019 21:32 9,8 C 9,4 C 7,8 C 51 % 1016,3 hPa 0,0 l/m 26,1 km/h (4 Bft) O-NO 61 0 min 0,000 mm 0,0 UV-I 0 W/m 0,2 C 1,3 C 35,4 km/h (5 Bft) 100,00 %
01.04.2019 21:34 9,7 C 8,9 C 7,8 C 51 % 1016,3 hPa 0,0 l/m 21,0 km/h (4 Bft) O 91 0 min 0,000 mm 0,0 UV-I 0 W/m 0,1 C 2,6 C 27,4 km/h (4 Bft) 97,56 %
01.04.2019 21:36 9,7 C 9,4 C 7,8 C 51 % 1016,3 hPa 0,0 l/m 23,2 km/h (4 Bft) O-NO 65 0 min 0,000 mm 0,0 UV-I 0 W/m 0,1 C 1,9 C 35,4 km/h (5 Bft) 100,00 %
01.04.2019 21:38 9,6 C 9,4 C 7,8 C 52 % 1016,3 hPa 0,0 l/m 22,0 km/h (4 Bft) O-NO 67 0 min 0,000 mm 0,0 UV-I 0 W/m 0,2 C 2,1 C 30,6 km/h (5 Bft) 94,34 %
01.04.2019 21:40 9,5 C 9,4 C 7,8 C 51 % 1016,3 hPa 0,0 l/m 21,1 km/h (4 Bft) O-NO 72 0 min 0,000 mm 0,0 UV-I 0 W/m -0,1 C 2,3 C 25,7 km/h (4 Bft) 97,44 %
01.04.2019 21:42 9,4 C 9,4 C 7,8 C 51 % 1016,3 hPa 0,0 l/m 23,2 km/h (4 Bft) O-NO 70 0 min 0,000 mm 0,0 UV-I 0 W/m -0,2 C 1,5 C 35,4 km/h (5 Bft) 95,74 %
01.04.2019 21:44 9,4 C 9,4 C 7,8 C 51 % 1016,3 hPa 0,0 l/m 20,4 km/h (4 Bft) O-NO 75 0 min 0,000 mm 0,0 UV-I 0 W/m -0,2 C 2,4 C 29,0 km/h (5 Bft) 98,18 %
01.04.2019 21:46 9,4 C 9,4 C 7,8 C 51 % 1016,4 hPa 0,0 l/m 25,3 km/h (4 Bft) O 79 0 min 0,000 mm 0,0 UV-I 0 W/m -0,2 C 0,9 C 35,4 km/h (5 Bft) 97,44 %
01.04.2019 21:48 9,4 C 9,4 C 7,8 C 51 % 1016,3 hPa 0,0 l/m 24,1 km/h (4 Bft) O 84 0 min 0,000 mm 0,0 UV-I 0 W/m -0,2 C 1,3 C 37,0 km/h (5 Bft) 95,74 %
01.04.2019 21:50 9,5 C 9,4 C 7,8 C 51 % 1016,3 hPa 0,0 l/m 25,5 km/h (4 Bft) O 85 0 min 0,000 mm 0,0 UV-I 0 W/m -0,1 C 1,0 C 37,0 km/h (5 Bft) 93,62 %
01.04.2019 21:54 9,4 C 9,4 C 7,8 C 51 % 1016,3 hPa 0,0 l/m 26,2 km/h (4 Bft) O-NO 76 0 min 0,000 mm 0,0 UV-I 0 W/m -0,2 C 0,7 C 27,4 km/h (4 Bft) 97,94 %
01.04.2019 21:56 9,3 C 8,9 C 7,2 C 51 % 1016,3 hPa 0,0 l/m 19,7 km/h (3 Bft) O-NO 74 0 min 0,000 mm 0,0 UV-I 0 W/m -0,3 C 2,5 C 25,7 km/h (4 Bft) 97,62 %
01.04.2019 21:58 9,3 C 9,4 C 7,2 C 51 % 1016,3 hPa 0,0 l/m 21,9 km/h (4 Bft) O-NO 68 0 min 0,000 mm 0,0 UV-I 0 W/m -0,3 C 1,8 C 29,0 km/h (5 Bft) 98,00 %
01.04.2019 22:00 9,2 C 9,4 C 7,2 C 51 % 1016,3 hPa 0,0 l/m 26,4 km/h (4 Bft) O 80 0 min 0,000 mm 0,0 UV-I 0 W/m -0,4 C 0,4 C 33,8 km/h (5 Bft) 98,00 %
01.04.2019 22:02 9,2 C 9,4 C 7,2 C 52 % 1016,4 hPa 0,0 l/m 23,0 km/h (4 Bft) O 97 0 min 0,127 mm 0,0 UV-I 0 W/m -0,1 C 1,3 C 30,6 km/h (5 Bft) 97,56 %
01.04.2019 22:04 9,2 C 9,4 C 7,2 C 52 % 1016,4 hPa 0,0 l/m 21,8 km/h (4 Bft) O 80 0 min 0,000 mm 0,0 UV-I 0 W/m -0,1 C 1,7 C 29,0 km/h (5 Bft) 97,87 %
01.04.2019 22:06 9,1 C 9,4 C 7,2 C 52 % 1016,3 hPa 0,0 l/m 20,5 km/h (4 Bft) O-NO 63 0 min 0,000 mm 0,0 UV-I 0 W/m -0,2 C 2,0 C 30,6 km/h (5 Bft) 98,11 %
01.04.2019 22:08 9,1 C 9,4 C 7,2 C 52 % 1016,4 hPa 0,0 l/m 21,0 km/h (4 Bft) O 86 0 min 0,000 mm 0,0 UV-I 0 W/m -0,2 C 1,8 C 27,4 km/h (4 Bft) 97,73 %
01.04.2019 22:10 9,1 C 9,4 C 7,2 C 52 % 1016,3 hPa 0,0 l/m 23,7 km/h (4 Bft) O-NO 75 0 min 0,000 mm 0,0 UV-I 0 W/m -0,2 C 1,0 C 32,2 km/h (5 Bft) 95,45 %
01.04.2019 22:12 9,0 C 9,4 C 7,2 C 52 % 1016,3 hPa 0,0 l/m 20,9 km/h (4 Bft) O-SO 109 0 min 0,000 mm 0,0 UV-I 0 W/m -0,3 C 1,7 C 29,0 km/h (5 Bft) 97,87 %
01.04.2019 22:14 9,0 C 9,4 C 7,2 C 52 % 1016,3 hPa 0,0 l/m 22,7 km/h (4 Bft) O 82 0 min 0,000 mm 0,0 UV-I 0 W/m -0,3 C 1,1 C 33,8 km/h (5 Bft) 96,00 %
01.04.2019 22:16 9,0 C 8,9 C 7,2 C 51 % 1016,3 hPa 0,0 l/m 25,8 km/h (4 Bft) O-NO 74 0 min 0,000 mm 0,0 UV-I 0 W/m -0,6 C 0,3 C 33,8 km/h (5 Bft) 95,24 %
01.04.2019 22:18 8,9 C 9,4 C 7,2 C 52 % 1016,3 hPa 0,0 l/m 21,1 km/h (4 Bft) O 99 0 min 0,000 mm 0,0 UV-I 0 W/m -0,4 C 1,5 C 30,6 km/h (5 Bft) 95,74 %
01.04.2019 22:20 8,9 C 9,4 C 6,7 C 52 % 1016,3 hPa 0,0 l/m 18,0 km/h (3 Bft) O-NO 78 0 min 0,000 mm 0,0 UV-I 0 W/m -0,4 C 2,6 C 24,1 km/h (4 Bft) 96,23 %
01.04.2019 22:22 8,8 C 9,4 C 6,7 C 52 % 1016,3 hPa 0,0 l/m 19,4 km/h (3 Bft) O 96 0 min 0,000 mm 0,0 UV-I 0 W/m -0,5 C 1,9 C 24,1 km/h (4 Bft) 92,68 %
01.04.2019 22:24 8,8 C 9,4 C 6,7 C 52 % 1016,3 hPa 0,0 l/m 18,6 km/h (3 Bft) O 92 0 min 0,000 mm 0,0 UV-I 0 W/m -0,5 C 2,2 C 25,7 km/h (4 Bft) 92,86 %
01.04.2019 22:26 8,8 C 9,4 C 6,7 C 52 % 1016,2 hPa 0,0 l/m 23,1 km/h (4 Bft) O-NO 75 0 min 0,000 mm 0,0 UV-I 0 W/m -0,5 C 0,7 C 33,8 km/h (5 Bft) 93,18 %
01.04.2019 22:28 8,8 C 9,4 C 7,2 C 52 % 1016,2 hPa 0,0 l/m 24,2 km/h (4 Bft) O 87 0 min 0,000 mm 0,0 UV-I 0 W/m -0,5 C 0,4 C 40,2 km/h (6 Bft) 92,00 %
01.04.2019 22:30 8,8 C 9,4 C 7,2 C 51 % 1016,2 hPa 0,0 l/m 25,6 km/h (4 Bft) O-NO 67 0 min 0,000 mm 0,0 UV-I 0 W/m -0,8 C 0,0 C 38,6 km/h (5 Bft) 93,62 %
01.04.2019 22:32 8,8 C 9,4 C 7,2 C 52 % 1016,2 hPa 0,0 l/m 20,7 km/h (4 Bft) O-NO 69 0 min 0,000 mm 0,0 UV-I 0 W/m -0,5 C 1,5 C 30,6 km/h (5 Bft) 94,29 %
01.04.2019 22:34 8,7 C 9,4 C 6,7 C 52 % 1016,2 hPa 0,0 l/m 23,9 km/h (4 Bft) O 84 0 min 0,000 mm 0,0 UV-I 0 W/m -0,6 C 0,4 C 30,6 km/h (5 Bft) 93,18 %
01.04.2019 22:36 8,8 C 9,4 C 6,7 C 52 % 1016,2 hPa 0,0 l/m 23,3 km/h (4 Bft) O 96 0 min 0,000 mm 0,0 UV-I 0 W/m -0,5 C 0,7 C 30,6 km/h (5 Bft) 89,83 %
01.04.2019 22:38 8,7 C 9,4 C 6,7 C 52 % 1016,1 hPa 0,0 l/m 18,6 km/h (3 Bft) O-NO 69 0 min 0,000 mm 0,0 UV-I 0 W/m -0,6 C 2,1 C 27,4 km/h (4 Bft) 95,12 %
01.04.2019 22:40 8,7 C 9,4 C 6,7 C 52 % 1016,1 hPa 0,0 l/m 21,6 km/h (4 Bft) O 80 0 min 0,000 mm 0,0 UV-I 0 W/m -0,6 C 1,1 C 32,2 km/h (5 Bft) 94,34 %
01.04.2019 22:42 8,7 C 9,4 C 6,7 C 52 % 1016,1 hPa 0,0 l/m 25,3 km/h (4 Bft) O 87 0 min 0,000 mm 0,0 UV-I 0 W/m -0,6 C -0,0 C 35,4 km/h (5 Bft) 96,55 %
01.04.2019 22:44 8,7 C 9,4 C 6,7 C 52 % 1016,2 hPa 0,0 l/m 23,5 km/h (4 Bft) O-NO 57 0 min 0,000 mm 0,0 UV-I 0 W/m -0,6 C 0,5 C 33,8 km/h (5 Bft) 95,16 %
01.04.2019 22:46 8,6 C 9,4 C 6,7 C 52 % 1016,1 hPa 0,0 l/m 21,4 km/h (4 Bft) O-NO 68 0 min 0,000 mm 0,0 UV-I 0 W/m -0,7 C 1,0 C 32,2 km/h (5 Bft) 96,00 %
01.04.2019 22:48 8,6 C 9,4 C 6,7 C 52 % 1016,2 hPa 0,0 l/m 20,8 km/h (4 Bft) O-NO 62 0 min 0,000 mm 0,0 UV-I 0 W/m -0,7 C 1,2 C 27,4 km/h (4 Bft) 92,68 %
01.04.2019 22:50 8,5 C 9,4 C 6,7 C 52 % 1016,2 hPa 0,0 l/m 19,7 km/h (3 Bft) O-NO 68 0 min 0,000 mm 0,0 UV-I 0 W/m -0,8 C 1,5 C 29,0 km/h (5 Bft) 92,31 %
01.04.2019 22:52 8,4 C 9,4 C 6,7 C 52 % 1016,2 hPa 0,0 l/m 19,9 km/h (4 Bft) O 83 0 min 0,000 mm 0,0 UV-I 0 W/m -0,9 C 1,3 C 25,7 km/h (4 Bft) 96,15 %
01.04.2019 22:54 8,4 C 9,4 C 6,7 C 52 % 1016,1 hPa 0,0 l/m 23,7 km/h (4 Bft) O-NO 67 0 min 0,000 mm 0,0 UV-I 0 W/m -0,9 C 0,0 C 40,2 km/h (6 Bft) 98,11 %
01.04.2019 22:56 8,4 C 9,4 C 6,7 C 52 % 1016,1 hPa 0,0 l/m 22,2 km/h (4 Bft) O-SO 108 0 min 0,000 mm 0,0 UV-I 0 W/m -0,9 C 0,5 C 30,6 km/h (5 Bft) 97,87 %
01.04.2019 22:58 8,3 C 9,4 C 6,7 C 52 % 1016,1 hPa 0,0 l/m 20,8 km/h (4 Bft) O-NO 77 0 min 0,000 mm 0,0 UV-I 0 W/m -1,0 C 0,8 C 30,6 km/h (5 Bft) 97,92 %
01.04.2019 23:00 8,3 C 9,4 C 6,7 C 52 % 1016,1 hPa 0,0 l/m 22,7 km/h (4 Bft) O 97 0 min 0,000 mm 0,0 UV-I 0 W/m -1,0 C 0,2 C 30,6 km/h (5 Bft) 97,37 %
01.04.2019 23:02 8,3 C 9,4 C 6,7 C 52 % 1016,1 hPa 0,0 l/m 20,5 km/h (4 Bft) O-NO 67 0 min 0,102 mm 0,0 UV-I 0 W/m -1,0 C 0,9 C 27,4 km/h (4 Bft) 100,00 %
01.04.2019 23:04 8,3 C 9,4 C 6,1 C 52 % 1016,1 hPa 0,0 l/m 18,5 km/h (3 Bft) O-NO 67 0 min 0,000 mm 0,0 UV-I 0 W/m -1,0 C 1,6 C 25,7 km/h (4 Bft) 100,00 %
01.04.2019 23:06 8,3 C 9,4 C 6,7 C 52 % 1016,1 hPa 0,0 l/m 22,7 km/h (4 Bft) O-NO 75 0 min 0,000 mm 0,0 UV-I 0 W/m -1,0 C 0,2 C 30,6 km/h (5 Bft) 97,87 %
01.04.2019 23:08 8,3 C 8,9 C 6,7 C 51 % 1016,0 hPa 0,0 l/m 26,5 km/h (4 Bft) O-SO 104 0 min 0,000 mm 0,0 UV-I 0 W/m -1,2 C -0,9 C 33,8 km/h (5 Bft) 97,56 %
01.04.2019 23:10 8,3 C 9,4 C 6,7 C 52 % 1016,1 hPa 0,0 l/m 19,8 km/h (3 Bft) O-NO 74 0 min 0,000 mm 0,0 UV-I 0 W/m -1,0 C 1,2 C 29,0 km/h (5 Bft) 98,11 %
01.04.2019 23:12 8,3 C 9,4 C 6,1 C 51 % 1016,0 hPa 0,0 l/m 25,5 km/h (4 Bft) O-NO 70 0 min 0,000 mm 0,0 UV-I 0 W/m -1,2 C -0,6 C 33,8 km/h (5 Bft) 100,00 %
01.04.2019 23:14 8,3 C 9,4 C 6,1 C 51 % 1016,0 hPa 0,0 l/m 24,2 km/h (4 Bft) O-SO 109 0 min 0,000 mm 0,0 UV-I 0 W/m -1,2 C -0,2 C 32,2 km/h (5 Bft) 100,00 %
01.04.2019 23:16 8,3 C 9,4 C 6,1 C 51 % 1016,1 hPa 0,0 l/m 24,6 km/h (4 Bft) O-NO 65 0 min 0,000 mm 0,0 UV-I 0 W/m -1,2 C -0,4 C 35,4 km/h (5 Bft) 100,00 %
01.04.2019 23:18 8,2 C 9,4 C 6,1 C 51 % 1016,1 hPa 0,0 l/m 21,3 km/h (4 Bft) O 90 0 min 0,000 mm 0,0 UV-I 0 W/m -1,3 C 0,5 C 29,0 km/h (5 Bft) 98,11 %
01.04.2019 23:20 8,2 C 9,4 C 6,1 C 52 % 1016,1 hPa 0,0 l/m 22,0 km/h (4 Bft) O-NO 78 0 min 0,000 mm 0,0 UV-I 0 W/m -1,1 C 0,3 C 29,0 km/h (5 Bft) 100,00 %
01.04.2019 23:22 8,2 C 9,4 C 6,7 C 51 % 1016,1 hPa 0,0 l/m 23,8 km/h (4 Bft) O 79 0 min 0,000 mm 0,0 UV-I 0 W/m -1,3 C -0,3 C 30,6 km/h (5 Bft) 100,00 %
01.04.2019 23:24 8,2 C 9,4 C 6,1 C 51 % 1016,0 hPa 0,0 l/m 19,8 km/h (3 Bft) O 80 0 min 0,000 mm 0,0 UV-I 0 W/m -1,3 C 1,0 C 27,4 km/h (4 Bft) 100,00 %
01.04.2019 23:26 8,2 C 9,4 C 6,1 C 51 % 1016,1 hPa 0,0 l/m 20,8 km/h (4 Bft) O 96 0 min 0,000 mm 0,0 UV-I 0 W/m -1,3 C 0,7 C 25,7 km/h (4 Bft) 98,00 %
01.04.2019 23:28 8,1 C 9,4 C 6,1 C 51 % 1016,0 hPa 0,0 l/m 19,1 km/h (3 Bft) O-NO 65 0 min 0,000 mm 0,0 UV-I 0 W/m -1,4 C 1,2 C 25,7 km/h (4 Bft) 100,00 %
01.04.2019 23:30 8,1 C 9,4 C 6,1 C 51 % 1016,1 hPa 0,0 l/m 21,6 km/h (4 Bft) O-NO 59 0 min 0,000 mm 0,0 UV-I 0 W/m -1,4 C 0,3 C 27,4 km/h (4 Bft) 98,28 %
01.04.2019 23:32 8,0 C 9,4 C 6,1 C 52 % 1016,1 hPa 0,0 l/m 19,5 km/h (3 Bft) O-NO 76 0 min 0,000 mm 0,0 UV-I 0 W/m -1,2 C 0,9 C 24,1 km/h (4 Bft) 100,00 %
01.04.2019 23:34 8,0 C 9,4 C 6,1 C 51 % 1016,1 hPa 0,0 l/m 22,6 km/h (4 Bft) O-NO 78 0 min 0,000 mm 0,0 UV-I 0 W/m -1,5 C -0,2 C 32,2 km/h (5 Bft) 100,00 %
01.04.2019 23:36 7,9 C 8,9 C 6,1 C 52 % 1016,1 hPa 0,0 l/m 22,2 km/h (4 Bft) O 80 0 min 0,000 mm 0,0 UV-I 0 W/m -1,3 C -0,2 C 30,6 km/h (5 Bft) 97,87 %
01.04.2019 23:38 7,9 C 8,9 C 6,1 C 52 % 1016,1 hPa 0,0 l/m 19,7 km/h (3 Bft) O-NO 69 0 min 0,000 mm 0,0 UV-I 0 W/m -1,3 C 0,7 C 27,4 km/h (4 Bft) 97,56 %
01.04.2019 23:40 7,9 C 9,4 C 6,1 C 52 % 1016,1 hPa 0,0 l/m 22,4 km/h (4 Bft) O-NO 70 0 min 0,000 mm 0,0 UV-I 0 W/m -1,3 C -0,2 C 30,6 km/h (5 Bft) 96,00 %
01.04.2019 23:42 7,9 C 9,4 C 6,1 C 52 % 1016,1 hPa 0,0 l/m 20,5 km/h (4 Bft) O-NO 78 0 min 0,000 mm 0,0 UV-I 0 W/m -1,3 C 0,4 C 27,4 km/h (4 Bft) 98,00 %
01.04.2019 23:44 7,8 C 8,9 C 6,1 C 52 % 1015,9 hPa 0,0 l/m 18,3 km/h (3 Bft) O 98 0 min 0,000 mm 0,0 UV-I 0 W/m -1,4 C 1,1 C 25,7 km/h (4 Bft) 98,00 %
01.04.2019 23:46 7,8 C 9,4 C 6,1 C 52 % 1016,0 hPa 0,0 l/m 20,5 km/h (4 Bft) O 79 0 min 0,000 mm 0,0 UV-I 0 W/m -1,4 C 0,3 C 29,0 km/h (5 Bft) 97,87 %
01.04.2019 23:48 7,8 C 9,4 C 6,1 C 52 % 1015,9 hPa 0,0 l/m 20,5 km/h (4 Bft) O-NO 76 0 min 0,000 mm 0,0 UV-I 0 W/m -1,4 C 0,3 C 33,8 km/h (5 Bft) 97,56 %
01.04.2019 23:50 7,8 C 9,4 C 6,1 C 52 % 1015,9 hPa 0,0 l/m 20,2 km/h (4 Bft) NO 50 0 min 0,000 mm 0,0 UV-I 0 W/m -1,4 C 0,4 C 30,6 km/h (5 Bft) 94,34 %
01.04.2019 23:52 7,7 C 9,4 C 5,6 C 53 % 1015,9 hPa 0,0 l/m 22,0 km/h (4 Bft) NO 47 0 min 0,000 mm 0,0 UV-I 0 W/m -1,3 C -0,4 C 30,6 km/h (5 Bft) 97,87 %
01.04.2019 23:54 7,7 C 9,4 C 5,6 C 52 % 1015,9 hPa 0,0 l/m 19,5 km/h (3 Bft) O 90 0 min 0,000 mm 0,0 UV-I 0 W/m -1,5 C 0,5 C 27,4 km/h (4 Bft) 97,87 %
01.04.2019 23:56 7,7 C 9,4 C 6,1 C 52 % 1015,9 hPa 0,0 l/m 18,7 km/h (3 Bft) O-NO 63 0 min 0,000 mm 0,0 UV-I 0 W/m -1,5 C 0,8 C 29,0 km/h (5 Bft) 97,14 %
01.04.2019 23:58 7,6 C 9,4 C 5,6 C 52 % 1015,9 hPa 0,0 l/m 18,9 km/h (3 Bft) O-NO 78 0 min 0,000 mm 0,0 UV-I 0 W/m -1,6 C 0,6 C 24,1 km/h (4 Bft) 100,00 %
_ Min-Zeit 05:34 00:00 04:14 17:04 17:56 - 00:10 - - - - - - 23:58 09:06 00:02 00:02
Minimum _ 6,3 C 8,3 C 4,4 C 46 % 1015,5 hPa - 4,7 km/h (1 Bft) - - - - - - -1,6 C -2,3 C 8,0 km/h (2 Bft) 7,14 %
_ Max-Zeit 16:24 12:32 14:22 07:00 10:14 00:00 10:54 - - 08:44 14:00 13:04 12:54 14:16 16:54 10:54 00:12
Maximum _ 14,9 C 9,4 C 23,9 C 87 % 1019,8 hPa 0,0 l/m 41,3 km/h
O-NO (6 Bft)
- - 4 min 0,508 mm 2,7 UV-I 700 W/m 5,1 C 10,1 C 62,8 km/h
O (8 Bft)
100,00 %
Durchschnitt _ 10,2 C 8,8 C 11,3 C 62 % 1017,9 hPa #0,0 l/m 22,0 km/h (4 Bft) O-NO - #10:56 h #4,699 mm 1,7 UV-I 387 W/m 3,1 C 3,8 C 30,8 km/h (5 Bft) 97,15 %